<?xml version="1.0" encoding="UTF-8" standalone="no" ?>
<gpx xmlns="http://www.topografix.com/GPX/1/1" xmlns:xsi="http://www.w3.org/2001/XMLSchema-instance" xsi:schemaLocation="http://www.topografix.com/GPX/1/1 http://www.topografix.com/GPX/1/1/gpx.xsd" version="1.1" creator="VisuGPX - https://www.visugpx.com">
  <metadata>
    <name>Sortie VTT à Zimmerbach le 02/03/14</name>
    <desc><![CDATA[Sortie VTT départ de Zimmerbach.
]]></desc>
  </metadata>
  <trk>
    <name><![CDATA[Tracé 2 mars 2014 08:53:39]]></name>
    <trkseg>
      <trkpt lat="48.07447" lon="7.23066">
        <ele>248</ele>
        <time>2014-03-02T07:53:39Z</time>
      </trkpt>
      <trkpt lat="48.07463" lon="7.23039">
        <ele>309</ele>
        <time>2014-03-02T07:55:38Z</time>
      </trkpt>
      <trkpt lat="48.07455" lon="7.23042">
        <ele>325</ele>
        <time>2014-03-02T08:01:13Z</time>
      </trkpt>
      <trkpt lat="48.07452" lon="7.23031">
        <ele>337</ele>
        <time>2014-03-02T08:03:44Z</time>
      </trkpt>
      <trkpt lat="48.07444" lon="7.23029">
        <ele>337</ele>
        <time>2014-03-02T08:03:48Z</time>
      </trkpt>
      <trkpt lat="48.07433" lon="7.23028">
        <ele>337</ele>
        <time>2014-03-02T08:03:53Z</time>
      </trkpt>
      <trkpt lat="48.07422" lon="7.23021">
        <ele>337</ele>
        <time>2014-03-02T08:03:57Z</time>
      </trkpt>
      <trkpt lat="48.07418" lon="7.23007">
        <ele>336</ele>
        <time>2014-03-02T08:04:01Z</time>
      </trkpt>
      <trkpt lat="48.07415" lon="7.2299">
        <ele>337</ele>
        <time>2014-03-02T08:04:06Z</time>
      </trkpt>
      <trkpt lat="48.07412" lon="7.22977">
        <ele>338</ele>
        <time>2014-03-02T08:04:10Z</time>
      </trkpt>
      <trkpt lat="48.07408" lon="7.22965">
        <ele>340</ele>
        <time>2014-03-02T08:04:14Z</time>
      </trkpt>
      <trkpt lat="48.07403" lon="7.2295">
        <ele>342</ele>
        <time>2014-03-02T08:04:19Z</time>
      </trkpt>
      <trkpt lat="48.07401" lon="7.22935">
        <ele>342</ele>
        <time>2014-03-02T08:04:24Z</time>
      </trkpt>
      <trkpt lat="48.07399" lon="7.22923">
        <ele>343</ele>
        <time>2014-03-02T08:04:28Z</time>
      </trkpt>
      <trkpt lat="48.07399" lon="7.22911">
        <ele>343</ele>
        <time>2014-03-02T08:04:32Z</time>
      </trkpt>
      <trkpt lat="48.074" lon="7.22897">
        <ele>345</ele>
        <time>2014-03-02T08:04:37Z</time>
      </trkpt>
      <trkpt lat="48.07404" lon="7.22886">
        <ele>347</ele>
        <time>2014-03-02T08:04:42Z</time>
      </trkpt>
      <trkpt lat="48.07402" lon="7.22873">
        <ele>349</ele>
        <time>2014-03-02T08:04:48Z</time>
      </trkpt>
      <trkpt lat="48.07395" lon="7.22868">
        <ele>350</ele>
        <time>2014-03-02T08:04:53Z</time>
      </trkpt>
      <trkpt lat="48.07387" lon="7.22867">
        <ele>354</ele>
        <time>2014-03-02T08:04:59Z</time>
      </trkpt>
      <trkpt lat="48.07378" lon="7.22868">
        <ele>358</ele>
        <time>2014-03-02T08:05:05Z</time>
      </trkpt>
      <trkpt lat="48.0737" lon="7.22871">
        <ele>358</ele>
        <time>2014-03-02T08:05:10Z</time>
      </trkpt>
      <trkpt lat="48.07362" lon="7.22875">
        <ele>362</ele>
        <time>2014-03-02T08:05:16Z</time>
      </trkpt>
      <trkpt lat="48.07353" lon="7.22875">
        <ele>364</ele>
        <time>2014-03-02T08:05:23Z</time>
      </trkpt>
      <trkpt lat="48.07346" lon="7.2288">
        <ele>367</ele>
        <time>2014-03-02T08:05:29Z</time>
      </trkpt>
      <trkpt lat="48.07337" lon="7.2288">
        <ele>368</ele>
        <time>2014-03-02T08:05:36Z</time>
      </trkpt>
      <trkpt lat="48.0733" lon="7.22878">
        <ele>369</ele>
        <time>2014-03-02T08:05:42Z</time>
      </trkpt>
      <trkpt lat="48.07321" lon="7.22875">
        <ele>369</ele>
        <time>2014-03-02T08:05:49Z</time>
      </trkpt>
      <trkpt lat="48.07313" lon="7.22871">
        <ele>370</ele>
        <time>2014-03-02T08:05:56Z</time>
      </trkpt>
      <trkpt lat="48.07305" lon="7.22866">
        <ele>372</ele>
        <time>2014-03-02T08:06:02Z</time>
      </trkpt>
      <trkpt lat="48.07299" lon="7.22858">
        <ele>373</ele>
        <time>2014-03-02T08:06:07Z</time>
      </trkpt>
      <trkpt lat="48.07293" lon="7.22851">
        <ele>373</ele>
        <time>2014-03-02T08:06:12Z</time>
      </trkpt>
      <trkpt lat="48.07287" lon="7.22843">
        <ele>374</ele>
        <time>2014-03-02T08:06:16Z</time>
      </trkpt>
      <trkpt lat="48.07282" lon="7.22835">
        <ele>373</ele>
        <time>2014-03-02T08:06:22Z</time>
      </trkpt>
      <trkpt lat="48.07277" lon="7.22825">
        <ele>373</ele>
        <time>2014-03-02T08:06:27Z</time>
      </trkpt>
      <trkpt lat="48.07273" lon="7.22814">
        <ele>373</ele>
        <time>2014-03-02T08:06:32Z</time>
      </trkpt>
      <trkpt lat="48.07269" lon="7.22803">
        <ele>375</ele>
        <time>2014-03-02T08:06:37Z</time>
      </trkpt>
      <trkpt lat="48.07267" lon="7.22791">
        <ele>375</ele>
        <time>2014-03-02T08:06:42Z</time>
      </trkpt>
      <trkpt lat="48.07265" lon="7.22778">
        <ele>375</ele>
        <time>2014-03-02T08:06:47Z</time>
      </trkpt>
      <trkpt lat="48.07263" lon="7.22766">
        <ele>377</ele>
        <time>2014-03-02T08:06:52Z</time>
      </trkpt>
      <trkpt lat="48.07262" lon="7.22753">
        <ele>378</ele>
        <time>2014-03-02T08:06:57Z</time>
      </trkpt>
      <trkpt lat="48.07261" lon="7.22742">
        <ele>378</ele>
        <time>2014-03-02T08:07:01Z</time>
      </trkpt>
      <trkpt lat="48.07259" lon="7.22731">
        <ele>379</ele>
        <time>2014-03-02T08:07:05Z</time>
      </trkpt>
      <trkpt lat="48.07258" lon="7.2272">
        <ele>379</ele>
        <time>2014-03-02T08:07:09Z</time>
      </trkpt>
      <trkpt lat="48.07257" lon="7.22705">
        <ele>380</ele>
        <time>2014-03-02T08:07:14Z</time>
      </trkpt>
      <trkpt lat="48.07256" lon="7.22694">
        <ele>381</ele>
        <time>2014-03-02T08:07:18Z</time>
      </trkpt>
      <trkpt lat="48.07255" lon="7.22683">
        <ele>382</ele>
        <time>2014-03-02T08:07:22Z</time>
      </trkpt>
      <trkpt lat="48.07254" lon="7.22672">
        <ele>382</ele>
        <time>2014-03-02T08:07:26Z</time>
      </trkpt>
      <trkpt lat="48.07254" lon="7.22661">
        <ele>383</ele>
        <time>2014-03-02T08:07:30Z</time>
      </trkpt>
      <trkpt lat="48.07256" lon="7.22648">
        <ele>384</ele>
        <time>2014-03-02T08:07:35Z</time>
      </trkpt>
      <trkpt lat="48.07256" lon="7.22635">
        <ele>385</ele>
        <time>2014-03-02T08:07:40Z</time>
      </trkpt>
      <trkpt lat="48.07255" lon="7.22622">
        <ele>385</ele>
        <time>2014-03-02T08:07:45Z</time>
      </trkpt>
      <trkpt lat="48.07252" lon="7.22611">
        <ele>384</ele>
        <time>2014-03-02T08:07:49Z</time>
      </trkpt>
      <trkpt lat="48.07247" lon="7.22602">
        <ele>385</ele>
        <time>2014-03-02T08:07:53Z</time>
      </trkpt>
      <trkpt lat="48.0724" lon="7.22597">
        <ele>384</ele>
        <time>2014-03-02T08:07:57Z</time>
      </trkpt>
      <trkpt lat="48.07233" lon="7.22593">
        <ele>384</ele>
        <time>2014-03-02T08:08:01Z</time>
      </trkpt>
      <trkpt lat="48.07224" lon="7.22588">
        <ele>383</ele>
        <time>2014-03-02T08:08:06Z</time>
      </trkpt>
      <trkpt lat="48.07216" lon="7.22582">
        <ele>383</ele>
        <time>2014-03-02T08:08:11Z</time>
      </trkpt>
      <trkpt lat="48.07211" lon="7.22574">
        <ele>383</ele>
        <time>2014-03-02T08:08:15Z</time>
      </trkpt>
      <trkpt lat="48.07203" lon="7.22563">
        <ele>382</ele>
        <time>2014-03-02T08:08:20Z</time>
      </trkpt>
      <trkpt lat="48.07199" lon="7.22554">
        <ele>384</ele>
        <time>2014-03-02T08:08:24Z</time>
      </trkpt>
      <trkpt lat="48.07193" lon="7.22545">
        <ele>386</ele>
        <time>2014-03-02T08:08:28Z</time>
      </trkpt>
      <trkpt lat="48.07188" lon="7.22535">
        <ele>386</ele>
        <time>2014-03-02T08:08:32Z</time>
      </trkpt>
      <trkpt lat="48.07181" lon="7.2252">
        <ele>387</ele>
        <time>2014-03-02T08:08:37Z</time>
      </trkpt>
      <trkpt lat="48.07177" lon="7.22507">
        <ele>387</ele>
        <time>2014-03-02T08:08:40Z</time>
      </trkpt>
      <trkpt lat="48.07173" lon="7.22494">
        <ele>385</ele>
        <time>2014-03-02T08:08:45Z</time>
      </trkpt>
      <trkpt lat="48.07167" lon="7.22484">
        <ele>386</ele>
        <time>2014-03-02T08:08:49Z</time>
      </trkpt>
      <trkpt lat="48.07158" lon="7.22477">
        <ele>389</ele>
        <time>2014-03-02T08:08:54Z</time>
      </trkpt>
      <trkpt lat="48.0715" lon="7.22473">
        <ele>392</ele>
        <time>2014-03-02T08:09:00Z</time>
      </trkpt>
      <trkpt lat="48.07144" lon="7.22464">
        <ele>391</ele>
        <time>2014-03-02T08:09:05Z</time>
      </trkpt>
      <trkpt lat="48.0714" lon="7.22453">
        <ele>393</ele>
        <time>2014-03-02T08:09:10Z</time>
      </trkpt>
      <trkpt lat="48.07137" lon="7.2244">
        <ele>393</ele>
        <time>2014-03-02T08:09:16Z</time>
      </trkpt>
      <trkpt lat="48.07131" lon="7.22431">
        <ele>400</ele>
        <time>2014-03-02T08:09:24Z</time>
      </trkpt>
      <trkpt lat="48.07125" lon="7.22423">
        <ele>402</ele>
        <time>2014-03-02T08:09:30Z</time>
      </trkpt>
      <trkpt lat="48.07121" lon="7.22411">
        <ele>405</ele>
        <time>2014-03-02T08:09:36Z</time>
      </trkpt>
      <trkpt lat="48.07114" lon="7.22403">
        <ele>407</ele>
        <time>2014-03-02T08:09:42Z</time>
      </trkpt>
      <trkpt lat="48.07108" lon="7.22396">
        <ele>408</ele>
        <time>2014-03-02T08:09:47Z</time>
      </trkpt>
      <trkpt lat="48.07101" lon="7.2239">
        <ele>409</ele>
        <time>2014-03-02T08:09:52Z</time>
      </trkpt>
      <trkpt lat="48.07095" lon="7.22382">
        <ele>408</ele>
        <time>2014-03-02T08:09:57Z</time>
      </trkpt>
      <trkpt lat="48.07088" lon="7.22372">
        <ele>406</ele>
        <time>2014-03-02T08:10:02Z</time>
      </trkpt>
      <trkpt lat="48.07081" lon="7.22364">
        <ele>403</ele>
        <time>2014-03-02T08:10:08Z</time>
      </trkpt>
      <trkpt lat="48.07073" lon="7.22364">
        <ele>410</ele>
        <time>2014-03-02T08:10:14Z</time>
      </trkpt>
      <trkpt lat="48.07065" lon="7.22366">
        <ele>413</ele>
        <time>2014-03-02T08:10:21Z</time>
      </trkpt>
      <trkpt lat="48.07058" lon="7.22359">
        <ele>416</ele>
        <time>2014-03-02T08:10:29Z</time>
      </trkpt>
      <trkpt lat="48.07051" lon="7.22354">
        <ele>422</ele>
        <time>2014-03-02T08:10:36Z</time>
      </trkpt>
      <trkpt lat="48.07043" lon="7.22351">
        <ele>423</ele>
        <time>2014-03-02T08:10:42Z</time>
      </trkpt>
      <trkpt lat="48.07035" lon="7.22355">
        <ele>426</ele>
        <time>2014-03-02T08:10:48Z</time>
      </trkpt>
      <trkpt lat="48.07028" lon="7.22362">
        <ele>432</ele>
        <time>2014-03-02T08:10:54Z</time>
      </trkpt>
      <trkpt lat="48.07019" lon="7.22363">
        <ele>430</ele>
        <time>2014-03-02T08:11:00Z</time>
      </trkpt>
      <trkpt lat="48.07011" lon="7.2236">
        <ele>431</ele>
        <time>2014-03-02T08:11:07Z</time>
      </trkpt>
      <trkpt lat="48.07003" lon="7.22362">
        <ele>435</ele>
        <time>2014-03-02T08:11:17Z</time>
      </trkpt>
      <trkpt lat="48.06995" lon="7.22366">
        <ele>438</ele>
        <time>2014-03-02T08:11:23Z</time>
      </trkpt>
      <trkpt lat="48.06986" lon="7.22365">
        <ele>438</ele>
        <time>2014-03-02T08:11:30Z</time>
      </trkpt>
      <trkpt lat="48.06977" lon="7.22364">
        <ele>440</ele>
        <time>2014-03-02T08:11:40Z</time>
      </trkpt>
      <trkpt lat="48.06969" lon="7.22365">
        <ele>441</ele>
        <time>2014-03-02T08:11:46Z</time>
      </trkpt>
      <trkpt lat="48.06961" lon="7.22363">
        <ele>410</ele>
        <time>2014-03-02T08:11:53Z</time>
      </trkpt>
      <trkpt lat="48.06952" lon="7.22364">
        <ele>390</ele>
        <time>2014-03-02T08:12:00Z</time>
      </trkpt>
      <trkpt lat="48.06944" lon="7.22364">
        <ele>428</ele>
        <time>2014-03-02T08:12:06Z</time>
      </trkpt>
      <trkpt lat="48.06936" lon="7.22365">
        <ele>415</ele>
        <time>2014-03-02T08:12:11Z</time>
      </trkpt>
      <trkpt lat="48.06928" lon="7.22363">
        <ele>432</ele>
        <time>2014-03-02T08:12:15Z</time>
      </trkpt>
      <trkpt lat="48.06919" lon="7.22355">
        <ele>432</ele>
        <time>2014-03-02T08:12:20Z</time>
      </trkpt>
      <trkpt lat="48.06858" lon="7.22361">
        <ele>422</ele>
        <time>2014-03-02T08:12:28Z</time>
      </trkpt>
      <trkpt lat="48.06846" lon="7.22364">
        <ele>417</ele>
        <time>2014-03-02T08:12:33Z</time>
      </trkpt>
      <trkpt lat="48.06839" lon="7.22375">
        <ele>415</ele>
        <time>2014-03-02T08:12:37Z</time>
      </trkpt>
      <trkpt lat="48.06818" lon="7.2241">
        <ele>391</ele>
        <time>2014-03-02T08:12:41Z</time>
      </trkpt>
      <trkpt lat="48.06792" lon="7.22444">
        <ele>395</ele>
        <time>2014-03-02T08:12:46Z</time>
      </trkpt>
      <trkpt lat="48.0677" lon="7.22446">
        <ele>392</ele>
        <time>2014-03-02T08:12:51Z</time>
      </trkpt>
      <trkpt lat="48.06764" lon="7.22418">
        <ele>395</ele>
        <time>2014-03-02T08:12:55Z</time>
      </trkpt>
      <trkpt lat="48.06761" lon="7.22401">
        <ele>395</ele>
        <time>2014-03-02T08:13:00Z</time>
      </trkpt>
      <trkpt lat="48.06756" lon="7.22378">
        <ele>397</ele>
        <time>2014-03-02T08:13:05Z</time>
      </trkpt>
      <trkpt lat="48.06752" lon="7.22359">
        <ele>397</ele>
        <time>2014-03-02T08:13:09Z</time>
      </trkpt>
      <trkpt lat="48.06746" lon="7.22333">
        <ele>399</ele>
        <time>2014-03-02T08:13:14Z</time>
      </trkpt>
      <trkpt lat="48.06741" lon="7.22312">
        <ele>399</ele>
        <time>2014-03-02T08:13:18Z</time>
      </trkpt>
      <trkpt lat="48.06734" lon="7.22284">
        <ele>398</ele>
        <time>2014-03-02T08:13:23Z</time>
      </trkpt>
      <trkpt lat="48.06727" lon="7.22251">
        <ele>398</ele>
        <time>2014-03-02T08:13:28Z</time>
      </trkpt>
      <trkpt lat="48.06722" lon="7.22223">
        <ele>398</ele>
        <time>2014-03-02T08:13:32Z</time>
      </trkpt>
      <trkpt lat="48.06717" lon="7.22193">
        <ele>397</ele>
        <time>2014-03-02T08:13:36Z</time>
      </trkpt>
      <trkpt lat="48.06722" lon="7.22162">
        <ele>396</ele>
        <time>2014-03-02T08:13:40Z</time>
      </trkpt>
      <trkpt lat="48.06734" lon="7.22135">
        <ele>396</ele>
        <time>2014-03-02T08:13:44Z</time>
      </trkpt>
      <trkpt lat="48.06751" lon="7.22104">
        <ele>396</ele>
        <time>2014-03-02T08:13:49Z</time>
      </trkpt>
      <trkpt lat="48.06769" lon="7.22077">
        <ele>394</ele>
        <time>2014-03-02T08:13:54Z</time>
      </trkpt>
      <trkpt lat="48.06787" lon="7.22056">
        <ele>392</ele>
        <time>2014-03-02T08:13:58Z</time>
      </trkpt>
      <trkpt lat="48.06815" lon="7.22027">
        <ele>389</ele>
        <time>2014-03-02T08:14:03Z</time>
      </trkpt>
      <trkpt lat="48.06833" lon="7.2201">
        <ele>388</ele>
        <time>2014-03-02T08:14:07Z</time>
      </trkpt>
      <trkpt lat="48.06819" lon="7.21984">
        <ele>385</ele>
        <time>2014-03-02T08:14:11Z</time>
      </trkpt>
      <trkpt lat="48.06794" lon="7.21964">
        <ele>380</ele>
        <time>2014-03-02T08:14:16Z</time>
      </trkpt>
      <trkpt lat="48.06766" lon="7.21941">
        <ele>373</ele>
        <time>2014-03-02T08:14:21Z</time>
      </trkpt>
      <trkpt lat="48.06747" lon="7.21929">
        <ele>368</ele>
        <time>2014-03-02T08:14:25Z</time>
      </trkpt>
      <trkpt lat="48.0674" lon="7.2191">
        <ele>366</ele>
        <time>2014-03-02T08:14:30Z</time>
      </trkpt>
      <trkpt lat="48.06719" lon="7.21885">
        <ele>360</ele>
        <time>2014-03-02T08:14:34Z</time>
      </trkpt>
      <trkpt lat="48.067" lon="7.21859">
        <ele>350</ele>
        <time>2014-03-02T08:14:38Z</time>
      </trkpt>
      <trkpt lat="48.06686" lon="7.21821">
        <ele>354</ele>
        <time>2014-03-02T08:14:42Z</time>
      </trkpt>
      <trkpt lat="48.0667" lon="7.2181">
        <ele>358</ele>
        <time>2014-03-02T08:14:47Z</time>
      </trkpt>
      <trkpt lat="48.06651" lon="7.21809">
        <ele>353</ele>
        <time>2014-03-02T08:14:52Z</time>
      </trkpt>
      <trkpt lat="48.06633" lon="7.21812">
        <ele>357</ele>
        <time>2014-03-02T08:14:57Z</time>
      </trkpt>
      <trkpt lat="48.06623" lon="7.21813">
        <ele>350</ele>
        <time>2014-03-02T08:15:01Z</time>
      </trkpt>
      <trkpt lat="48.06611" lon="7.21811">
        <ele>357</ele>
        <time>2014-03-02T08:15:05Z</time>
      </trkpt>
      <trkpt lat="48.06601" lon="7.21809">
        <ele>358</ele>
        <time>2014-03-02T08:15:10Z</time>
      </trkpt>
      <trkpt lat="48.06591" lon="7.21807">
        <ele>361</ele>
        <time>2014-03-02T08:15:14Z</time>
      </trkpt>
      <trkpt lat="48.06576" lon="7.21804">
        <ele>358</ele>
        <time>2014-03-02T08:15:19Z</time>
      </trkpt>
      <trkpt lat="48.06565" lon="7.218">
        <ele>361</ele>
        <time>2014-03-02T08:15:23Z</time>
      </trkpt>
      <trkpt lat="48.06544" lon="7.21798">
        <ele>361</ele>
        <time>2014-03-02T08:15:28Z</time>
      </trkpt>
      <trkpt lat="48.06522" lon="7.21807">
        <ele>358</ele>
        <time>2014-03-02T08:15:32Z</time>
      </trkpt>
      <trkpt lat="48.06497" lon="7.21816">
        <ele>357</ele>
        <time>2014-03-02T08:15:36Z</time>
      </trkpt>
      <trkpt lat="48.0646" lon="7.21817">
        <ele>351</ele>
        <time>2014-03-02T08:15:41Z</time>
      </trkpt>
      <trkpt lat="48.06435" lon="7.21806">
        <ele>351</ele>
        <time>2014-03-02T08:15:45Z</time>
      </trkpt>
      <trkpt lat="48.0641" lon="7.21787">
        <ele>349</ele>
        <time>2014-03-02T08:15:50Z</time>
      </trkpt>
      <trkpt lat="48.06386" lon="7.21764">
        <ele>351</ele>
        <time>2014-03-02T08:15:55Z</time>
      </trkpt>
      <trkpt lat="48.06369" lon="7.21746">
        <ele>351</ele>
        <time>2014-03-02T08:15:59Z</time>
      </trkpt>
      <trkpt lat="48.06353" lon="7.21727">
        <ele>350</ele>
        <time>2014-03-02T08:16:03Z</time>
      </trkpt>
      <trkpt lat="48.06338" lon="7.21709">
        <ele>351</ele>
        <time>2014-03-02T08:16:07Z</time>
      </trkpt>
      <trkpt lat="48.06325" lon="7.21691">
        <ele>349</ele>
        <time>2014-03-02T08:16:12Z</time>
      </trkpt>
      <trkpt lat="48.06317" lon="7.21675">
        <ele>352</ele>
        <time>2014-03-02T08:16:17Z</time>
      </trkpt>
      <trkpt lat="48.06318" lon="7.21659">
        <ele>351</ele>
        <time>2014-03-02T08:16:21Z</time>
      </trkpt>
      <trkpt lat="48.06321" lon="7.21637">
        <ele>358</ele>
        <time>2014-03-02T08:16:26Z</time>
      </trkpt>
      <trkpt lat="48.0632" lon="7.21618">
        <ele>356</ele>
        <time>2014-03-02T08:16:30Z</time>
      </trkpt>
      <trkpt lat="48.06321" lon="7.21598">
        <ele>359</ele>
        <time>2014-03-02T08:16:34Z</time>
      </trkpt>
      <trkpt lat="48.06323" lon="7.2158">
        <ele>360</ele>
        <time>2014-03-02T08:16:38Z</time>
      </trkpt>
      <trkpt lat="48.06327" lon="7.21563">
        <ele>359</ele>
        <time>2014-03-02T08:16:42Z</time>
      </trkpt>
      <trkpt lat="48.06332" lon="7.21544">
        <ele>362</ele>
        <time>2014-03-02T08:16:47Z</time>
      </trkpt>
      <trkpt lat="48.06335" lon="7.21526">
        <ele>361</ele>
        <time>2014-03-02T08:16:51Z</time>
      </trkpt>
      <trkpt lat="48.06336" lon="7.2151">
        <ele>364</ele>
        <time>2014-03-02T08:16:55Z</time>
      </trkpt>
      <trkpt lat="48.06336" lon="7.21493">
        <ele>365</ele>
        <time>2014-03-02T08:16:59Z</time>
      </trkpt>
      <trkpt lat="48.06337" lon="7.21473">
        <ele>365</ele>
        <time>2014-03-02T08:17:04Z</time>
      </trkpt>
      <trkpt lat="48.06337" lon="7.21451">
        <ele>366</ele>
        <time>2014-03-02T08:17:09Z</time>
      </trkpt>
      <trkpt lat="48.06338" lon="7.21433">
        <ele>366</ele>
        <time>2014-03-02T08:17:13Z</time>
      </trkpt>
      <trkpt lat="48.06337" lon="7.21411">
        <ele>370</ele>
        <time>2014-03-02T08:17:18Z</time>
      </trkpt>
      <trkpt lat="48.06336" lon="7.21392">
        <ele>368</ele>
        <time>2014-03-02T08:17:22Z</time>
      </trkpt>
      <trkpt lat="48.06335" lon="7.21373">
        <ele>369</ele>
        <time>2014-03-02T08:17:26Z</time>
      </trkpt>
      <trkpt lat="48.06331" lon="7.2135">
        <ele>368</ele>
        <time>2014-03-02T08:17:31Z</time>
      </trkpt>
      <trkpt lat="48.06325" lon="7.21333">
        <ele>370</ele>
        <time>2014-03-02T08:17:35Z</time>
      </trkpt>
      <trkpt lat="48.06316" lon="7.21321">
        <ele>372</ele>
        <time>2014-03-02T08:17:39Z</time>
      </trkpt>
      <trkpt lat="48.06305" lon="7.21313">
        <ele>372</ele>
        <time>2014-03-02T08:17:44Z</time>
      </trkpt>
      <trkpt lat="48.06295" lon="7.21305">
        <ele>373</ele>
        <time>2014-03-02T08:17:49Z</time>
      </trkpt>
      <trkpt lat="48.06288" lon="7.21297">
        <ele>373</ele>
        <time>2014-03-02T08:17:53Z</time>
      </trkpt>
      <trkpt lat="48.06284" lon="7.21287">
        <ele>375</ele>
        <time>2014-03-02T08:17:57Z</time>
      </trkpt>
      <trkpt lat="48.06282" lon="7.21275">
        <ele>375</ele>
        <time>2014-03-02T08:18:02Z</time>
      </trkpt>
      <trkpt lat="48.06283" lon="7.21264">
        <ele>378</ele>
        <time>2014-03-02T08:18:07Z</time>
      </trkpt>
      <trkpt lat="48.06283" lon="7.21251">
        <ele>379</ele>
        <time>2014-03-02T08:18:13Z</time>
      </trkpt>
      <trkpt lat="48.06283" lon="7.21237">
        <ele>381</ele>
        <time>2014-03-02T08:18:19Z</time>
      </trkpt>
      <trkpt lat="48.06283" lon="7.21227">
        <ele>380</ele>
        <time>2014-03-02T08:18:23Z</time>
      </trkpt>
      <trkpt lat="48.06283" lon="7.21214">
        <ele>382</ele>
        <time>2014-03-02T08:18:27Z</time>
      </trkpt>
      <trkpt lat="48.06282" lon="7.21197">
        <ele>381</ele>
        <time>2014-03-02T08:18:32Z</time>
      </trkpt>
      <trkpt lat="48.06282" lon="7.2118">
        <ele>383</ele>
        <time>2014-03-02T08:18:37Z</time>
      </trkpt>
      <trkpt lat="48.06282" lon="7.21165">
        <ele>382</ele>
        <time>2014-03-02T08:18:41Z</time>
      </trkpt>
      <trkpt lat="48.06281" lon="7.21151">
        <ele>385</ele>
        <time>2014-03-02T08:18:45Z</time>
      </trkpt>
      <trkpt lat="48.06279" lon="7.21134">
        <ele>382</ele>
        <time>2014-03-02T08:18:50Z</time>
      </trkpt>
      <trkpt lat="48.06278" lon="7.2112">
        <ele>385</ele>
        <time>2014-03-02T08:18:54Z</time>
      </trkpt>
      <trkpt lat="48.06277" lon="7.21101">
        <ele>387</ele>
        <time>2014-03-02T08:18:59Z</time>
      </trkpt>
      <trkpt lat="48.06277" lon="7.21086">
        <ele>385</ele>
        <time>2014-03-02T08:19:03Z</time>
      </trkpt>
      <trkpt lat="48.06277" lon="7.21071">
        <ele>386</ele>
        <time>2014-03-02T08:19:07Z</time>
      </trkpt>
      <trkpt lat="48.06278" lon="7.21056">
        <ele>384</ele>
        <time>2014-03-02T08:19:11Z</time>
      </trkpt>
      <trkpt lat="48.0628" lon="7.21041">
        <ele>385</ele>
        <time>2014-03-02T08:19:15Z</time>
      </trkpt>
      <trkpt lat="48.06281" lon="7.21026">
        <ele>387</ele>
        <time>2014-03-02T08:19:19Z</time>
      </trkpt>
      <trkpt lat="48.06283" lon="7.2101">
        <ele>385</ele>
        <time>2014-03-02T08:19:22Z</time>
      </trkpt>
      <trkpt lat="48.06286" lon="7.20994">
        <ele>387</ele>
        <time>2014-03-02T08:19:27Z</time>
      </trkpt>
      <trkpt lat="48.0629" lon="7.20974">
        <ele>386</ele>
        <time>2014-03-02T08:19:32Z</time>
      </trkpt>
      <trkpt lat="48.06294" lon="7.20957">
        <ele>389</ele>
        <time>2014-03-02T08:19:36Z</time>
      </trkpt>
      <trkpt lat="48.06298" lon="7.20941">
        <ele>386</ele>
        <time>2014-03-02T08:19:40Z</time>
      </trkpt>
      <trkpt lat="48.06301" lon="7.20926">
        <ele>391</ele>
        <time>2014-03-02T08:19:45Z</time>
      </trkpt>
      <trkpt lat="48.06304" lon="7.20913">
        <ele>388</ele>
        <time>2014-03-02T08:19:50Z</time>
      </trkpt>
      <trkpt lat="48.06305" lon="7.20899">
        <ele>396</ele>
        <time>2014-03-02T08:19:55Z</time>
      </trkpt>
      <trkpt lat="48.06307" lon="7.20888">
        <ele>398</ele>
        <time>2014-03-02T08:19:59Z</time>
      </trkpt>
      <trkpt lat="48.0631" lon="7.20873">
        <ele>392</ele>
        <time>2014-03-02T08:20:03Z</time>
      </trkpt>
      <trkpt lat="48.06309" lon="7.20856">
        <ele>398</ele>
        <time>2014-03-02T08:20:08Z</time>
      </trkpt>
      <trkpt lat="48.06308" lon="7.20842">
        <ele>392</ele>
        <time>2014-03-02T08:20:12Z</time>
      </trkpt>
      <trkpt lat="48.06306" lon="7.20829">
        <ele>398</ele>
        <time>2014-03-02T08:20:16Z</time>
      </trkpt>
      <trkpt lat="48.06307" lon="7.20813">
        <ele>388</ele>
        <time>2014-03-02T08:20:20Z</time>
      </trkpt>
      <trkpt lat="48.06307" lon="7.20794">
        <ele>396</ele>
        <time>2014-03-02T08:20:25Z</time>
      </trkpt>
      <trkpt lat="48.06307" lon="7.20774">
        <ele>386</ele>
        <time>2014-03-02T08:20:30Z</time>
      </trkpt>
      <trkpt lat="48.06307" lon="7.20759">
        <ele>397</ele>
        <time>2014-03-02T08:20:34Z</time>
      </trkpt>
      <trkpt lat="48.063" lon="7.20748">
        <ele>396</ele>
        <time>2014-03-02T08:20:38Z</time>
      </trkpt>
      <trkpt lat="48.0629" lon="7.20724">
        <ele>389</ele>
        <time>2014-03-02T08:20:43Z</time>
      </trkpt>
      <trkpt lat="48.06282" lon="7.20726">
        <ele>394</ele>
        <time>2014-03-02T08:20:49Z</time>
      </trkpt>
      <trkpt lat="48.06273" lon="7.20729">
        <ele>390</ele>
        <time>2014-03-02T08:21:05Z</time>
      </trkpt>
      <trkpt lat="48.06267" lon="7.20739">
        <ele>393</ele>
        <time>2014-03-02T08:21:09Z</time>
      </trkpt>
      <trkpt lat="48.06253" lon="7.2076">
        <ele>387</ele>
        <time>2014-03-02T08:21:13Z</time>
      </trkpt>
      <trkpt lat="48.0623" lon="7.20786">
        <ele>388</ele>
        <time>2014-03-02T08:21:18Z</time>
      </trkpt>
      <trkpt lat="48.06206" lon="7.20806">
        <ele>380</ele>
        <time>2014-03-02T08:21:22Z</time>
      </trkpt>
      <trkpt lat="48.06178" lon="7.20824">
        <ele>379</ele>
        <time>2014-03-02T08:21:26Z</time>
      </trkpt>
      <trkpt lat="48.0615" lon="7.20811">
        <ele>368</ele>
        <time>2014-03-02T08:21:30Z</time>
      </trkpt>
      <trkpt lat="48.06125" lon="7.2078">
        <ele>372</ele>
        <time>2014-03-02T08:21:35Z</time>
      </trkpt>
      <trkpt lat="48.06107" lon="7.20815">
        <ele>373</ele>
        <time>2014-03-02T08:21:39Z</time>
      </trkpt>
      <trkpt lat="48.06098" lon="7.20865">
        <ele>359</ele>
        <time>2014-03-02T08:21:43Z</time>
      </trkpt>
      <trkpt lat="48.06088" lon="7.20918">
        <ele>361</ele>
        <time>2014-03-02T08:21:47Z</time>
      </trkpt>
      <trkpt lat="48.0607" lon="7.20984">
        <ele>347</ele>
        <time>2014-03-02T08:21:52Z</time>
      </trkpt>
      <trkpt lat="48.06058" lon="7.21042">
        <ele>351</ele>
        <time>2014-03-02T08:21:57Z</time>
      </trkpt>
      <trkpt lat="48.06039" lon="7.21088">
        <ele>333</ele>
        <time>2014-03-02T08:22:01Z</time>
      </trkpt>
      <trkpt lat="48.06022" lon="7.21107">
        <ele>342</ele>
        <time>2014-03-02T08:22:05Z</time>
      </trkpt>
      <trkpt lat="48.06005" lon="7.21123">
        <ele>344</ele>
        <time>2014-03-02T08:22:09Z</time>
      </trkpt>
      <trkpt lat="48.05988" lon="7.21149">
        <ele>334</ele>
        <time>2014-03-02T08:22:13Z</time>
      </trkpt>
      <trkpt lat="48.0597" lon="7.2116">
        <ele>338</ele>
        <time>2014-03-02T08:22:17Z</time>
      </trkpt>
      <trkpt lat="48.05955" lon="7.21173">
        <ele>328</ele>
        <time>2014-03-02T08:22:21Z</time>
      </trkpt>
      <trkpt lat="48.05929" lon="7.2119">
        <ele>336</ele>
        <time>2014-03-02T08:22:25Z</time>
      </trkpt>
      <trkpt lat="48.05908" lon="7.2121">
        <ele>328</ele>
        <time>2014-03-02T08:22:30Z</time>
      </trkpt>
      <trkpt lat="48.0589" lon="7.21217">
        <ele>335</ele>
        <time>2014-03-02T08:22:34Z</time>
      </trkpt>
      <trkpt lat="48.05871" lon="7.21221">
        <ele>336</ele>
        <time>2014-03-02T08:22:38Z</time>
      </trkpt>
      <trkpt lat="48.05848" lon="7.21213">
        <ele>324</ele>
        <time>2014-03-02T08:22:42Z</time>
      </trkpt>
      <trkpt lat="48.05817" lon="7.21195">
        <ele>322</ele>
        <time>2014-03-02T08:22:47Z</time>
      </trkpt>
      <trkpt lat="48.05788" lon="7.2117">
        <ele>319</ele>
        <time>2014-03-02T08:22:52Z</time>
      </trkpt>
      <trkpt lat="48.05767" lon="7.21141">
        <ele>321</ele>
        <time>2014-03-02T08:22:56Z</time>
      </trkpt>
      <trkpt lat="48.05747" lon="7.21115">
        <ele>316</ele>
        <time>2014-03-02T08:23:00Z</time>
      </trkpt>
      <trkpt lat="48.0573" lon="7.2109">
        <ele>319</ele>
        <time>2014-03-02T08:23:04Z</time>
      </trkpt>
      <trkpt lat="48.05712" lon="7.21066">
        <ele>319</ele>
        <time>2014-03-02T08:23:08Z</time>
      </trkpt>
      <trkpt lat="48.05695" lon="7.21045">
        <ele>317</ele>
        <time>2014-03-02T08:23:12Z</time>
      </trkpt>
      <trkpt lat="48.05676" lon="7.21019">
        <ele>318</ele>
        <time>2014-03-02T08:23:17Z</time>
      </trkpt>
      <trkpt lat="48.05657" lon="7.20995">
        <ele>315</ele>
        <time>2014-03-02T08:23:22Z</time>
      </trkpt>
      <trkpt lat="48.05642" lon="7.20976">
        <ele>315</ele>
        <time>2014-03-02T08:23:26Z</time>
      </trkpt>
      <trkpt lat="48.05623" lon="7.20955">
        <ele>314</ele>
        <time>2014-03-02T08:23:31Z</time>
      </trkpt>
      <trkpt lat="48.0561" lon="7.20938">
        <ele>315</ele>
        <time>2014-03-02T08:23:35Z</time>
      </trkpt>
      <trkpt lat="48.05598" lon="7.20919">
        <ele>314</ele>
        <time>2014-03-02T08:23:39Z</time>
      </trkpt>
      <trkpt lat="48.05585" lon="7.20892">
        <ele>315</ele>
        <time>2014-03-02T08:23:44Z</time>
      </trkpt>
      <trkpt lat="48.05575" lon="7.20872">
        <ele>315</ele>
        <time>2014-03-02T08:23:48Z</time>
      </trkpt>
      <trkpt lat="48.05563" lon="7.20842">
        <ele>316</ele>
        <time>2014-03-02T08:23:53Z</time>
      </trkpt>
      <trkpt lat="48.0555" lon="7.20813">
        <ele>318</ele>
        <time>2014-03-02T08:23:58Z</time>
      </trkpt>
      <trkpt lat="48.05538" lon="7.2079">
        <ele>316</ele>
        <time>2014-03-02T08:24:02Z</time>
      </trkpt>
      <trkpt lat="48.05527" lon="7.20766">
        <ele>317</ele>
        <time>2014-03-02T08:24:06Z</time>
      </trkpt>
      <trkpt lat="48.05517" lon="7.20736">
        <ele>317</ele>
        <time>2014-03-02T08:24:10Z</time>
      </trkpt>
      <trkpt lat="48.0551" lon="7.20711">
        <ele>317</ele>
        <time>2014-03-02T08:24:15Z</time>
      </trkpt>
      <trkpt lat="48.05503" lon="7.2068">
        <ele>317</ele>
        <time>2014-03-02T08:24:20Z</time>
      </trkpt>
      <trkpt lat="48.05494" lon="7.20654">
        <ele>319</ele>
        <time>2014-03-02T08:24:24Z</time>
      </trkpt>
      <trkpt lat="48.05483" lon="7.20623">
        <ele>319</ele>
        <time>2014-03-02T08:24:29Z</time>
      </trkpt>
      <trkpt lat="48.05471" lon="7.20601">
        <ele>317</ele>
        <time>2014-03-02T08:24:33Z</time>
      </trkpt>
      <trkpt lat="48.05461" lon="7.20578">
        <ele>319</ele>
        <time>2014-03-02T08:24:37Z</time>
      </trkpt>
      <trkpt lat="48.05449" lon="7.20549">
        <ele>318</ele>
        <time>2014-03-02T08:24:42Z</time>
      </trkpt>
      <trkpt lat="48.05439" lon="7.20526">
        <ele>320</ele>
        <time>2014-03-02T08:24:46Z</time>
      </trkpt>
      <trkpt lat="48.05415" lon="7.20504">
        <ele>315</ele>
        <time>2014-03-02T08:24:51Z</time>
      </trkpt>
      <trkpt lat="48.05398" lon="7.20483">
        <ele>316</ele>
        <time>2014-03-02T08:24:55Z</time>
      </trkpt>
      <trkpt lat="48.05385" lon="7.20448">
        <ele>314</ele>
        <time>2014-03-02T08:24:59Z</time>
      </trkpt>
      <trkpt lat="48.05378" lon="7.20424">
        <ele>315</ele>
        <time>2014-03-02T08:25:04Z</time>
      </trkpt>
      <trkpt lat="48.05359" lon="7.20408">
        <ele>312</ele>
        <time>2014-03-02T08:25:09Z</time>
      </trkpt>
      <trkpt lat="48.05337" lon="7.20406">
        <ele>306</ele>
        <time>2014-03-02T08:25:13Z</time>
      </trkpt>
      <trkpt lat="48.05327" lon="7.20376">
        <ele>306</ele>
        <time>2014-03-02T08:25:18Z</time>
      </trkpt>
      <trkpt lat="48.05319" lon="7.20345">
        <ele>304</ele>
        <time>2014-03-02T08:25:23Z</time>
      </trkpt>
      <trkpt lat="48.05312" lon="7.20322">
        <ele>308</ele>
        <time>2014-03-02T08:25:27Z</time>
      </trkpt>
      <trkpt lat="48.05295" lon="7.20317">
        <ele>300</ele>
        <time>2014-03-02T08:25:31Z</time>
      </trkpt>
      <trkpt lat="48.05275" lon="7.20325">
        <ele>307</ele>
        <time>2014-03-02T08:25:36Z</time>
      </trkpt>
      <trkpt lat="48.05256" lon="7.20329">
        <ele>302</ele>
        <time>2014-03-02T08:25:40Z</time>
      </trkpt>
      <trkpt lat="48.05245" lon="7.20333">
        <ele>302</ele>
        <time>2014-03-02T08:25:44Z</time>
      </trkpt>
      <trkpt lat="48.05241" lon="7.20308">
        <ele>306</ele>
        <time>2014-03-02T08:25:48Z</time>
      </trkpt>
      <trkpt lat="48.05239" lon="7.20283">
        <ele>304</ele>
        <time>2014-03-02T08:25:52Z</time>
      </trkpt>
      <trkpt lat="48.05238" lon="7.20256">
        <ele>318</ele>
        <time>2014-03-02T08:25:56Z</time>
      </trkpt>
      <trkpt lat="48.05243" lon="7.20237">
        <ele>320</ele>
        <time>2014-03-02T08:26:00Z</time>
      </trkpt>
      <trkpt lat="48.05242" lon="7.20226">
        <ele>328</ele>
        <time>2014-03-02T08:26:06Z</time>
      </trkpt>
      <trkpt lat="48.05236" lon="7.20188">
        <ele>329</ele>
        <time>2014-03-02T08:26:15Z</time>
      </trkpt>
      <trkpt lat="48.05232" lon="7.20178">
        <ele>327</ele>
        <time>2014-03-02T08:26:27Z</time>
      </trkpt>
      <trkpt lat="48.05212" lon="7.20185">
        <ele>321</ele>
        <time>2014-03-02T08:26:32Z</time>
      </trkpt>
      <trkpt lat="48.05205" lon="7.20178">
        <ele>324</ele>
        <time>2014-03-02T08:26:38Z</time>
      </trkpt>
      <trkpt lat="48.05203" lon="7.20157">
        <ele>321</ele>
        <time>2014-03-02T08:26:42Z</time>
      </trkpt>
      <trkpt lat="48.05199" lon="7.20129">
        <ele>323</ele>
        <time>2014-03-02T08:26:47Z</time>
      </trkpt>
      <trkpt lat="48.05194" lon="7.20106">
        <ele>324</ele>
        <time>2014-03-02T08:26:51Z</time>
      </trkpt>
      <trkpt lat="48.05189" lon="7.20069">
        <ele>328</ele>
        <time>2014-03-02T08:26:56Z</time>
      </trkpt>
      <trkpt lat="48.05184" lon="7.2004">
        <ele>324</ele>
        <time>2014-03-02T08:27:00Z</time>
      </trkpt>
      <trkpt lat="48.05178" lon="7.20001">
        <ele>325</ele>
        <time>2014-03-02T08:27:05Z</time>
      </trkpt>
      <trkpt lat="48.05171" lon="7.19972">
        <ele>326</ele>
        <time>2014-03-02T08:27:09Z</time>
      </trkpt>
      <trkpt lat="48.05164" lon="7.19933">
        <ele>327</ele>
        <time>2014-03-02T08:27:14Z</time>
      </trkpt>
      <trkpt lat="48.05157" lon="7.19902">
        <ele>327</ele>
        <time>2014-03-02T08:27:18Z</time>
      </trkpt>
      <trkpt lat="48.05148" lon="7.19873">
        <ele>327</ele>
        <time>2014-03-02T08:27:22Z</time>
      </trkpt>
      <trkpt lat="48.05138" lon="7.19835">
        <ele>326</ele>
        <time>2014-03-02T08:27:27Z</time>
      </trkpt>
      <trkpt lat="48.05126" lon="7.19792">
        <ele>324</ele>
        <time>2014-03-02T08:27:32Z</time>
      </trkpt>
      <trkpt lat="48.05115" lon="7.19762">
        <ele>328</ele>
        <time>2014-03-02T08:27:36Z</time>
      </trkpt>
      <trkpt lat="48.05104" lon="7.19732">
        <ele>327</ele>
        <time>2014-03-02T08:27:40Z</time>
      </trkpt>
      <trkpt lat="48.051" lon="7.19691">
        <ele>328</ele>
        <time>2014-03-02T08:27:45Z</time>
      </trkpt>
      <trkpt lat="48.05095" lon="7.19667">
        <ele>329</ele>
        <time>2014-03-02T08:27:49Z</time>
      </trkpt>
      <trkpt lat="48.05089" lon="7.1964">
        <ele>330</ele>
        <time>2014-03-02T08:27:54Z</time>
      </trkpt>
      <trkpt lat="48.05083" lon="7.19609">
        <ele>330</ele>
        <time>2014-03-02T08:27:59Z</time>
      </trkpt>
      <trkpt lat="48.05076" lon="7.19583">
        <ele>330</ele>
        <time>2014-03-02T08:28:03Z</time>
      </trkpt>
      <trkpt lat="48.05069" lon="7.19561">
        <ele>329</ele>
        <time>2014-03-02T08:28:07Z</time>
      </trkpt>
      <trkpt lat="48.05063" lon="7.19534">
        <ele>326</ele>
        <time>2014-03-02T08:28:12Z</time>
      </trkpt>
      <trkpt lat="48.05057" lon="7.19512">
        <ele>326</ele>
        <time>2014-03-02T08:28:16Z</time>
      </trkpt>
      <trkpt lat="48.05051" lon="7.19489">
        <ele>324</ele>
        <time>2014-03-02T08:28:20Z</time>
      </trkpt>
      <trkpt lat="48.05043" lon="7.19462">
        <ele>328</ele>
        <time>2014-03-02T08:28:25Z</time>
      </trkpt>
      <trkpt lat="48.05036" lon="7.19433">
        <ele>327</ele>
        <time>2014-03-02T08:28:30Z</time>
      </trkpt>
      <trkpt lat="48.05031" lon="7.19412">
        <ele>330</ele>
        <time>2014-03-02T08:28:34Z</time>
      </trkpt>
      <trkpt lat="48.05025" lon="7.19385">
        <ele>331</ele>
        <time>2014-03-02T08:28:39Z</time>
      </trkpt>
      <trkpt lat="48.0502" lon="7.19365">
        <ele>331</ele>
        <time>2014-03-02T08:28:43Z</time>
      </trkpt>
      <trkpt lat="48.05015" lon="7.19345">
        <ele>333</ele>
        <time>2014-03-02T08:28:47Z</time>
      </trkpt>
      <trkpt lat="48.05009" lon="7.1932">
        <ele>332</ele>
        <time>2014-03-02T08:28:52Z</time>
      </trkpt>
      <trkpt lat="48.05003" lon="7.19299">
        <ele>331</ele>
        <time>2014-03-02T08:28:56Z</time>
      </trkpt>
      <trkpt lat="48.04992" lon="7.19264">
        <ele>329</ele>
        <time>2014-03-02T08:29:01Z</time>
      </trkpt>
      <trkpt lat="48.0498" lon="7.19239">
        <ele>328</ele>
        <time>2014-03-02T08:29:05Z</time>
      </trkpt>
      <trkpt lat="48.04971" lon="7.19223">
        <ele>324</ele>
        <time>2014-03-02T08:29:10Z</time>
      </trkpt>
      <trkpt lat="48.04967" lon="7.19213">
        <ele>322</ele>
        <time>2014-03-02T08:29:42Z</time>
      </trkpt>
      <trkpt lat="48.04964" lon="7.19201">
        <ele>324</ele>
        <time>2014-03-02T08:29:47Z</time>
      </trkpt>
      <trkpt lat="48.04961" lon="7.19187">
        <ele>324</ele>
        <time>2014-03-02T08:29:51Z</time>
      </trkpt>
      <trkpt lat="48.04959" lon="7.19171">
        <ele>326</ele>
        <time>2014-03-02T08:29:55Z</time>
      </trkpt>
      <trkpt lat="48.04956" lon="7.19154">
        <ele>327</ele>
        <time>2014-03-02T08:29:59Z</time>
      </trkpt>
      <trkpt lat="48.04953" lon="7.19138">
        <ele>326</ele>
        <time>2014-03-02T08:30:03Z</time>
      </trkpt>
      <trkpt lat="48.04947" lon="7.19122">
        <ele>328</ele>
        <time>2014-03-02T08:30:08Z</time>
      </trkpt>
      <trkpt lat="48.04939" lon="7.19118">
        <ele>321</ele>
        <time>2014-03-02T08:30:23Z</time>
      </trkpt>
      <trkpt lat="48.04934" lon="7.19108">
        <ele>321</ele>
        <time>2014-03-02T08:30:42Z</time>
      </trkpt>
      <trkpt lat="48.04931" lon="7.19095">
        <ele>323</ele>
        <time>2014-03-02T08:30:46Z</time>
      </trkpt>
      <trkpt lat="48.04927" lon="7.19071">
        <ele>322</ele>
        <time>2014-03-02T08:30:51Z</time>
      </trkpt>
      <trkpt lat="48.04922" lon="7.19049">
        <ele>323</ele>
        <time>2014-03-02T08:30:56Z</time>
      </trkpt>
      <trkpt lat="48.04922" lon="7.19031">
        <ele>322</ele>
        <time>2014-03-02T08:31:00Z</time>
      </trkpt>
      <trkpt lat="48.04919" lon="7.19011">
        <ele>325</ele>
        <time>2014-03-02T08:31:05Z</time>
      </trkpt>
      <trkpt lat="48.04914" lon="7.18993">
        <ele>326</ele>
        <time>2014-03-02T08:31:09Z</time>
      </trkpt>
      <trkpt lat="48.04909" lon="7.1897">
        <ele>327</ele>
        <time>2014-03-02T08:31:14Z</time>
      </trkpt>
      <trkpt lat="48.04902" lon="7.18947">
        <ele>327</ele>
        <time>2014-03-02T08:31:19Z</time>
      </trkpt>
      <trkpt lat="48.04895" lon="7.18925">
        <ele>326</ele>
        <time>2014-03-02T08:31:24Z</time>
      </trkpt>
      <trkpt lat="48.04888" lon="7.18909">
        <ele>325</ele>
        <time>2014-03-02T08:31:28Z</time>
      </trkpt>
      <trkpt lat="48.04883" lon="7.18893">
        <ele>325</ele>
        <time>2014-03-02T08:31:32Z</time>
      </trkpt>
      <trkpt lat="48.04876" lon="7.18872">
        <ele>326</ele>
        <time>2014-03-02T08:31:37Z</time>
      </trkpt>
      <trkpt lat="48.04879" lon="7.1886">
        <ele>327</ele>
        <time>2014-03-02T08:31:42Z</time>
      </trkpt>
      <trkpt lat="48.04893" lon="7.1885">
        <ele>327</ele>
        <time>2014-03-02T08:31:47Z</time>
      </trkpt>
      <trkpt lat="48.04899" lon="7.18831">
        <ele>329</ele>
        <time>2014-03-02T08:31:52Z</time>
      </trkpt>
      <trkpt lat="48.04893" lon="7.18816">
        <ele>331</ele>
        <time>2014-03-02T08:31:56Z</time>
      </trkpt>
      <trkpt lat="48.04887" lon="7.18799">
        <ele>329</ele>
        <time>2014-03-02T08:32:00Z</time>
      </trkpt>
      <trkpt lat="48.0488" lon="7.18776">
        <ele>334</ele>
        <time>2014-03-02T08:32:05Z</time>
      </trkpt>
      <trkpt lat="48.04874" lon="7.18755">
        <ele>332</ele>
        <time>2014-03-02T08:32:10Z</time>
      </trkpt>
      <trkpt lat="48.04868" lon="7.18738">
        <ele>332</ele>
        <time>2014-03-02T08:32:14Z</time>
      </trkpt>
      <trkpt lat="48.04863" lon="7.18722">
        <ele>333</ele>
        <time>2014-03-02T08:32:18Z</time>
      </trkpt>
      <trkpt lat="48.04861" lon="7.18707">
        <ele>336</ele>
        <time>2014-03-02T08:32:22Z</time>
      </trkpt>
      <trkpt lat="48.04859" lon="7.18686">
        <ele>336</ele>
        <time>2014-03-02T08:32:27Z</time>
      </trkpt>
      <trkpt lat="48.04858" lon="7.18668">
        <ele>334</ele>
        <time>2014-03-02T08:32:31Z</time>
      </trkpt>
      <trkpt lat="48.04856" lon="7.1865">
        <ele>336</ele>
        <time>2014-03-02T08:32:35Z</time>
      </trkpt>
      <trkpt lat="48.04853" lon="7.18633">
        <ele>336</ele>
        <time>2014-03-02T08:32:39Z</time>
      </trkpt>
      <trkpt lat="48.04849" lon="7.18611">
        <ele>336</ele>
        <time>2014-03-02T08:32:44Z</time>
      </trkpt>
      <trkpt lat="48.04846" lon="7.1859">
        <ele>338</ele>
        <time>2014-03-02T08:32:49Z</time>
      </trkpt>
      <trkpt lat="48.04846" lon="7.18575">
        <ele>335</ele>
        <time>2014-03-02T08:32:53Z</time>
      </trkpt>
      <trkpt lat="48.04842" lon="7.18555">
        <ele>341</ele>
        <time>2014-03-02T08:32:58Z</time>
      </trkpt>
      <trkpt lat="48.04839" lon="7.18536">
        <ele>334</ele>
        <time>2014-03-02T08:33:02Z</time>
      </trkpt>
      <trkpt lat="48.04821" lon="7.18533">
        <ele>334</ele>
        <time>2014-03-02T08:33:07Z</time>
      </trkpt>
      <trkpt lat="48.04812" lon="7.18519">
        <ele>332</ele>
        <time>2014-03-02T08:33:12Z</time>
      </trkpt>
      <trkpt lat="48.04807" lon="7.18493">
        <ele>334</ele>
        <time>2014-03-02T08:33:17Z</time>
      </trkpt>
      <trkpt lat="48.04802" lon="7.18473">
        <ele>332</ele>
        <time>2014-03-02T08:33:21Z</time>
      </trkpt>
      <trkpt lat="48.04794" lon="7.18444">
        <ele>333</ele>
        <time>2014-03-02T08:33:26Z</time>
      </trkpt>
      <trkpt lat="48.04787" lon="7.18418">
        <ele>331</ele>
        <time>2014-03-02T08:33:30Z</time>
      </trkpt>
      <trkpt lat="48.04779" lon="7.18394">
        <ele>332</ele>
        <time>2014-03-02T08:33:34Z</time>
      </trkpt>
      <trkpt lat="48.04777" lon="7.18372">
        <ele>334</ele>
        <time>2014-03-02T08:33:38Z</time>
      </trkpt>
      <trkpt lat="48.0478" lon="7.18342">
        <ele>332</ele>
        <time>2014-03-02T08:33:43Z</time>
      </trkpt>
      <trkpt lat="48.04774" lon="7.18313">
        <ele>335</ele>
        <time>2014-03-02T08:33:48Z</time>
      </trkpt>
      <trkpt lat="48.04767" lon="7.1829">
        <ele>334</ele>
        <time>2014-03-02T08:33:52Z</time>
      </trkpt>
      <trkpt lat="48.04759" lon="7.18261">
        <ele>335</ele>
        <time>2014-03-02T08:33:57Z</time>
      </trkpt>
      <trkpt lat="48.04752" lon="7.18239">
        <ele>336</ele>
        <time>2014-03-02T08:34:01Z</time>
      </trkpt>
      <trkpt lat="48.04746" lon="7.18217">
        <ele>337</ele>
        <time>2014-03-02T08:34:05Z</time>
      </trkpt>
      <trkpt lat="48.04738" lon="7.1819">
        <ele>338</ele>
        <time>2014-03-02T08:34:10Z</time>
      </trkpt>
      <trkpt lat="48.04732" lon="7.18169">
        <ele>338</ele>
        <time>2014-03-02T08:34:14Z</time>
      </trkpt>
      <trkpt lat="48.04726" lon="7.18148">
        <ele>337</ele>
        <time>2014-03-02T08:34:18Z</time>
      </trkpt>
      <trkpt lat="48.04718" lon="7.18129">
        <ele>336</ele>
        <time>2014-03-02T08:34:22Z</time>
      </trkpt>
      <trkpt lat="48.04709" lon="7.18111">
        <ele>338</ele>
        <time>2014-03-02T08:34:26Z</time>
      </trkpt>
      <trkpt lat="48.04701" lon="7.18088">
        <ele>339</ele>
        <time>2014-03-02T08:34:31Z</time>
      </trkpt>
      <trkpt lat="48.04693" lon="7.18067">
        <ele>338</ele>
        <time>2014-03-02T08:34:36Z</time>
      </trkpt>
      <trkpt lat="48.04688" lon="7.18049">
        <ele>340</ele>
        <time>2014-03-02T08:34:40Z</time>
      </trkpt>
      <trkpt lat="48.0468" lon="7.18029">
        <ele>338</ele>
        <time>2014-03-02T08:34:45Z</time>
      </trkpt>
      <trkpt lat="48.04676" lon="7.18011">
        <ele>338</ele>
        <time>2014-03-02T08:34:49Z</time>
      </trkpt>
      <trkpt lat="48.04671" lon="7.17993">
        <ele>338</ele>
        <time>2014-03-02T08:34:53Z</time>
      </trkpt>
      <trkpt lat="48.04669" lon="7.1797">
        <ele>340</ele>
        <time>2014-03-02T08:34:58Z</time>
      </trkpt>
      <trkpt lat="48.04669" lon="7.17955">
        <ele>340</ele>
        <time>2014-03-02T08:35:02Z</time>
      </trkpt>
      <trkpt lat="48.0466" lon="7.17948">
        <ele>339</ele>
        <time>2014-03-02T08:35:06Z</time>
      </trkpt>
      <trkpt lat="48.04644" lon="7.17956">
        <ele>338</ele>
        <time>2014-03-02T08:35:11Z</time>
      </trkpt>
      <trkpt lat="48.04636" lon="7.1796">
        <ele>334</ele>
        <time>2014-03-02T08:35:15Z</time>
      </trkpt>
      <trkpt lat="48.04623" lon="7.17976">
        <ele>334</ele>
        <time>2014-03-02T08:35:19Z</time>
      </trkpt>
      <trkpt lat="48.04599" lon="7.17997">
        <ele>331</ele>
        <time>2014-03-02T08:35:24Z</time>
      </trkpt>
      <trkpt lat="48.04573" lon="7.18011">
        <ele>331</ele>
        <time>2014-03-02T08:35:29Z</time>
      </trkpt>
      <trkpt lat="48.0455" lon="7.18025">
        <ele>328</ele>
        <time>2014-03-02T08:35:33Z</time>
      </trkpt>
      <trkpt lat="48.04525" lon="7.18037">
        <ele>331</ele>
        <time>2014-03-02T08:35:38Z</time>
      </trkpt>
      <trkpt lat="48.04523" lon="7.1801">
        <ele>330</ele>
        <time>2014-03-02T08:35:43Z</time>
      </trkpt>
      <trkpt lat="48.04514" lon="7.17996">
        <ele>333</ele>
        <time>2014-03-02T08:35:47Z</time>
      </trkpt>
      <trkpt lat="48.04501" lon="7.17998">
        <ele>331</ele>
        <time>2014-03-02T08:35:51Z</time>
      </trkpt>
      <trkpt lat="48.04485" lon="7.18004">
        <ele>334</ele>
        <time>2014-03-02T08:35:55Z</time>
      </trkpt>
      <trkpt lat="48.04475" lon="7.17988">
        <ele>334</ele>
        <time>2014-03-02T08:35:59Z</time>
      </trkpt>
      <trkpt lat="48.04478" lon="7.17949">
        <ele>331</ele>
        <time>2014-03-02T08:36:04Z</time>
      </trkpt>
      <trkpt lat="48.04479" lon="7.17912">
        <ele>335</ele>
        <time>2014-03-02T08:36:09Z</time>
      </trkpt>
      <trkpt lat="48.04479" lon="7.17884">
        <ele>332</ele>
        <time>2014-03-02T08:36:13Z</time>
      </trkpt>
      <trkpt lat="48.04475" lon="7.1785">
        <ele>335</ele>
        <time>2014-03-02T08:36:18Z</time>
      </trkpt>
      <trkpt lat="48.04472" lon="7.17824">
        <ele>334</ele>
        <time>2014-03-02T08:36:22Z</time>
      </trkpt>
      <trkpt lat="48.04467" lon="7.1779">
        <ele>334</ele>
        <time>2014-03-02T08:36:27Z</time>
      </trkpt>
      <trkpt lat="48.04462" lon="7.17762">
        <ele>331</ele>
        <time>2014-03-02T08:36:31Z</time>
      </trkpt>
      <trkpt lat="48.04457" lon="7.17735">
        <ele>335</ele>
        <time>2014-03-02T08:36:35Z</time>
      </trkpt>
      <trkpt lat="48.04453" lon="7.177">
        <ele>331</ele>
        <time>2014-03-02T08:36:40Z</time>
      </trkpt>
      <trkpt lat="48.04453" lon="7.17663">
        <ele>335</ele>
        <time>2014-03-02T08:36:45Z</time>
      </trkpt>
      <trkpt lat="48.04453" lon="7.17636">
        <ele>337</ele>
        <time>2014-03-02T08:36:49Z</time>
      </trkpt>
      <trkpt lat="48.04453" lon="7.17604">
        <ele>335</ele>
        <time>2014-03-02T08:36:53Z</time>
      </trkpt>
      <trkpt lat="48.04455" lon="7.17572">
        <ele>338</ele>
        <time>2014-03-02T08:36:58Z</time>
      </trkpt>
      <trkpt lat="48.04459" lon="7.17546">
        <ele>336</ele>
        <time>2014-03-02T08:37:02Z</time>
      </trkpt>
      <trkpt lat="48.04462" lon="7.17527">
        <ele>340</ele>
        <time>2014-03-02T08:37:07Z</time>
      </trkpt>
      <trkpt lat="48.04454" lon="7.17518">
        <ele>338</ele>
        <time>2014-03-02T08:37:11Z</time>
      </trkpt>
      <trkpt lat="48.04437" lon="7.17512">
        <ele>339</ele>
        <time>2014-03-02T08:37:16Z</time>
      </trkpt>
      <trkpt lat="48.0442" lon="7.17504">
        <ele>336</ele>
        <time>2014-03-02T08:37:20Z</time>
      </trkpt>
      <trkpt lat="48.04399" lon="7.17498">
        <ele>339</ele>
        <time>2014-03-02T08:37:25Z</time>
      </trkpt>
      <trkpt lat="48.04397" lon="7.17476">
        <ele>338</ele>
        <time>2014-03-02T08:37:29Z</time>
      </trkpt>
      <trkpt lat="48.0441" lon="7.17436">
        <ele>338</ele>
        <time>2014-03-02T08:37:34Z</time>
      </trkpt>
      <trkpt lat="48.04421" lon="7.17398">
        <ele>339</ele>
        <time>2014-03-02T08:37:39Z</time>
      </trkpt>
      <trkpt lat="48.0443" lon="7.17374">
        <ele>338</ele>
        <time>2014-03-02T08:37:43Z</time>
      </trkpt>
      <trkpt lat="48.04434" lon="7.17351">
        <ele>340</ele>
        <time>2014-03-02T08:37:47Z</time>
      </trkpt>
      <trkpt lat="48.04434" lon="7.17327">
        <ele>338</ele>
        <time>2014-03-02T08:37:51Z</time>
      </trkpt>
      <trkpt lat="48.0444" lon="7.17295">
        <ele>340</ele>
        <time>2014-03-02T08:37:55Z</time>
      </trkpt>
      <trkpt lat="48.04445" lon="7.17268">
        <ele>342</ele>
        <time>2014-03-02T08:37:59Z</time>
      </trkpt>
      <trkpt lat="48.04442" lon="7.17238">
        <ele>341</ele>
        <time>2014-03-02T08:38:04Z</time>
      </trkpt>
      <trkpt lat="48.0444" lon="7.17215">
        <ele>342</ele>
        <time>2014-03-02T08:38:08Z</time>
      </trkpt>
      <trkpt lat="48.04437" lon="7.17187">
        <ele>337</ele>
        <time>2014-03-02T08:38:12Z</time>
      </trkpt>
      <trkpt lat="48.04433" lon="7.17151">
        <ele>341</ele>
        <time>2014-03-02T08:38:17Z</time>
      </trkpt>
      <trkpt lat="48.0443" lon="7.17116">
        <ele>337</ele>
        <time>2014-03-02T08:38:22Z</time>
      </trkpt>
      <trkpt lat="48.04429" lon="7.17087">
        <ele>342</ele>
        <time>2014-03-02T08:38:27Z</time>
      </trkpt>
      <trkpt lat="48.04427" lon="7.17062">
        <ele>338</ele>
        <time>2014-03-02T08:38:31Z</time>
      </trkpt>
      <trkpt lat="48.04423" lon="7.17031">
        <ele>338</ele>
        <time>2014-03-02T08:38:36Z</time>
      </trkpt>
      <trkpt lat="48.0442" lon="7.17001">
        <ele>333</ele>
        <time>2014-03-02T08:38:41Z</time>
      </trkpt>
      <trkpt lat="48.04418" lon="7.16976">
        <ele>336</ele>
        <time>2014-03-02T08:38:45Z</time>
      </trkpt>
      <trkpt lat="48.04415" lon="7.16944">
        <ele>331</ele>
        <time>2014-03-02T08:38:49Z</time>
      </trkpt>
      <trkpt lat="48.04412" lon="7.16917">
        <ele>338</ele>
        <time>2014-03-02T08:38:54Z</time>
      </trkpt>
      <trkpt lat="48.04421" lon="7.16883">
        <ele>341</ele>
        <time>2014-03-02T08:38:59Z</time>
      </trkpt>
      <trkpt lat="48.04414" lon="7.1685">
        <ele>338</ele>
        <time>2014-03-02T08:39:03Z</time>
      </trkpt>
      <trkpt lat="48.04413" lon="7.16821">
        <ele>342</ele>
        <time>2014-03-02T08:39:07Z</time>
      </trkpt>
      <trkpt lat="48.04412" lon="7.16788">
        <ele>336</ele>
        <time>2014-03-02T08:39:11Z</time>
      </trkpt>
      <trkpt lat="48.04414" lon="7.16754">
        <ele>348</ele>
        <time>2014-03-02T08:39:16Z</time>
      </trkpt>
      <trkpt lat="48.04416" lon="7.16722">
        <ele>346</ele>
        <time>2014-03-02T08:39:21Z</time>
      </trkpt>
      <trkpt lat="48.0442" lon="7.16688">
        <ele>347</ele>
        <time>2014-03-02T08:39:26Z</time>
      </trkpt>
      <trkpt lat="48.04423" lon="7.16657">
        <ele>343</ele>
        <time>2014-03-02T08:39:30Z</time>
      </trkpt>
      <trkpt lat="48.04425" lon="7.16629">
        <ele>346</ele>
        <time>2014-03-02T08:39:34Z</time>
      </trkpt>
      <trkpt lat="48.04428" lon="7.16595">
        <ele>346</ele>
        <time>2014-03-02T08:39:38Z</time>
      </trkpt>
      <trkpt lat="48.04437" lon="7.16562">
        <ele>343</ele>
        <time>2014-03-02T08:39:43Z</time>
      </trkpt>
      <trkpt lat="48.04452" lon="7.16525">
        <ele>344</ele>
        <time>2014-03-02T08:39:48Z</time>
      </trkpt>
      <trkpt lat="48.0446" lon="7.16489">
        <ele>343</ele>
        <time>2014-03-02T08:39:53Z</time>
      </trkpt>
      <trkpt lat="48.04463" lon="7.16457">
        <ele>344</ele>
        <time>2014-03-02T08:39:57Z</time>
      </trkpt>
      <trkpt lat="48.0447" lon="7.16428">
        <ele>339</ele>
        <time>2014-03-02T08:40:01Z</time>
      </trkpt>
      <trkpt lat="48.0447" lon="7.16398">
        <ele>340</ele>
        <time>2014-03-02T08:40:05Z</time>
      </trkpt>
      <trkpt lat="48.04466" lon="7.16362">
        <ele>336</ele>
        <time>2014-03-02T08:40:10Z</time>
      </trkpt>
      <trkpt lat="48.04459" lon="7.16327">
        <ele>341</ele>
        <time>2014-03-02T08:40:15Z</time>
      </trkpt>
      <trkpt lat="48.04454" lon="7.163">
        <ele>342</ele>
        <time>2014-03-02T08:40:19Z</time>
      </trkpt>
      <trkpt lat="48.04447" lon="7.16272">
        <ele>341</ele>
        <time>2014-03-02T08:40:23Z</time>
      </trkpt>
      <trkpt lat="48.04441" lon="7.1624">
        <ele>342</ele>
        <time>2014-03-02T08:40:28Z</time>
      </trkpt>
      <trkpt lat="48.04435" lon="7.16213">
        <ele>338</ele>
        <time>2014-03-02T08:40:32Z</time>
      </trkpt>
      <trkpt lat="48.04427" lon="7.16179">
        <ele>340</ele>
        <time>2014-03-02T08:40:37Z</time>
      </trkpt>
      <trkpt lat="48.04428" lon="7.16155">
        <ele>340</ele>
        <time>2014-03-02T08:40:41Z</time>
      </trkpt>
      <trkpt lat="48.04432" lon="7.16124">
        <ele>344</ele>
        <time>2014-03-02T08:40:46Z</time>
      </trkpt>
      <trkpt lat="48.04435" lon="7.16093">
        <ele>341</ele>
        <time>2014-03-02T08:40:51Z</time>
      </trkpt>
      <trkpt lat="48.04444" lon="7.16064">
        <ele>343</ele>
        <time>2014-03-02T08:40:55Z</time>
      </trkpt>
      <trkpt lat="48.04452" lon="7.16039">
        <ele>341</ele>
        <time>2014-03-02T08:40:59Z</time>
      </trkpt>
      <trkpt lat="48.04456" lon="7.16013">
        <ele>342</ele>
        <time>2014-03-02T08:41:03Z</time>
      </trkpt>
      <trkpt lat="48.04457" lon="7.15977">
        <ele>337</ele>
        <time>2014-03-02T08:41:08Z</time>
      </trkpt>
      <trkpt lat="48.04451" lon="7.15945">
        <ele>342</ele>
        <time>2014-03-02T08:41:13Z</time>
      </trkpt>
      <trkpt lat="48.04445" lon="7.15922">
        <ele>341</ele>
        <time>2014-03-02T08:41:17Z</time>
      </trkpt>
      <trkpt lat="48.04437" lon="7.159">
        <ele>340</ele>
        <time>2014-03-02T08:41:21Z</time>
      </trkpt>
      <trkpt lat="48.04428" lon="7.1587">
        <ele>345</ele>
        <time>2014-03-02T08:41:26Z</time>
      </trkpt>
      <trkpt lat="48.04417" lon="7.15851">
        <ele>344</ele>
        <time>2014-03-02T08:41:30Z</time>
      </trkpt>
      <trkpt lat="48.044" lon="7.15827">
        <ele>345</ele>
        <time>2014-03-02T08:41:35Z</time>
      </trkpt>
      <trkpt lat="48.04386" lon="7.15807">
        <ele>349</ele>
        <time>2014-03-02T08:41:39Z</time>
      </trkpt>
      <trkpt lat="48.04373" lon="7.15785">
        <ele>349</ele>
        <time>2014-03-02T08:41:43Z</time>
      </trkpt>
      <trkpt lat="48.04365" lon="7.15759">
        <ele>352</ele>
        <time>2014-03-02T08:41:47Z</time>
      </trkpt>
      <trkpt lat="48.04356" lon="7.15736">
        <ele>352</ele>
        <time>2014-03-02T08:41:52Z</time>
      </trkpt>
      <trkpt lat="48.0435" lon="7.15719">
        <ele>353</ele>
        <time>2014-03-02T08:41:56Z</time>
      </trkpt>
      <trkpt lat="48.04346" lon="7.15703">
        <ele>349</ele>
        <time>2014-03-02T08:42:00Z</time>
      </trkpt>
      <trkpt lat="48.04341" lon="7.15686">
        <ele>353</ele>
        <time>2014-03-02T08:42:05Z</time>
      </trkpt>
      <trkpt lat="48.04336" lon="7.1566">
        <ele>351</ele>
        <time>2014-03-02T08:42:10Z</time>
      </trkpt>
      <trkpt lat="48.0433" lon="7.15633">
        <ele>355</ele>
        <time>2014-03-02T08:42:15Z</time>
      </trkpt>
      <trkpt lat="48.04326" lon="7.15614">
        <ele>359</ele>
        <time>2014-03-02T08:42:19Z</time>
      </trkpt>
      <trkpt lat="48.04325" lon="7.15593">
        <ele>355</ele>
        <time>2014-03-02T08:42:23Z</time>
      </trkpt>
      <trkpt lat="48.04326" lon="7.15573">
        <ele>359</ele>
        <time>2014-03-02T08:42:27Z</time>
      </trkpt>
      <trkpt lat="48.04325" lon="7.15546">
        <ele>353</ele>
        <time>2014-03-02T08:42:31Z</time>
      </trkpt>
      <trkpt lat="48.04322" lon="7.15511">
        <ele>358</ele>
        <time>2014-03-02T08:42:36Z</time>
      </trkpt>
      <trkpt lat="48.04319" lon="7.1548">
        <ele>345</ele>
        <time>2014-03-02T08:42:41Z</time>
      </trkpt>
      <trkpt lat="48.04316" lon="7.15456">
        <ele>344</ele>
        <time>2014-03-02T08:42:45Z</time>
      </trkpt>
      <trkpt lat="48.04311" lon="7.15431">
        <ele>348</ele>
        <time>2014-03-02T08:42:49Z</time>
      </trkpt>
      <trkpt lat="48.04303" lon="7.15403">
        <ele>351</ele>
        <time>2014-03-02T08:42:53Z</time>
      </trkpt>
      <trkpt lat="48.04299" lon="7.15372">
        <ele>359</ele>
        <time>2014-03-02T08:42:58Z</time>
      </trkpt>
      <trkpt lat="48.04299" lon="7.1536">
        <ele>360</ele>
        <time>2014-03-02T08:43:08Z</time>
      </trkpt>
      <trkpt lat="48.04292" lon="7.15352">
        <ele>361</ele>
        <time>2014-03-02T08:43:16Z</time>
      </trkpt>
      <trkpt lat="48.04287" lon="7.15343">
        <ele>361</ele>
        <time>2014-03-02T08:43:24Z</time>
      </trkpt>
      <trkpt lat="48.04285" lon="7.15331">
        <ele>365</ele>
        <time>2014-03-02T08:43:33Z</time>
      </trkpt>
      <trkpt lat="48.04278" lon="7.15302">
        <ele>362</ele>
        <time>2014-03-02T08:43:43Z</time>
      </trkpt>
      <trkpt lat="48.04277" lon="7.15289">
        <ele>366</ele>
        <time>2014-03-02T08:43:57Z</time>
      </trkpt>
      <trkpt lat="48.04278" lon="7.15276">
        <ele>363</ele>
        <time>2014-03-02T08:44:05Z</time>
      </trkpt>
      <trkpt lat="48.04274" lon="7.15265">
        <ele>355</ele>
        <time>2014-03-02T08:44:12Z</time>
      </trkpt>
      <trkpt lat="48.0427" lon="7.15253">
        <ele>351</ele>
        <time>2014-03-02T08:44:20Z</time>
      </trkpt>
      <trkpt lat="48.04268" lon="7.15242">
        <ele>358</ele>
        <time>2014-03-02T08:44:28Z</time>
      </trkpt>
      <trkpt lat="48.04265" lon="7.15229">
        <ele>358</ele>
        <time>2014-03-02T08:44:35Z</time>
      </trkpt>
      <trkpt lat="48.04262" lon="7.15217">
        <ele>354</ele>
        <time>2014-03-02T08:44:41Z</time>
      </trkpt>
      <trkpt lat="48.0426" lon="7.15205">
        <ele>360</ele>
        <time>2014-03-02T08:44:47Z</time>
      </trkpt>
      <trkpt lat="48.04256" lon="7.15193">
        <ele>363</ele>
        <time>2014-03-02T08:44:53Z</time>
      </trkpt>
      <trkpt lat="48.04254" lon="7.15181">
        <ele>365</ele>
        <time>2014-03-02T08:45:05Z</time>
      </trkpt>
      <trkpt lat="48.04251" lon="7.15169">
        <ele>370</ele>
        <time>2014-03-02T08:45:17Z</time>
      </trkpt>
      <trkpt lat="48.04248" lon="7.15158">
        <ele>371</ele>
        <time>2014-03-02T08:45:27Z</time>
      </trkpt>
      <trkpt lat="48.04248" lon="7.15146">
        <ele>369</ele>
        <time>2014-03-02T08:45:32Z</time>
      </trkpt>
      <trkpt lat="48.04247" lon="7.15135">
        <ele>369</ele>
        <time>2014-03-02T08:45:36Z</time>
      </trkpt>
      <trkpt lat="48.04247" lon="7.15121">
        <ele>368</ele>
        <time>2014-03-02T08:45:40Z</time>
      </trkpt>
      <trkpt lat="48.04245" lon="7.15108">
        <ele>370</ele>
        <time>2014-03-02T08:45:44Z</time>
      </trkpt>
      <trkpt lat="48.04247" lon="7.15098">
        <ele>371</ele>
        <time>2014-03-02T08:45:48Z</time>
      </trkpt>
      <trkpt lat="48.04246" lon="7.15085">
        <ele>371</ele>
        <time>2014-03-02T08:45:53Z</time>
      </trkpt>
      <trkpt lat="48.04246" lon="7.15073">
        <ele>373</ele>
        <time>2014-03-02T08:45:59Z</time>
      </trkpt>
      <trkpt lat="48.04243" lon="7.15061">
        <ele>369</ele>
        <time>2014-03-02T08:46:05Z</time>
      </trkpt>
      <trkpt lat="48.04239" lon="7.1505">
        <ele>366</ele>
        <time>2014-03-02T08:46:10Z</time>
      </trkpt>
      <trkpt lat="48.0424" lon="7.15038">
        <ele>365</ele>
        <time>2014-03-02T08:46:16Z</time>
      </trkpt>
      <trkpt lat="48.04239" lon="7.15026">
        <ele>366</ele>
        <time>2014-03-02T08:46:21Z</time>
      </trkpt>
      <trkpt lat="48.04239" lon="7.15014">
        <ele>367</ele>
        <time>2014-03-02T08:46:26Z</time>
      </trkpt>
      <trkpt lat="48.04236" lon="7.15002">
        <ele>366</ele>
        <time>2014-03-02T08:46:33Z</time>
      </trkpt>
      <trkpt lat="48.04232" lon="7.1499">
        <ele>367</ele>
        <time>2014-03-02T08:46:40Z</time>
      </trkpt>
      <trkpt lat="48.04227" lon="7.1498">
        <ele>364</ele>
        <time>2014-03-02T08:46:48Z</time>
      </trkpt>
      <trkpt lat="48.04222" lon="7.14969">
        <ele>368</ele>
        <time>2014-03-02T08:46:57Z</time>
      </trkpt>
      <trkpt lat="48.04217" lon="7.14958">
        <ele>369</ele>
        <time>2014-03-02T08:47:02Z</time>
      </trkpt>
      <trkpt lat="48.04213" lon="7.14947">
        <ele>371</ele>
        <time>2014-03-02T08:47:07Z</time>
      </trkpt>
      <trkpt lat="48.04209" lon="7.14937">
        <ele>371</ele>
        <time>2014-03-02T08:47:13Z</time>
      </trkpt>
      <trkpt lat="48.04204" lon="7.14927">
        <ele>371</ele>
        <time>2014-03-02T08:47:21Z</time>
      </trkpt>
      <trkpt lat="48.04198" lon="7.14917">
        <ele>371</ele>
        <time>2014-03-02T08:47:35Z</time>
      </trkpt>
      <trkpt lat="48.04185" lon="7.149">
        <ele>371</ele>
        <time>2014-03-02T08:47:47Z</time>
      </trkpt>
      <trkpt lat="48.04177" lon="7.14896">
        <ele>364</ele>
        <time>2014-03-02T08:48:53Z</time>
      </trkpt>
      <trkpt lat="48.04172" lon="7.14884">
        <ele>365</ele>
        <time>2014-03-02T08:49:21Z</time>
      </trkpt>
      <trkpt lat="48.04166" lon="7.14877">
        <ele>366</ele>
        <time>2014-03-02T08:49:36Z</time>
      </trkpt>
      <trkpt lat="48.04162" lon="7.14866">
        <ele>366</ele>
        <time>2014-03-02T08:49:41Z</time>
      </trkpt>
      <trkpt lat="48.04157" lon="7.14856">
        <ele>368</ele>
        <time>2014-03-02T08:49:46Z</time>
      </trkpt>
      <trkpt lat="48.04154" lon="7.14846">
        <ele>369</ele>
        <time>2014-03-02T08:49:50Z</time>
      </trkpt>
      <trkpt lat="48.04146" lon="7.14827">
        <ele>368</ele>
        <time>2014-03-02T08:49:55Z</time>
      </trkpt>
      <trkpt lat="48.0414" lon="7.14813">
        <ele>372</ele>
        <time>2014-03-02T08:49:59Z</time>
      </trkpt>
      <trkpt lat="48.04136" lon="7.14798">
        <ele>374</ele>
        <time>2014-03-02T08:50:03Z</time>
      </trkpt>
      <trkpt lat="48.04129" lon="7.14779">
        <ele>374</ele>
        <time>2014-03-02T08:50:07Z</time>
      </trkpt>
      <trkpt lat="48.04119" lon="7.14753">
        <ele>373</ele>
        <time>2014-03-02T08:50:12Z</time>
      </trkpt>
      <trkpt lat="48.04113" lon="7.14734">
        <ele>373</ele>
        <time>2014-03-02T08:50:16Z</time>
      </trkpt>
      <trkpt lat="48.04108" lon="7.14715">
        <ele>371</ele>
        <time>2014-03-02T08:50:20Z</time>
      </trkpt>
      <trkpt lat="48.04104" lon="7.14702">
        <ele>369</ele>
        <time>2014-03-02T08:50:24Z</time>
      </trkpt>
      <trkpt lat="48.04098" lon="7.14682">
        <ele>369</ele>
        <time>2014-03-02T08:50:29Z</time>
      </trkpt>
      <trkpt lat="48.04093" lon="7.14665">
        <ele>370</ele>
        <time>2014-03-02T08:50:33Z</time>
      </trkpt>
      <trkpt lat="48.04087" lon="7.14651">
        <ele>370</ele>
        <time>2014-03-02T08:50:37Z</time>
      </trkpt>
      <trkpt lat="48.04083" lon="7.14638">
        <ele>369</ele>
        <time>2014-03-02T08:50:41Z</time>
      </trkpt>
      <trkpt lat="48.04079" lon="7.14627">
        <ele>369</ele>
        <time>2014-03-02T08:50:45Z</time>
      </trkpt>
      <trkpt lat="48.04072" lon="7.14611">
        <ele>369</ele>
        <time>2014-03-02T08:50:50Z</time>
      </trkpt>
      <trkpt lat="48.04067" lon="7.14589">
        <ele>369</ele>
        <time>2014-03-02T08:50:55Z</time>
      </trkpt>
      <trkpt lat="48.04067" lon="7.14572">
        <ele>368</ele>
        <time>2014-03-02T08:50:59Z</time>
      </trkpt>
      <trkpt lat="48.04074" lon="7.14553">
        <ele>363</ele>
        <time>2014-03-02T08:51:04Z</time>
      </trkpt>
      <trkpt lat="48.04085" lon="7.14539">
        <ele>363</ele>
        <time>2014-03-02T08:51:09Z</time>
      </trkpt>
      <trkpt lat="48.04092" lon="7.14527">
        <ele>364</ele>
        <time>2014-03-02T08:51:14Z</time>
      </trkpt>
      <trkpt lat="48.04097" lon="7.14517">
        <ele>367</ele>
        <time>2014-03-02T08:51:18Z</time>
      </trkpt>
      <trkpt lat="48.04097" lon="7.1449">
        <ele>364</ele>
        <time>2014-03-02T08:51:23Z</time>
      </trkpt>
      <trkpt lat="48.04098" lon="7.14461">
        <ele>364</ele>
        <time>2014-03-02T08:51:28Z</time>
      </trkpt>
      <trkpt lat="48.04106" lon="7.14439">
        <ele>365</ele>
        <time>2014-03-02T08:51:32Z</time>
      </trkpt>
      <trkpt lat="48.04115" lon="7.14419">
        <ele>365</ele>
        <time>2014-03-02T08:51:36Z</time>
      </trkpt>
      <trkpt lat="48.04125" lon="7.14392">
        <ele>367</ele>
        <time>2014-03-02T08:51:41Z</time>
      </trkpt>
      <trkpt lat="48.0414" lon="7.14372">
        <ele>368</ele>
        <time>2014-03-02T08:51:45Z</time>
      </trkpt>
      <trkpt lat="48.0416" lon="7.14355">
        <ele>370</ele>
        <time>2014-03-02T08:51:50Z</time>
      </trkpt>
      <trkpt lat="48.04172" lon="7.14346">
        <ele>369</ele>
        <time>2014-03-02T08:51:55Z</time>
      </trkpt>
      <trkpt lat="48.04174" lon="7.14335">
        <ele>368</ele>
        <time>2014-03-02T08:52:00Z</time>
      </trkpt>
      <trkpt lat="48.04166" lon="7.14309">
        <ele>369</ele>
        <time>2014-03-02T08:52:05Z</time>
      </trkpt>
      <trkpt lat="48.04158" lon="7.14279">
        <ele>368</ele>
        <time>2014-03-02T08:52:10Z</time>
      </trkpt>
      <trkpt lat="48.04151" lon="7.14254">
        <ele>368</ele>
        <time>2014-03-02T08:52:14Z</time>
      </trkpt>
      <trkpt lat="48.04146" lon="7.14228">
        <ele>367</ele>
        <time>2014-03-02T08:52:18Z</time>
      </trkpt>
      <trkpt lat="48.04143" lon="7.14194">
        <ele>367</ele>
        <time>2014-03-02T08:52:23Z</time>
      </trkpt>
      <trkpt lat="48.04143" lon="7.14169">
        <ele>368</ele>
        <time>2014-03-02T08:52:27Z</time>
      </trkpt>
      <trkpt lat="48.04145" lon="7.14145">
        <ele>369</ele>
        <time>2014-03-02T08:52:31Z</time>
      </trkpt>
      <trkpt lat="48.0415" lon="7.14114">
        <ele>369</ele>
        <time>2014-03-02T08:52:36Z</time>
      </trkpt>
      <trkpt lat="48.04155" lon="7.14091">
        <ele>370</ele>
        <time>2014-03-02T08:52:40Z</time>
      </trkpt>
      <trkpt lat="48.0416" lon="7.14066">
        <ele>371</ele>
        <time>2014-03-02T08:52:45Z</time>
      </trkpt>
      <trkpt lat="48.04168" lon="7.14063">
        <ele>360</ele>
        <time>2014-03-02T08:52:50Z</time>
      </trkpt>
      <trkpt lat="48.04181" lon="7.14068">
        <ele>370</ele>
        <time>2014-03-02T08:52:54Z</time>
      </trkpt>
      <trkpt lat="48.04197" lon="7.14073">
        <ele>372</ele>
        <time>2014-03-02T08:52:58Z</time>
      </trkpt>
      <trkpt lat="48.04211" lon="7.14083">
        <ele>368</ele>
        <time>2014-03-02T08:53:03Z</time>
      </trkpt>
      <trkpt lat="48.04219" lon="7.14084">
        <ele>373</ele>
        <time>2014-03-02T08:56:04Z</time>
      </trkpt>
      <trkpt lat="48.04227" lon="7.14086">
        <ele>376</ele>
        <time>2014-03-02T08:56:09Z</time>
      </trkpt>
      <trkpt lat="48.04235" lon="7.14089">
        <ele>374</ele>
        <time>2014-03-02T08:56:14Z</time>
      </trkpt>
      <trkpt lat="48.04243" lon="7.14092">
        <ele>377</ele>
        <time>2014-03-02T08:56:19Z</time>
      </trkpt>
      <trkpt lat="48.04245" lon="7.14103">
        <ele>376</ele>
        <time>2014-03-02T08:56:27Z</time>
      </trkpt>
      <trkpt lat="48.04247" lon="7.14115">
        <ele>383</ele>
        <time>2014-03-02T08:56:38Z</time>
      </trkpt>
      <trkpt lat="48.0425" lon="7.14127">
        <ele>387</ele>
        <time>2014-03-02T08:56:51Z</time>
      </trkpt>
      <trkpt lat="48.04252" lon="7.1414">
        <ele>391</ele>
        <time>2014-03-02T08:57:06Z</time>
      </trkpt>
      <trkpt lat="48.04255" lon="7.14152">
        <ele>393</ele>
        <time>2014-03-02T08:57:17Z</time>
      </trkpt>
      <trkpt lat="48.04256" lon="7.14164">
        <ele>395</ele>
        <time>2014-03-02T08:57:25Z</time>
      </trkpt>
      <trkpt lat="48.04262" lon="7.14156">
        <ele>394</ele>
        <time>2014-03-02T08:58:03Z</time>
      </trkpt>
      <trkpt lat="48.04268" lon="7.14132">
        <ele>398</ele>
        <time>2014-03-02T08:58:21Z</time>
      </trkpt>
      <trkpt lat="48.0427" lon="7.14144">
        <ele>397</ele>
        <time>2014-03-02T08:58:35Z</time>
      </trkpt>
      <trkpt lat="48.04273" lon="7.14156">
        <ele>399</ele>
        <time>2014-03-02T08:58:45Z</time>
      </trkpt>
      <trkpt lat="48.04277" lon="7.14145">
        <ele>407</ele>
        <time>2014-03-02T08:59:23Z</time>
      </trkpt>
      <trkpt lat="48.04278" lon="7.14132">
        <ele>410</ele>
        <time>2014-03-02T08:59:30Z</time>
      </trkpt>
      <trkpt lat="48.04282" lon="7.14143">
        <ele>412</ele>
        <time>2014-03-02T08:59:44Z</time>
      </trkpt>
      <trkpt lat="48.04285" lon="7.14154">
        <ele>413</ele>
        <time>2014-03-02T08:59:53Z</time>
      </trkpt>
      <trkpt lat="48.04291" lon="7.14146">
        <ele>419</ele>
        <time>2014-03-02T09:00:19Z</time>
      </trkpt>
      <trkpt lat="48.04296" lon="7.14134">
        <ele>419</ele>
        <time>2014-03-02T09:00:48Z</time>
      </trkpt>
      <trkpt lat="48.04295" lon="7.14122">
        <ele>421</ele>
        <time>2014-03-02T09:00:58Z</time>
      </trkpt>
      <trkpt lat="48.04292" lon="7.1411">
        <ele>426</ele>
        <time>2014-03-02T09:01:09Z</time>
      </trkpt>
      <trkpt lat="48.04294" lon="7.14097">
        <ele>425</ele>
        <time>2014-03-02T09:01:22Z</time>
      </trkpt>
      <trkpt lat="48.04302" lon="7.14091">
        <ele>420</ele>
        <time>2014-03-02T09:03:38Z</time>
      </trkpt>
      <trkpt lat="48.0431" lon="7.14086">
        <ele>424</ele>
        <time>2014-03-02T09:03:47Z</time>
      </trkpt>
      <trkpt lat="48.04315" lon="7.14075">
        <ele>429</ele>
        <time>2014-03-02T09:04:00Z</time>
      </trkpt>
      <trkpt lat="48.04318" lon="7.14065">
        <ele>427</ele>
        <time>2014-03-02T09:04:10Z</time>
      </trkpt>
      <trkpt lat="48.04319" lon="7.14053">
        <ele>428</ele>
        <time>2014-03-02T09:04:16Z</time>
      </trkpt>
      <trkpt lat="48.04321" lon="7.1404">
        <ele>427</ele>
        <time>2014-03-02T09:04:24Z</time>
      </trkpt>
      <trkpt lat="48.04323" lon="7.14028">
        <ele>431</ele>
        <time>2014-03-02T09:04:32Z</time>
      </trkpt>
      <trkpt lat="48.04328" lon="7.14017">
        <ele>432</ele>
        <time>2014-03-02T09:04:39Z</time>
      </trkpt>
      <trkpt lat="48.04336" lon="7.14016">
        <ele>431</ele>
        <time>2014-03-02T09:04:55Z</time>
      </trkpt>
      <trkpt lat="48.04345" lon="7.14012">
        <ele>441</ele>
        <time>2014-03-02T09:05:11Z</time>
      </trkpt>
      <trkpt lat="48.04351" lon="7.14005">
        <ele>442</ele>
        <time>2014-03-02T09:05:17Z</time>
      </trkpt>
      <trkpt lat="48.04359" lon="7.14001">
        <ele>439</ele>
        <time>2014-03-02T09:05:24Z</time>
      </trkpt>
      <trkpt lat="48.04367" lon="7.13997">
        <ele>439</ele>
        <time>2014-03-02T09:05:30Z</time>
      </trkpt>
      <trkpt lat="48.04375" lon="7.13991">
        <ele>438</ele>
        <time>2014-03-02T09:05:38Z</time>
      </trkpt>
      <trkpt lat="48.04382" lon="7.13996">
        <ele>444</ele>
        <time>2014-03-02T09:06:01Z</time>
      </trkpt>
      <trkpt lat="48.0439" lon="7.14">
        <ele>443</ele>
        <time>2014-03-02T09:06:16Z</time>
      </trkpt>
      <trkpt lat="48.04392" lon="7.14013">
        <ele>448</ele>
        <time>2014-03-02T09:06:29Z</time>
      </trkpt>
      <trkpt lat="48.04392" lon="7.14026">
        <ele>455</ele>
        <time>2014-03-02T09:06:45Z</time>
      </trkpt>
      <trkpt lat="48.04401" lon="7.14024">
        <ele>459</ele>
        <time>2014-03-02T09:06:56Z</time>
      </trkpt>
      <trkpt lat="48.0441" lon="7.14024">
        <ele>464</ele>
        <time>2014-03-02T09:07:03Z</time>
      </trkpt>
      <trkpt lat="48.04416" lon="7.14032">
        <ele>463</ele>
        <time>2014-03-02T09:07:12Z</time>
      </trkpt>
      <trkpt lat="48.04424" lon="7.14037">
        <ele>462</ele>
        <time>2014-03-02T09:07:19Z</time>
      </trkpt>
      <trkpt lat="48.04431" lon="7.14042">
        <ele>465</ele>
        <time>2014-03-02T09:07:25Z</time>
      </trkpt>
      <trkpt lat="48.04439" lon="7.14044">
        <ele>466</ele>
        <time>2014-03-02T09:07:30Z</time>
      </trkpt>
      <trkpt lat="48.04448" lon="7.14046">
        <ele>467</ele>
        <time>2014-03-02T09:07:35Z</time>
      </trkpt>
      <trkpt lat="48.04456" lon="7.14047">
        <ele>468</ele>
        <time>2014-03-02T09:07:40Z</time>
      </trkpt>
      <trkpt lat="48.04464" lon="7.14047">
        <ele>470</ele>
        <time>2014-03-02T09:07:45Z</time>
      </trkpt>
      <trkpt lat="48.04472" lon="7.14046">
        <ele>471</ele>
        <time>2014-03-02T09:07:50Z</time>
      </trkpt>
      <trkpt lat="48.0448" lon="7.14043">
        <ele>472</ele>
        <time>2014-03-02T09:07:55Z</time>
      </trkpt>
      <trkpt lat="48.04488" lon="7.1404">
        <ele>473</ele>
        <time>2014-03-02T09:08:00Z</time>
      </trkpt>
      <trkpt lat="48.04496" lon="7.14037">
        <ele>476</ele>
        <time>2014-03-02T09:08:05Z</time>
      </trkpt>
      <trkpt lat="48.04505" lon="7.14038">
        <ele>481</ele>
        <time>2014-03-02T09:08:11Z</time>
      </trkpt>
      <trkpt lat="48.04512" lon="7.1404">
        <ele>483</ele>
        <time>2014-03-02T09:08:16Z</time>
      </trkpt>
      <trkpt lat="48.04519" lon="7.14041">
        <ele>482</ele>
        <time>2014-03-02T09:08:20Z</time>
      </trkpt>
      <trkpt lat="48.04526" lon="7.14045">
        <ele>480</ele>
        <time>2014-03-02T09:08:24Z</time>
      </trkpt>
      <trkpt lat="48.04534" lon="7.14049">
        <ele>480</ele>
        <time>2014-03-02T09:08:29Z</time>
      </trkpt>
      <trkpt lat="48.04542" lon="7.14051">
        <ele>482</ele>
        <time>2014-03-02T09:08:33Z</time>
      </trkpt>
      <trkpt lat="48.04552" lon="7.14049">
        <ele>482</ele>
        <time>2014-03-02T09:08:38Z</time>
      </trkpt>
      <trkpt lat="48.04561" lon="7.14047">
        <ele>484</ele>
        <time>2014-03-02T09:08:43Z</time>
      </trkpt>
      <trkpt lat="48.0457" lon="7.14044">
        <ele>485</ele>
        <time>2014-03-02T09:08:48Z</time>
      </trkpt>
      <trkpt lat="48.04578" lon="7.14038">
        <ele>486</ele>
        <time>2014-03-02T09:08:53Z</time>
      </trkpt>
      <trkpt lat="48.04586" lon="7.14033">
        <ele>487</ele>
        <time>2014-03-02T09:08:58Z</time>
      </trkpt>
      <trkpt lat="48.04593" lon="7.14028">
        <ele>489</ele>
        <time>2014-03-02T09:09:03Z</time>
      </trkpt>
      <trkpt lat="48.046" lon="7.14023">
        <ele>490</ele>
        <time>2014-03-02T09:09:08Z</time>
      </trkpt>
      <trkpt lat="48.04607" lon="7.14017">
        <ele>490</ele>
        <time>2014-03-02T09:09:13Z</time>
      </trkpt>
      <trkpt lat="48.04613" lon="7.1401">
        <ele>492</ele>
        <time>2014-03-02T09:09:18Z</time>
      </trkpt>
      <trkpt lat="48.04621" lon="7.14004">
        <ele>494</ele>
        <time>2014-03-02T09:09:23Z</time>
      </trkpt>
      <trkpt lat="48.04627" lon="7.13999">
        <ele>496</ele>
        <time>2014-03-02T09:09:30Z</time>
      </trkpt>
      <trkpt lat="48.04635" lon="7.13996">
        <ele>495</ele>
        <time>2014-03-02T09:09:34Z</time>
      </trkpt>
      <trkpt lat="48.04643" lon="7.13993">
        <ele>495</ele>
        <time>2014-03-02T09:09:39Z</time>
      </trkpt>
      <trkpt lat="48.04651" lon="7.13989">
        <ele>499</ele>
        <time>2014-03-02T09:09:48Z</time>
      </trkpt>
      <trkpt lat="48.04659" lon="7.13992">
        <ele>501</ele>
        <time>2014-03-02T09:09:53Z</time>
      </trkpt>
      <trkpt lat="48.04666" lon="7.13986">
        <ele>508</ele>
        <time>2014-03-02T09:10:00Z</time>
      </trkpt>
      <trkpt lat="48.04674" lon="7.13983">
        <ele>513</ele>
        <time>2014-03-02T09:10:06Z</time>
      </trkpt>
      <trkpt lat="48.04682" lon="7.13979">
        <ele>514</ele>
        <time>2014-03-02T09:10:15Z</time>
      </trkpt>
      <trkpt lat="48.04691" lon="7.13979">
        <ele>514</ele>
        <time>2014-03-02T09:10:22Z</time>
      </trkpt>
      <trkpt lat="48.04699" lon="7.13979">
        <ele>514</ele>
        <time>2014-03-02T09:10:29Z</time>
      </trkpt>
      <trkpt lat="48.04698" lon="7.13991">
        <ele>518</ele>
        <time>2014-03-02T09:10:58Z</time>
      </trkpt>
      <trkpt lat="48.04693" lon="7.14">
        <ele>516</ele>
        <time>2014-03-02T09:11:03Z</time>
      </trkpt>
      <trkpt lat="48.04689" lon="7.14011">
        <ele>514</ele>
        <time>2014-03-02T09:11:08Z</time>
      </trkpt>
      <trkpt lat="48.04683" lon="7.14019">
        <ele>515</ele>
        <time>2014-03-02T09:11:14Z</time>
      </trkpt>
      <trkpt lat="48.04676" lon="7.14026">
        <ele>512</ele>
        <time>2014-03-02T09:11:22Z</time>
      </trkpt>
      <trkpt lat="48.04669" lon="7.14034">
        <ele>516</ele>
        <time>2014-03-02T09:11:48Z</time>
      </trkpt>
      <trkpt lat="48.04671" lon="7.14047">
        <ele>519</ele>
        <time>2014-03-02T09:11:55Z</time>
      </trkpt>
      <trkpt lat="48.04679" lon="7.14048">
        <ele>520</ele>
        <time>2014-03-02T09:12:00Z</time>
      </trkpt>
      <trkpt lat="48.04688" lon="7.14051">
        <ele>518</ele>
        <time>2014-03-02T09:12:06Z</time>
      </trkpt>
      <trkpt lat="48.04696" lon="7.1405">
        <ele>521</ele>
        <time>2014-03-02T09:12:11Z</time>
      </trkpt>
      <trkpt lat="48.04704" lon="7.1405">
        <ele>521</ele>
        <time>2014-03-02T09:12:17Z</time>
      </trkpt>
      <trkpt lat="48.04711" lon="7.14046">
        <ele>524</ele>
        <time>2014-03-02T09:12:24Z</time>
      </trkpt>
      <trkpt lat="48.0472" lon="7.1404">
        <ele>524</ele>
        <time>2014-03-02T09:12:29Z</time>
      </trkpt>
      <trkpt lat="48.04733" lon="7.14035">
        <ele>526</ele>
        <time>2014-03-02T09:12:34Z</time>
      </trkpt>
      <trkpt lat="48.04742" lon="7.14034">
        <ele>528</ele>
        <time>2014-03-02T09:12:38Z</time>
      </trkpt>
      <trkpt lat="48.04748" lon="7.14028">
        <ele>526</ele>
        <time>2014-03-02T09:12:43Z</time>
      </trkpt>
      <trkpt lat="48.04755" lon="7.14021">
        <ele>529</ele>
        <time>2014-03-02T09:12:48Z</time>
      </trkpt>
      <trkpt lat="48.04763" lon="7.14018">
        <ele>526</ele>
        <time>2014-03-02T09:12:52Z</time>
      </trkpt>
      <trkpt lat="48.04773" lon="7.14012">
        <ele>527</ele>
        <time>2014-03-02T09:12:57Z</time>
      </trkpt>
      <trkpt lat="48.04783" lon="7.14003">
        <ele>530</ele>
        <time>2014-03-02T09:13:01Z</time>
      </trkpt>
      <trkpt lat="48.04792" lon="7.13994">
        <ele>535</ele>
        <time>2014-03-02T09:13:06Z</time>
      </trkpt>
      <trkpt lat="48.04803" lon="7.13987">
        <ele>534</ele>
        <time>2014-03-02T09:13:11Z</time>
      </trkpt>
      <trkpt lat="48.04811" lon="7.13981">
        <ele>530</ele>
        <time>2014-03-02T09:13:15Z</time>
      </trkpt>
      <trkpt lat="48.04819" lon="7.13976">
        <ele>529</ele>
        <time>2014-03-02T09:13:19Z</time>
      </trkpt>
      <trkpt lat="48.04827" lon="7.13973">
        <ele>526</ele>
        <time>2014-03-02T09:13:25Z</time>
      </trkpt>
      <trkpt lat="48.04842" lon="7.13969">
        <ele>519</ele>
        <time>2014-03-02T09:13:30Z</time>
      </trkpt>
      <trkpt lat="48.04853" lon="7.13964">
        <ele>522</ele>
        <time>2014-03-02T09:13:34Z</time>
      </trkpt>
      <trkpt lat="48.04867" lon="7.13957">
        <ele>525</ele>
        <time>2014-03-02T09:13:39Z</time>
      </trkpt>
      <trkpt lat="48.04879" lon="7.1395">
        <ele>525</ele>
        <time>2014-03-02T09:13:43Z</time>
      </trkpt>
      <trkpt lat="48.04891" lon="7.1394">
        <ele>528</ele>
        <time>2014-03-02T09:13:48Z</time>
      </trkpt>
      <trkpt lat="48.049" lon="7.13939">
        <ele>531</ele>
        <time>2014-03-02T09:13:52Z</time>
      </trkpt>
      <trkpt lat="48.04908" lon="7.13944">
        <ele>536</ele>
        <time>2014-03-02T09:13:59Z</time>
      </trkpt>
      <trkpt lat="48.04916" lon="7.13947">
        <ele>536</ele>
        <time>2014-03-02T09:14:04Z</time>
      </trkpt>
      <trkpt lat="48.04926" lon="7.1395">
        <ele>536</ele>
        <time>2014-03-02T09:14:09Z</time>
      </trkpt>
      <trkpt lat="48.04934" lon="7.13954">
        <ele>539</ele>
        <time>2014-03-02T09:14:13Z</time>
      </trkpt>
      <trkpt lat="48.04942" lon="7.13957">
        <ele>539</ele>
        <time>2014-03-02T09:14:17Z</time>
      </trkpt>
      <trkpt lat="48.04952" lon="7.13963">
        <ele>540</ele>
        <time>2014-03-02T09:14:22Z</time>
      </trkpt>
      <trkpt lat="48.04958" lon="7.13972">
        <ele>542</ele>
        <time>2014-03-02T09:14:26Z</time>
      </trkpt>
      <trkpt lat="48.04957" lon="7.13985">
        <ele>543</ele>
        <time>2014-03-02T09:14:31Z</time>
      </trkpt>
      <trkpt lat="48.04952" lon="7.13997">
        <ele>542</ele>
        <time>2014-03-02T09:14:36Z</time>
      </trkpt>
      <trkpt lat="48.04951" lon="7.14008">
        <ele>543</ele>
        <time>2014-03-02T09:14:40Z</time>
      </trkpt>
      <trkpt lat="48.04953" lon="7.14021">
        <ele>544</ele>
        <time>2014-03-02T09:14:45Z</time>
      </trkpt>
      <trkpt lat="48.04954" lon="7.14034">
        <ele>544</ele>
        <time>2014-03-02T09:14:50Z</time>
      </trkpt>
      <trkpt lat="48.04956" lon="7.14046">
        <ele>547</ele>
        <time>2014-03-02T09:14:55Z</time>
      </trkpt>
      <trkpt lat="48.04958" lon="7.14058">
        <ele>547</ele>
        <time>2014-03-02T09:15:00Z</time>
      </trkpt>
      <trkpt lat="48.0496" lon="7.14071">
        <ele>546</ele>
        <time>2014-03-02T09:15:05Z</time>
      </trkpt>
      <trkpt lat="48.04964" lon="7.14085">
        <ele>547</ele>
        <time>2014-03-02T09:15:10Z</time>
      </trkpt>
      <trkpt lat="48.04968" lon="7.14096">
        <ele>547</ele>
        <time>2014-03-02T09:15:14Z</time>
      </trkpt>
      <trkpt lat="48.04971" lon="7.14108">
        <ele>546</ele>
        <time>2014-03-02T09:15:18Z</time>
      </trkpt>
      <trkpt lat="48.04974" lon="7.14122">
        <ele>547</ele>
        <time>2014-03-02T09:15:23Z</time>
      </trkpt>
      <trkpt lat="48.04975" lon="7.14134">
        <ele>547</ele>
        <time>2014-03-02T09:15:28Z</time>
      </trkpt>
      <trkpt lat="48.0498" lon="7.1415">
        <ele>548</ele>
        <time>2014-03-02T09:15:31Z</time>
      </trkpt>
      <trkpt lat="48.05" lon="7.14167">
        <ele>545</ele>
        <time>2014-03-02T09:15:36Z</time>
      </trkpt>
      <trkpt lat="48.05031" lon="7.14177">
        <ele>546</ele>
        <time>2014-03-02T09:15:40Z</time>
      </trkpt>
      <trkpt lat="48.05051" lon="7.14192">
        <ele>545</ele>
        <time>2014-03-02T09:15:44Z</time>
      </trkpt>
      <trkpt lat="48.0506" lon="7.14198">
        <ele>546</ele>
        <time>2014-03-02T09:15:49Z</time>
      </trkpt>
      <trkpt lat="48.05069" lon="7.14203">
        <ele>546</ele>
        <time>2014-03-02T09:15:54Z</time>
      </trkpt>
      <trkpt lat="48.05077" lon="7.14205">
        <ele>547</ele>
        <time>2014-03-02T09:16:00Z</time>
      </trkpt>
      <trkpt lat="48.05085" lon="7.1421">
        <ele>549</ele>
        <time>2014-03-02T09:16:07Z</time>
      </trkpt>
      <trkpt lat="48.05093" lon="7.14212">
        <ele>552</ele>
        <time>2014-03-02T09:16:13Z</time>
      </trkpt>
      <trkpt lat="48.05101" lon="7.14214">
        <ele>549</ele>
        <time>2014-03-02T09:16:18Z</time>
      </trkpt>
      <trkpt lat="48.05109" lon="7.14216">
        <ele>551</ele>
        <time>2014-03-02T09:16:24Z</time>
      </trkpt>
      <trkpt lat="48.05118" lon="7.14215">
        <ele>555</ele>
        <time>2014-03-02T09:16:30Z</time>
      </trkpt>
      <trkpt lat="48.05125" lon="7.1421">
        <ele>553</ele>
        <time>2014-03-02T09:16:37Z</time>
      </trkpt>
      <trkpt lat="48.05129" lon="7.14198">
        <ele>557</ele>
        <time>2014-03-02T09:16:44Z</time>
      </trkpt>
      <trkpt lat="48.05134" lon="7.14188">
        <ele>558</ele>
        <time>2014-03-02T09:16:50Z</time>
      </trkpt>
      <trkpt lat="48.0514" lon="7.14178">
        <ele>562</ele>
        <time>2014-03-02T09:16:56Z</time>
      </trkpt>
      <trkpt lat="48.05146" lon="7.14169">
        <ele>565</ele>
        <time>2014-03-02T09:17:03Z</time>
      </trkpt>
      <trkpt lat="48.05151" lon="7.14159">
        <ele>569</ele>
        <time>2014-03-02T09:17:11Z</time>
      </trkpt>
      <trkpt lat="48.05159" lon="7.14152">
        <ele>565</ele>
        <time>2014-03-02T09:17:16Z</time>
      </trkpt>
      <trkpt lat="48.05166" lon="7.14142">
        <ele>566</ele>
        <time>2014-03-02T09:17:21Z</time>
      </trkpt>
      <trkpt lat="48.05171" lon="7.14134">
        <ele>568</ele>
        <time>2014-03-02T09:17:26Z</time>
      </trkpt>
      <trkpt lat="48.05176" lon="7.14125">
        <ele>570</ele>
        <time>2014-03-02T09:17:31Z</time>
      </trkpt>
      <trkpt lat="48.05181" lon="7.14116">
        <ele>571</ele>
        <time>2014-03-02T09:17:37Z</time>
      </trkpt>
      <trkpt lat="48.05189" lon="7.14113">
        <ele>574</ele>
        <time>2014-03-02T09:17:43Z</time>
      </trkpt>
      <trkpt lat="48.05197" lon="7.14119">
        <ele>574</ele>
        <time>2014-03-02T09:17:57Z</time>
      </trkpt>
      <trkpt lat="48.05194" lon="7.1413">
        <ele>575</ele>
        <time>2014-03-02T09:18:10Z</time>
      </trkpt>
      <trkpt lat="48.05193" lon="7.14143">
        <ele>578</ele>
        <time>2014-03-02T09:18:16Z</time>
      </trkpt>
      <trkpt lat="48.05194" lon="7.14155">
        <ele>580</ele>
        <time>2014-03-02T09:18:22Z</time>
      </trkpt>
      <trkpt lat="48.05197" lon="7.14166">
        <ele>581</ele>
        <time>2014-03-02T09:18:27Z</time>
      </trkpt>
      <trkpt lat="48.052" lon="7.14177">
        <ele>581</ele>
        <time>2014-03-02T09:18:32Z</time>
      </trkpt>
      <trkpt lat="48.05206" lon="7.14186">
        <ele>583</ele>
        <time>2014-03-02T09:18:38Z</time>
      </trkpt>
      <trkpt lat="48.05214" lon="7.14188">
        <ele>582</ele>
        <time>2014-03-02T09:18:43Z</time>
      </trkpt>
      <trkpt lat="48.05217" lon="7.14175">
        <ele>584</ele>
        <time>2014-03-02T09:18:49Z</time>
      </trkpt>
      <trkpt lat="48.05221" lon="7.14162">
        <ele>584</ele>
        <time>2014-03-02T09:18:54Z</time>
      </trkpt>
      <trkpt lat="48.05228" lon="7.14153">
        <ele>583</ele>
        <time>2014-03-02T09:18:59Z</time>
      </trkpt>
      <trkpt lat="48.05234" lon="7.14147">
        <ele>584</ele>
        <time>2014-03-02T09:19:03Z</time>
      </trkpt>
      <trkpt lat="48.05241" lon="7.14143">
        <ele>585</ele>
        <time>2014-03-02T09:19:07Z</time>
      </trkpt>
      <trkpt lat="48.0525" lon="7.14148">
        <ele>586</ele>
        <time>2014-03-02T09:19:12Z</time>
      </trkpt>
      <trkpt lat="48.05254" lon="7.14159">
        <ele>587</ele>
        <time>2014-03-02T09:19:18Z</time>
      </trkpt>
      <trkpt lat="48.05258" lon="7.1417">
        <ele>588</ele>
        <time>2014-03-02T09:19:23Z</time>
      </trkpt>
      <trkpt lat="48.05263" lon="7.14182">
        <ele>590</ele>
        <time>2014-03-02T09:19:28Z</time>
      </trkpt>
      <trkpt lat="48.05269" lon="7.14193">
        <ele>590</ele>
        <time>2014-03-02T09:19:33Z</time>
      </trkpt>
      <trkpt lat="48.05276" lon="7.14199">
        <ele>590</ele>
        <time>2014-03-02T09:19:37Z</time>
      </trkpt>
      <trkpt lat="48.05287" lon="7.14198">
        <ele>591</ele>
        <time>2014-03-02T09:19:42Z</time>
      </trkpt>
      <trkpt lat="48.05294" lon="7.14194">
        <ele>590</ele>
        <time>2014-03-02T09:19:46Z</time>
      </trkpt>
      <trkpt lat="48.05302" lon="7.14193">
        <ele>591</ele>
        <time>2014-03-02T09:19:51Z</time>
      </trkpt>
      <trkpt lat="48.05309" lon="7.14197">
        <ele>591</ele>
        <time>2014-03-02T09:19:56Z</time>
      </trkpt>
      <trkpt lat="48.05317" lon="7.142">
        <ele>593</ele>
        <time>2014-03-02T09:20:02Z</time>
      </trkpt>
      <trkpt lat="48.05325" lon="7.14198">
        <ele>594</ele>
        <time>2014-03-02T09:20:08Z</time>
      </trkpt>
      <trkpt lat="48.05333" lon="7.14196">
        <ele>596</ele>
        <time>2014-03-02T09:20:13Z</time>
      </trkpt>
      <trkpt lat="48.05341" lon="7.14191">
        <ele>598</ele>
        <time>2014-03-02T09:20:19Z</time>
      </trkpt>
      <trkpt lat="48.05349" lon="7.14192">
        <ele>599</ele>
        <time>2014-03-02T09:20:25Z</time>
      </trkpt>
      <trkpt lat="48.05358" lon="7.14195">
        <ele>599</ele>
        <time>2014-03-02T09:20:31Z</time>
      </trkpt>
      <trkpt lat="48.05366" lon="7.14196">
        <ele>605</ele>
        <time>2014-03-02T09:20:36Z</time>
      </trkpt>
      <trkpt lat="48.05373" lon="7.14196">
        <ele>608</ele>
        <time>2014-03-02T09:20:41Z</time>
      </trkpt>
      <trkpt lat="48.05381" lon="7.14196">
        <ele>609</ele>
        <time>2014-03-02T09:20:46Z</time>
      </trkpt>
      <trkpt lat="48.05389" lon="7.14198">
        <ele>609</ele>
        <time>2014-03-02T09:20:52Z</time>
      </trkpt>
      <trkpt lat="48.05397" lon="7.14202">
        <ele>606</ele>
        <time>2014-03-02T09:20:59Z</time>
      </trkpt>
      <trkpt lat="48.05405" lon="7.14206">
        <ele>608</ele>
        <time>2014-03-02T09:21:06Z</time>
      </trkpt>
      <trkpt lat="48.05413" lon="7.1421">
        <ele>608</ele>
        <time>2014-03-02T09:21:13Z</time>
      </trkpt>
      <trkpt lat="48.05421" lon="7.14213">
        <ele>608</ele>
        <time>2014-03-02T09:21:19Z</time>
      </trkpt>
      <trkpt lat="48.05429" lon="7.14217">
        <ele>611</ele>
        <time>2014-03-02T09:21:25Z</time>
      </trkpt>
      <trkpt lat="48.05437" lon="7.14221">
        <ele>610</ele>
        <time>2014-03-02T09:21:31Z</time>
      </trkpt>
      <trkpt lat="48.05444" lon="7.14227">
        <ele>613</ele>
        <time>2014-03-02T09:21:39Z</time>
      </trkpt>
      <trkpt lat="48.05452" lon="7.14233">
        <ele>618</ele>
        <time>2014-03-02T09:21:47Z</time>
      </trkpt>
      <trkpt lat="48.05459" lon="7.14233">
        <ele>623</ele>
        <time>2014-03-02T09:21:54Z</time>
      </trkpt>
      <trkpt lat="48.05467" lon="7.14238">
        <ele>628</ele>
        <time>2014-03-02T09:22:01Z</time>
      </trkpt>
      <trkpt lat="48.05474" lon="7.14244">
        <ele>631</ele>
        <time>2014-03-02T09:22:07Z</time>
      </trkpt>
      <trkpt lat="48.05483" lon="7.14249">
        <ele>634</ele>
        <time>2014-03-02T09:22:13Z</time>
      </trkpt>
      <trkpt lat="48.0549" lon="7.14254">
        <ele>639</ele>
        <time>2014-03-02T09:22:20Z</time>
      </trkpt>
      <trkpt lat="48.05498" lon="7.1426">
        <ele>645</ele>
        <time>2014-03-02T09:22:27Z</time>
      </trkpt>
      <trkpt lat="48.05504" lon="7.14267">
        <ele>646</ele>
        <time>2014-03-02T09:22:35Z</time>
      </trkpt>
      <trkpt lat="48.0551" lon="7.14277">
        <ele>641</ele>
        <time>2014-03-02T09:22:48Z</time>
      </trkpt>
      <trkpt lat="48.05515" lon="7.14285">
        <ele>640</ele>
        <time>2014-03-02T09:26:24Z</time>
      </trkpt>
      <trkpt lat="48.05521" lon="7.14296">
        <ele>640</ele>
        <time>2014-03-02T09:26:29Z</time>
      </trkpt>
      <trkpt lat="48.05527" lon="7.14309">
        <ele>640</ele>
        <time>2014-03-02T09:26:34Z</time>
      </trkpt>
      <trkpt lat="48.05532" lon="7.14319">
        <ele>643</ele>
        <time>2014-03-02T09:26:39Z</time>
      </trkpt>
      <trkpt lat="48.05538" lon="7.14332">
        <ele>644</ele>
        <time>2014-03-02T09:26:44Z</time>
      </trkpt>
      <trkpt lat="48.05543" lon="7.14341">
        <ele>645</ele>
        <time>2014-03-02T09:26:48Z</time>
      </trkpt>
      <trkpt lat="48.05549" lon="7.1435">
        <ele>645</ele>
        <time>2014-03-02T09:26:54Z</time>
      </trkpt>
      <trkpt lat="48.05554" lon="7.1436">
        <ele>641</ele>
        <time>2014-03-02T09:26:59Z</time>
      </trkpt>
      <trkpt lat="48.05557" lon="7.14372">
        <ele>638</ele>
        <time>2014-03-02T09:27:04Z</time>
      </trkpt>
      <trkpt lat="48.05557" lon="7.14385">
        <ele>636</ele>
        <time>2014-03-02T09:27:09Z</time>
      </trkpt>
      <trkpt lat="48.05557" lon="7.144">
        <ele>634</ele>
        <time>2014-03-02T09:27:14Z</time>
      </trkpt>
      <trkpt lat="48.05558" lon="7.14413">
        <ele>637</ele>
        <time>2014-03-02T09:27:20Z</time>
      </trkpt>
      <trkpt lat="48.05559" lon="7.14424">
        <ele>633</ele>
        <time>2014-03-02T09:27:26Z</time>
      </trkpt>
      <trkpt lat="48.05556" lon="7.14435">
        <ele>631</ele>
        <time>2014-03-02T09:27:32Z</time>
      </trkpt>
      <trkpt lat="48.05562" lon="7.14453">
        <ele>630</ele>
        <time>2014-03-02T09:27:36Z</time>
      </trkpt>
      <trkpt lat="48.05565" lon="7.14467">
        <ele>632</ele>
        <time>2014-03-02T09:27:41Z</time>
      </trkpt>
      <trkpt lat="48.05569" lon="7.14483">
        <ele>631</ele>
        <time>2014-03-02T09:27:46Z</time>
      </trkpt>
      <trkpt lat="48.05568" lon="7.14495">
        <ele>632</ele>
        <time>2014-03-02T09:27:50Z</time>
      </trkpt>
      <trkpt lat="48.05568" lon="7.14509">
        <ele>630</ele>
        <time>2014-03-02T09:27:55Z</time>
      </trkpt>
      <trkpt lat="48.05568" lon="7.14523">
        <ele>633</ele>
        <time>2014-03-02T09:28:00Z</time>
      </trkpt>
      <trkpt lat="48.05567" lon="7.14536">
        <ele>632</ele>
        <time>2014-03-02T09:28:05Z</time>
      </trkpt>
      <trkpt lat="48.05567" lon="7.14548">
        <ele>630</ele>
        <time>2014-03-02T09:28:09Z</time>
      </trkpt>
      <trkpt lat="48.05562" lon="7.14561">
        <ele>632</ele>
        <time>2014-03-02T09:28:14Z</time>
      </trkpt>
      <trkpt lat="48.0556" lon="7.14573">
        <ele>644</ele>
        <time>2014-03-02T09:28:22Z</time>
      </trkpt>
      <trkpt lat="48.05565" lon="7.14583">
        <ele>646</ele>
        <time>2014-03-02T09:28:32Z</time>
      </trkpt>
      <trkpt lat="48.05562" lon="7.14595">
        <ele>651</ele>
        <time>2014-03-02T09:35:34Z</time>
      </trkpt>
      <trkpt lat="48.05568" lon="7.14589">
        <ele>653</ele>
        <time>2014-03-02T09:35:41Z</time>
      </trkpt>
      <trkpt lat="48.05574" lon="7.1458">
        <ele>653</ele>
        <time>2014-03-02T09:35:45Z</time>
      </trkpt>
      <trkpt lat="48.05574" lon="7.14565">
        <ele>657</ele>
        <time>2014-03-02T09:35:50Z</time>
      </trkpt>
      <trkpt lat="48.05575" lon="7.14552">
        <ele>658</ele>
        <time>2014-03-02T09:35:55Z</time>
      </trkpt>
      <trkpt lat="48.05575" lon="7.14538">
        <ele>658</ele>
        <time>2014-03-02T09:36:00Z</time>
      </trkpt>
      <trkpt lat="48.05575" lon="7.14523">
        <ele>658</ele>
        <time>2014-03-02T09:36:04Z</time>
      </trkpt>
      <trkpt lat="48.05577" lon="7.14511">
        <ele>658</ele>
        <time>2014-03-02T09:36:09Z</time>
      </trkpt>
      <trkpt lat="48.05583" lon="7.14497">
        <ele>658</ele>
        <time>2014-03-02T09:36:14Z</time>
      </trkpt>
      <trkpt lat="48.05587" lon="7.14483">
        <ele>660</ele>
        <time>2014-03-02T09:36:19Z</time>
      </trkpt>
      <trkpt lat="48.05591" lon="7.14473">
        <ele>660</ele>
        <time>2014-03-02T09:36:23Z</time>
      </trkpt>
      <trkpt lat="48.05595" lon="7.1446">
        <ele>660</ele>
        <time>2014-03-02T09:36:28Z</time>
      </trkpt>
      <trkpt lat="48.056" lon="7.14449">
        <ele>659</ele>
        <time>2014-03-02T09:36:32Z</time>
      </trkpt>
      <trkpt lat="48.05604" lon="7.1444">
        <ele>660</ele>
        <time>2014-03-02T09:36:36Z</time>
      </trkpt>
      <trkpt lat="48.05607" lon="7.14429">
        <ele>661</ele>
        <time>2014-03-02T09:36:40Z</time>
      </trkpt>
      <trkpt lat="48.05608" lon="7.14417">
        <ele>664</ele>
        <time>2014-03-02T09:36:44Z</time>
      </trkpt>
      <trkpt lat="48.05608" lon="7.14404">
        <ele>666</ele>
        <time>2014-03-02T09:36:48Z</time>
      </trkpt>
      <trkpt lat="48.05609" lon="7.14391">
        <ele>666</ele>
        <time>2014-03-02T09:36:52Z</time>
      </trkpt>
      <trkpt lat="48.0561" lon="7.14375">
        <ele>668</ele>
        <time>2014-03-02T09:36:57Z</time>
      </trkpt>
      <trkpt lat="48.05618" lon="7.14365">
        <ele>668</ele>
        <time>2014-03-02T09:37:02Z</time>
      </trkpt>
      <trkpt lat="48.05625" lon="7.14355">
        <ele>667</ele>
        <time>2014-03-02T09:37:06Z</time>
      </trkpt>
      <trkpt lat="48.05627" lon="7.14339">
        <ele>669</ele>
        <time>2014-03-02T09:37:10Z</time>
      </trkpt>
      <trkpt lat="48.05625" lon="7.14324">
        <ele>668</ele>
        <time>2014-03-02T09:37:14Z</time>
      </trkpt>
      <trkpt lat="48.0562" lon="7.14307">
        <ele>668</ele>
        <time>2014-03-02T09:37:18Z</time>
      </trkpt>
      <trkpt lat="48.05618" lon="7.14287">
        <ele>664</ele>
        <time>2014-03-02T09:37:23Z</time>
      </trkpt>
      <trkpt lat="48.05615" lon="7.14272">
        <ele>663</ele>
        <time>2014-03-02T09:37:27Z</time>
      </trkpt>
      <trkpt lat="48.05608" lon="7.14259">
        <ele>663</ele>
        <time>2014-03-02T09:37:31Z</time>
      </trkpt>
      <trkpt lat="48.05605" lon="7.14236">
        <ele>664</ele>
        <time>2014-03-02T09:37:35Z</time>
      </trkpt>
      <trkpt lat="48.05602" lon="7.14209">
        <ele>664</ele>
        <time>2014-03-02T09:37:40Z</time>
      </trkpt>
      <trkpt lat="48.05601" lon="7.14188">
        <ele>664</ele>
        <time>2014-03-02T09:37:44Z</time>
      </trkpt>
      <trkpt lat="48.05602" lon="7.14161">
        <ele>663</ele>
        <time>2014-03-02T09:37:49Z</time>
      </trkpt>
      <trkpt lat="48.05602" lon="7.1414">
        <ele>663</ele>
        <time>2014-03-02T09:37:53Z</time>
      </trkpt>
      <trkpt lat="48.05606" lon="7.14121">
        <ele>663</ele>
        <time>2014-03-02T09:37:57Z</time>
      </trkpt>
      <trkpt lat="48.05614" lon="7.14096">
        <ele>665</ele>
        <time>2014-03-02T09:38:02Z</time>
      </trkpt>
      <trkpt lat="48.05632" lon="7.14079">
        <ele>664</ele>
        <time>2014-03-02T09:38:06Z</time>
      </trkpt>
      <trkpt lat="48.05651" lon="7.14075">
        <ele>664</ele>
        <time>2014-03-02T09:38:10Z</time>
      </trkpt>
      <trkpt lat="48.05675" lon="7.14083">
        <ele>663</ele>
        <time>2014-03-02T09:38:15Z</time>
      </trkpt>
      <trkpt lat="48.05694" lon="7.14091">
        <ele>662</ele>
        <time>2014-03-02T09:38:19Z</time>
      </trkpt>
      <trkpt lat="48.05711" lon="7.14104">
        <ele>659</ele>
        <time>2014-03-02T09:38:23Z</time>
      </trkpt>
      <trkpt lat="48.05734" lon="7.14121">
        <ele>658</ele>
        <time>2014-03-02T09:38:28Z</time>
      </trkpt>
      <trkpt lat="48.05754" lon="7.14134">
        <ele>655</ele>
        <time>2014-03-02T09:38:32Z</time>
      </trkpt>
      <trkpt lat="48.05776" lon="7.1415">
        <ele>654</ele>
        <time>2014-03-02T09:38:37Z</time>
      </trkpt>
      <trkpt lat="48.05798" lon="7.14159">
        <ele>655</ele>
        <time>2014-03-02T09:38:42Z</time>
      </trkpt>
      <trkpt lat="48.05817" lon="7.14161">
        <ele>657</ele>
        <time>2014-03-02T09:38:46Z</time>
      </trkpt>
      <trkpt lat="48.05836" lon="7.14159">
        <ele>658</ele>
        <time>2014-03-02T09:38:50Z</time>
      </trkpt>
      <trkpt lat="48.05856" lon="7.14157">
        <ele>658</ele>
        <time>2014-03-02T09:38:54Z</time>
      </trkpt>
      <trkpt lat="48.05878" lon="7.14161">
        <ele>657</ele>
        <time>2014-03-02T09:38:58Z</time>
      </trkpt>
      <trkpt lat="48.05898" lon="7.14168">
        <ele>658</ele>
        <time>2014-03-02T09:39:02Z</time>
      </trkpt>
      <trkpt lat="48.05923" lon="7.14178">
        <ele>658</ele>
        <time>2014-03-02T09:39:07Z</time>
      </trkpt>
      <trkpt lat="48.05943" lon="7.14187">
        <ele>659</ele>
        <time>2014-03-02T09:39:12Z</time>
      </trkpt>
      <trkpt lat="48.05959" lon="7.14195">
        <ele>659</ele>
        <time>2014-03-02T09:39:16Z</time>
      </trkpt>
      <trkpt lat="48.05974" lon="7.14196">
        <ele>659</ele>
        <time>2014-03-02T09:39:20Z</time>
      </trkpt>
      <trkpt lat="48.05988" lon="7.14193">
        <ele>659</ele>
        <time>2014-03-02T09:39:24Z</time>
      </trkpt>
      <trkpt lat="48.06003" lon="7.14187">
        <ele>665</ele>
        <time>2014-03-02T09:39:28Z</time>
      </trkpt>
      <trkpt lat="48.06018" lon="7.14178">
        <ele>667</ele>
        <time>2014-03-02T09:39:32Z</time>
      </trkpt>
      <trkpt lat="48.06038" lon="7.14174">
        <ele>668</ele>
        <time>2014-03-02T09:39:37Z</time>
      </trkpt>
      <trkpt lat="48.06053" lon="7.14169">
        <ele>668</ele>
        <time>2014-03-02T09:39:41Z</time>
      </trkpt>
      <trkpt lat="48.06066" lon="7.14162">
        <ele>669</ele>
        <time>2014-03-02T09:39:45Z</time>
      </trkpt>
      <trkpt lat="48.06078" lon="7.14153">
        <ele>669</ele>
        <time>2014-03-02T09:39:48Z</time>
      </trkpt>
      <trkpt lat="48.06086" lon="7.1414">
        <ele>671</ele>
        <time>2014-03-02T09:39:52Z</time>
      </trkpt>
      <trkpt lat="48.06089" lon="7.14125">
        <ele>670</ele>
        <time>2014-03-02T09:39:57Z</time>
      </trkpt>
      <trkpt lat="48.06087" lon="7.14101">
        <ele>670</ele>
        <time>2014-03-02T09:40:02Z</time>
      </trkpt>
      <trkpt lat="48.06084" lon="7.14082">
        <ele>672</ele>
        <time>2014-03-02T09:40:06Z</time>
      </trkpt>
      <trkpt lat="48.06079" lon="7.1406">
        <ele>677</ele>
        <time>2014-03-02T09:40:10Z</time>
      </trkpt>
      <trkpt lat="48.06077" lon="7.14038">
        <ele>678</ele>
        <time>2014-03-02T09:40:13Z</time>
      </trkpt>
      <trkpt lat="48.06076" lon="7.14015">
        <ele>676</ele>
        <time>2014-03-02T09:40:18Z</time>
      </trkpt>
      <trkpt lat="48.06072" lon="7.13991">
        <ele>677</ele>
        <time>2014-03-02T09:40:22Z</time>
      </trkpt>
      <trkpt lat="48.06068" lon="7.13963">
        <ele>676</ele>
        <time>2014-03-02T09:40:26Z</time>
      </trkpt>
      <trkpt lat="48.06064" lon="7.13937">
        <ele>675</ele>
        <time>2014-03-02T09:40:31Z</time>
      </trkpt>
      <trkpt lat="48.06058" lon="7.13912">
        <ele>673</ele>
        <time>2014-03-02T09:40:35Z</time>
      </trkpt>
      <trkpt lat="48.06051" lon="7.13888">
        <ele>672</ele>
        <time>2014-03-02T09:40:39Z</time>
      </trkpt>
      <trkpt lat="48.06042" lon="7.13866">
        <ele>671</ele>
        <time>2014-03-02T09:40:43Z</time>
      </trkpt>
      <trkpt lat="48.06031" lon="7.13846">
        <ele>674</ele>
        <time>2014-03-02T09:40:47Z</time>
      </trkpt>
      <trkpt lat="48.06017" lon="7.1382">
        <ele>674</ele>
        <time>2014-03-02T09:40:52Z</time>
      </trkpt>
      <trkpt lat="48.0601" lon="7.13798">
        <ele>674</ele>
        <time>2014-03-02T09:40:56Z</time>
      </trkpt>
      <trkpt lat="48.06013" lon="7.13771">
        <ele>674</ele>
        <time>2014-03-02T09:41:01Z</time>
      </trkpt>
      <trkpt lat="48.06012" lon="7.13747">
        <ele>675</ele>
        <time>2014-03-02T09:41:06Z</time>
      </trkpt>
      <trkpt lat="48.0601" lon="7.13728">
        <ele>677</ele>
        <time>2014-03-02T09:41:10Z</time>
      </trkpt>
      <trkpt lat="48.06009" lon="7.13711">
        <ele>676</ele>
        <time>2014-03-02T09:41:15Z</time>
      </trkpt>
      <trkpt lat="48.06008" lon="7.13698">
        <ele>677</ele>
        <time>2014-03-02T09:41:20Z</time>
      </trkpt>
      <trkpt lat="48.06004" lon="7.13687">
        <ele>679</ele>
        <time>2014-03-02T09:41:25Z</time>
      </trkpt>
      <trkpt lat="48.06001" lon="7.13675">
        <ele>680</ele>
        <time>2014-03-02T09:41:33Z</time>
      </trkpt>
      <trkpt lat="48.05998" lon="7.13665">
        <ele>683</ele>
        <time>2014-03-02T09:41:39Z</time>
      </trkpt>
      <trkpt lat="48.05993" lon="7.13653">
        <ele>686</ele>
        <time>2014-03-02T09:41:44Z</time>
      </trkpt>
      <trkpt lat="48.05988" lon="7.13642">
        <ele>688</ele>
        <time>2014-03-02T09:41:50Z</time>
      </trkpt>
      <trkpt lat="48.05985" lon="7.13631">
        <ele>688</ele>
        <time>2014-03-02T09:41:55Z</time>
      </trkpt>
      <trkpt lat="48.05981" lon="7.13619">
        <ele>691</ele>
        <time>2014-03-02T09:42:01Z</time>
      </trkpt>
      <trkpt lat="48.0598" lon="7.13606">
        <ele>692</ele>
        <time>2014-03-02T09:42:07Z</time>
      </trkpt>
      <trkpt lat="48.05982" lon="7.13594">
        <ele>692</ele>
        <time>2014-03-02T09:42:12Z</time>
      </trkpt>
      <trkpt lat="48.05984" lon="7.13582">
        <ele>694</ele>
        <time>2014-03-02T09:42:18Z</time>
      </trkpt>
      <trkpt lat="48.05992" lon="7.13577">
        <ele>696</ele>
        <time>2014-03-02T09:42:26Z</time>
      </trkpt>
      <trkpt lat="48.06" lon="7.13579">
        <ele>696</ele>
        <time>2014-03-02T09:42:32Z</time>
      </trkpt>
      <trkpt lat="48.06002" lon="7.13592">
        <ele>696</ele>
        <time>2014-03-02T09:42:45Z</time>
      </trkpt>
      <trkpt lat="48.06003" lon="7.13605">
        <ele>697</ele>
        <time>2014-03-02T09:42:51Z</time>
      </trkpt>
      <trkpt lat="48.06005" lon="7.13616">
        <ele>698</ele>
        <time>2014-03-02T09:42:56Z</time>
      </trkpt>
      <trkpt lat="48.06009" lon="7.13626">
        <ele>699</ele>
        <time>2014-03-02T09:43:00Z</time>
      </trkpt>
      <trkpt lat="48.06014" lon="7.13635">
        <ele>701</ele>
        <time>2014-03-02T09:43:06Z</time>
      </trkpt>
      <trkpt lat="48.0602" lon="7.13643">
        <ele>702</ele>
        <time>2014-03-02T09:43:11Z</time>
      </trkpt>
      <trkpt lat="48.06027" lon="7.13648">
        <ele>703</ele>
        <time>2014-03-02T09:43:17Z</time>
      </trkpt>
      <trkpt lat="48.06036" lon="7.13647">
        <ele>704</ele>
        <time>2014-03-02T09:43:24Z</time>
      </trkpt>
      <trkpt lat="48.06043" lon="7.13651">
        <ele>704</ele>
        <time>2014-03-02T09:43:29Z</time>
      </trkpt>
      <trkpt lat="48.06051" lon="7.13654">
        <ele>705</ele>
        <time>2014-03-02T09:43:34Z</time>
      </trkpt>
      <trkpt lat="48.06058" lon="7.13662">
        <ele>706</ele>
        <time>2014-03-02T09:43:39Z</time>
      </trkpt>
      <trkpt lat="48.06065" lon="7.13671">
        <ele>708</ele>
        <time>2014-03-02T09:43:44Z</time>
      </trkpt>
      <trkpt lat="48.06071" lon="7.13683">
        <ele>709</ele>
        <time>2014-03-02T09:43:49Z</time>
      </trkpt>
      <trkpt lat="48.06075" lon="7.13693">
        <ele>709</ele>
        <time>2014-03-02T09:43:53Z</time>
      </trkpt>
      <trkpt lat="48.0608" lon="7.13707">
        <ele>710</ele>
        <time>2014-03-02T09:43:58Z</time>
      </trkpt>
      <trkpt lat="48.06084" lon="7.13718">
        <ele>711</ele>
        <time>2014-03-02T09:44:02Z</time>
      </trkpt>
      <trkpt lat="48.06088" lon="7.13729">
        <ele>713</ele>
        <time>2014-03-02T09:44:06Z</time>
      </trkpt>
      <trkpt lat="48.06091" lon="7.13739">
        <ele>714</ele>
        <time>2014-03-02T09:44:10Z</time>
      </trkpt>
      <trkpt lat="48.06095" lon="7.13751">
        <ele>715</ele>
        <time>2014-03-02T09:44:14Z</time>
      </trkpt>
      <trkpt lat="48.06099" lon="7.13763">
        <ele>716</ele>
        <time>2014-03-02T09:44:18Z</time>
      </trkpt>
      <trkpt lat="48.06103" lon="7.13779">
        <ele>717</ele>
        <time>2014-03-02T09:44:23Z</time>
      </trkpt>
      <trkpt lat="48.06108" lon="7.13795">
        <ele>719</ele>
        <time>2014-03-02T09:44:28Z</time>
      </trkpt>
      <trkpt lat="48.06111" lon="7.13807">
        <ele>720</ele>
        <time>2014-03-02T09:44:32Z</time>
      </trkpt>
      <trkpt lat="48.06115" lon="7.1382">
        <ele>721</ele>
        <time>2014-03-02T09:44:36Z</time>
      </trkpt>
      <trkpt lat="48.0612" lon="7.13833">
        <ele>724</ele>
        <time>2014-03-02T09:44:40Z</time>
      </trkpt>
      <trkpt lat="48.06124" lon="7.13846">
        <ele>725</ele>
        <time>2014-03-02T09:44:44Z</time>
      </trkpt>
      <trkpt lat="48.06128" lon="7.13863">
        <ele>725</ele>
        <time>2014-03-02T09:44:49Z</time>
      </trkpt>
      <trkpt lat="48.06132" lon="7.13877">
        <ele>725</ele>
        <time>2014-03-02T09:44:53Z</time>
      </trkpt>
      <trkpt lat="48.06135" lon="7.13891">
        <ele>726</ele>
        <time>2014-03-02T09:44:57Z</time>
      </trkpt>
      <trkpt lat="48.06137" lon="7.13906">
        <ele>726</ele>
        <time>2014-03-02T09:45:01Z</time>
      </trkpt>
      <trkpt lat="48.06138" lon="7.13921">
        <ele>726</ele>
        <time>2014-03-02T09:45:05Z</time>
      </trkpt>
      <trkpt lat="48.06139" lon="7.13939">
        <ele>726</ele>
        <time>2014-03-02T09:45:10Z</time>
      </trkpt>
      <trkpt lat="48.06144" lon="7.13953">
        <ele>727</ele>
        <time>2014-03-02T09:45:14Z</time>
      </trkpt>
      <trkpt lat="48.06148" lon="7.13972">
        <ele>726</ele>
        <time>2014-03-02T09:45:19Z</time>
      </trkpt>
      <trkpt lat="48.06152" lon="7.13991">
        <ele>726</ele>
        <time>2014-03-02T09:45:22Z</time>
      </trkpt>
      <trkpt lat="48.06155" lon="7.14009">
        <ele>726</ele>
        <time>2014-03-02T09:45:26Z</time>
      </trkpt>
      <trkpt lat="48.06158" lon="7.14026">
        <ele>727</ele>
        <time>2014-03-02T09:45:31Z</time>
      </trkpt>
      <trkpt lat="48.06165" lon="7.14044">
        <ele>727</ele>
        <time>2014-03-02T09:45:35Z</time>
      </trkpt>
      <trkpt lat="48.06172" lon="7.14063">
        <ele>727</ele>
        <time>2014-03-02T09:45:39Z</time>
      </trkpt>
      <trkpt lat="48.06179" lon="7.14081">
        <ele>729</ele>
        <time>2014-03-02T09:45:43Z</time>
      </trkpt>
      <trkpt lat="48.06186" lon="7.14094">
        <ele>729</ele>
        <time>2014-03-02T09:45:47Z</time>
      </trkpt>
      <trkpt lat="48.06192" lon="7.14105">
        <ele>730</ele>
        <time>2014-03-02T09:45:51Z</time>
      </trkpt>
      <trkpt lat="48.06199" lon="7.14116">
        <ele>734</ele>
        <time>2014-03-02T09:45:56Z</time>
      </trkpt>
      <trkpt lat="48.06206" lon="7.14124">
        <ele>739</ele>
        <time>2014-03-02T09:46:03Z</time>
      </trkpt>
      <trkpt lat="48.06209" lon="7.14135">
        <ele>736</ele>
        <time>2014-03-02T09:46:07Z</time>
      </trkpt>
      <trkpt lat="48.06211" lon="7.14147">
        <ele>740</ele>
        <time>2014-03-02T09:46:15Z</time>
      </trkpt>
      <trkpt lat="48.06214" lon="7.14159">
        <ele>740</ele>
        <time>2014-03-02T09:46:20Z</time>
      </trkpt>
      <trkpt lat="48.06212" lon="7.1417">
        <ele>741</ele>
        <time>2014-03-02T09:46:25Z</time>
      </trkpt>
      <trkpt lat="48.06212" lon="7.14183">
        <ele>742</ele>
        <time>2014-03-02T09:46:30Z</time>
      </trkpt>
      <trkpt lat="48.06213" lon="7.14195">
        <ele>744</ele>
        <time>2014-03-02T09:46:34Z</time>
      </trkpt>
      <trkpt lat="48.06214" lon="7.14211">
        <ele>743</ele>
        <time>2014-03-02T09:46:39Z</time>
      </trkpt>
      <trkpt lat="48.06216" lon="7.14223">
        <ele>745</ele>
        <time>2014-03-02T09:46:43Z</time>
      </trkpt>
      <trkpt lat="48.06217" lon="7.14234">
        <ele>747</ele>
        <time>2014-03-02T09:46:47Z</time>
      </trkpt>
      <trkpt lat="48.06216" lon="7.14249">
        <ele>746</ele>
        <time>2014-03-02T09:46:52Z</time>
      </trkpt>
      <trkpt lat="48.06216" lon="7.14262">
        <ele>745</ele>
        <time>2014-03-02T09:46:56Z</time>
      </trkpt>
      <trkpt lat="48.06217" lon="7.14278">
        <ele>744</ele>
        <time>2014-03-02T09:47:01Z</time>
      </trkpt>
      <trkpt lat="48.06216" lon="7.14295">
        <ele>744</ele>
        <time>2014-03-02T09:47:05Z</time>
      </trkpt>
      <trkpt lat="48.06213" lon="7.14313">
        <ele>745</ele>
        <time>2014-03-02T09:47:09Z</time>
      </trkpt>
      <trkpt lat="48.0621" lon="7.14331">
        <ele>745</ele>
        <time>2014-03-02T09:47:13Z</time>
      </trkpt>
      <trkpt lat="48.06207" lon="7.1435">
        <ele>745</ele>
        <time>2014-03-02T09:47:17Z</time>
      </trkpt>
      <trkpt lat="48.06202" lon="7.14372">
        <ele>744</ele>
        <time>2014-03-02T09:47:22Z</time>
      </trkpt>
      <trkpt lat="48.06197" lon="7.14395">
        <ele>745</ele>
        <time>2014-03-02T09:47:27Z</time>
      </trkpt>
      <trkpt lat="48.062" lon="7.14413">
        <ele>746</ele>
        <time>2014-03-02T09:47:31Z</time>
      </trkpt>
      <trkpt lat="48.06207" lon="7.14428">
        <ele>748</ele>
        <time>2014-03-02T09:47:35Z</time>
      </trkpt>
      <trkpt lat="48.06214" lon="7.14448">
        <ele>747</ele>
        <time>2014-03-02T09:47:40Z</time>
      </trkpt>
      <trkpt lat="48.06223" lon="7.14472">
        <ele>745</ele>
        <time>2014-03-02T09:47:45Z</time>
      </trkpt>
      <trkpt lat="48.06235" lon="7.14488">
        <ele>744</ele>
        <time>2014-03-02T09:47:49Z</time>
      </trkpt>
      <trkpt lat="48.06251" lon="7.14498">
        <ele>742</ele>
        <time>2014-03-02T09:47:53Z</time>
      </trkpt>
      <trkpt lat="48.06267" lon="7.14493">
        <ele>745</ele>
        <time>2014-03-02T09:47:57Z</time>
      </trkpt>
      <trkpt lat="48.0628" lon="7.14491">
        <ele>750</ele>
        <time>2014-03-02T09:48:02Z</time>
      </trkpt>
      <trkpt lat="48.0629" lon="7.14491">
        <ele>752</ele>
        <time>2014-03-02T09:48:06Z</time>
      </trkpt>
      <trkpt lat="48.06299" lon="7.14483">
        <ele>755</ele>
        <time>2014-03-02T09:48:10Z</time>
      </trkpt>
      <trkpt lat="48.06315" lon="7.14473">
        <ele>757</ele>
        <time>2014-03-02T09:48:15Z</time>
      </trkpt>
      <trkpt lat="48.06333" lon="7.14466">
        <ele>759</ele>
        <time>2014-03-02T09:48:20Z</time>
      </trkpt>
      <trkpt lat="48.06349" lon="7.14455">
        <ele>758</ele>
        <time>2014-03-02T09:48:24Z</time>
      </trkpt>
      <trkpt lat="48.06357" lon="7.14453">
        <ele>758</ele>
        <time>2014-03-02T09:48:30Z</time>
      </trkpt>
      <trkpt lat="48.06349" lon="7.14457">
        <ele>759</ele>
        <time>2014-03-02T09:48:47Z</time>
      </trkpt>
      <trkpt lat="48.06341" lon="7.14455">
        <ele>760</ele>
        <time>2014-03-02T09:48:52Z</time>
      </trkpt>
      <trkpt lat="48.06333" lon="7.14453">
        <ele>764</ele>
        <time>2014-03-02T09:48:58Z</time>
      </trkpt>
      <trkpt lat="48.06325" lon="7.14452">
        <ele>767</ele>
        <time>2014-03-02T09:49:03Z</time>
      </trkpt>
      <trkpt lat="48.06316" lon="7.14451">
        <ele>767</ele>
        <time>2014-03-02T09:49:09Z</time>
      </trkpt>
      <trkpt lat="48.06308" lon="7.14449">
        <ele>766</ele>
        <time>2014-03-02T09:49:48Z</time>
      </trkpt>
      <trkpt lat="48.063" lon="7.14446">
        <ele>767</ele>
        <time>2014-03-02T09:51:03Z</time>
      </trkpt>
      <trkpt lat="48.06293" lon="7.14437">
        <ele>767</ele>
        <time>2014-03-02T09:51:10Z</time>
      </trkpt>
      <trkpt lat="48.06292" lon="7.14424">
        <ele>776</ele>
        <time>2014-03-02T09:51:28Z</time>
      </trkpt>
      <trkpt lat="48.06297" lon="7.14415">
        <ele>774</ele>
        <time>2014-03-02T09:51:41Z</time>
      </trkpt>
      <trkpt lat="48.06305" lon="7.14408">
        <ele>774</ele>
        <time>2014-03-02T09:51:46Z</time>
      </trkpt>
      <trkpt lat="48.06312" lon="7.14404">
        <ele>775</ele>
        <time>2014-03-02T09:51:51Z</time>
      </trkpt>
      <trkpt lat="48.0632" lon="7.144">
        <ele>780</ele>
        <time>2014-03-02T09:51:58Z</time>
      </trkpt>
      <trkpt lat="48.06328" lon="7.14395">
        <ele>784</ele>
        <time>2014-03-02T09:52:07Z</time>
      </trkpt>
      <trkpt lat="48.06337" lon="7.14394">
        <ele>784</ele>
        <time>2014-03-02T09:52:17Z</time>
      </trkpt>
      <trkpt lat="48.06345" lon="7.14389">
        <ele>785</ele>
        <time>2014-03-02T09:52:25Z</time>
      </trkpt>
      <trkpt lat="48.06353" lon="7.14385">
        <ele>787</ele>
        <time>2014-03-02T09:52:33Z</time>
      </trkpt>
      <trkpt lat="48.0636" lon="7.1438">
        <ele>786</ele>
        <time>2014-03-02T09:52:38Z</time>
      </trkpt>
      <trkpt lat="48.06356" lon="7.14373">
        <ele>790</ele>
        <time>2014-03-02T09:52:59Z</time>
      </trkpt>
      <trkpt lat="48.06347" lon="7.14369">
        <ele>790</ele>
        <time>2014-03-02T09:53:03Z</time>
      </trkpt>
      <trkpt lat="48.0634" lon="7.14362">
        <ele>789</ele>
        <time>2014-03-02T09:53:07Z</time>
      </trkpt>
      <trkpt lat="48.06331" lon="7.14349">
        <ele>786</ele>
        <time>2014-03-02T09:53:12Z</time>
      </trkpt>
      <trkpt lat="48.06322" lon="7.1434">
        <ele>785</ele>
        <time>2014-03-02T09:53:17Z</time>
      </trkpt>
      <trkpt lat="48.06316" lon="7.14331">
        <ele>784</ele>
        <time>2014-03-02T09:53:20Z</time>
      </trkpt>
      <trkpt lat="48.06311" lon="7.14315">
        <ele>788</ele>
        <time>2014-03-02T09:53:25Z</time>
      </trkpt>
      <trkpt lat="48.06302" lon="7.14282">
        <ele>786</ele>
        <time>2014-03-02T09:53:30Z</time>
      </trkpt>
      <trkpt lat="48.06302" lon="7.14268">
        <ele>787</ele>
        <time>2014-03-02T09:53:34Z</time>
      </trkpt>
      <trkpt lat="48.06304" lon="7.1425">
        <ele>789</ele>
        <time>2014-03-02T09:53:39Z</time>
      </trkpt>
      <trkpt lat="48.06306" lon="7.14231">
        <ele>789</ele>
        <time>2014-03-02T09:53:44Z</time>
      </trkpt>
      <trkpt lat="48.06309" lon="7.14214">
        <ele>787</ele>
        <time>2014-03-02T09:53:48Z</time>
      </trkpt>
      <trkpt lat="48.06315" lon="7.14195">
        <ele>787</ele>
        <time>2014-03-02T09:53:52Z</time>
      </trkpt>
      <trkpt lat="48.06318" lon="7.14172">
        <ele>786</ele>
        <time>2014-03-02T09:53:57Z</time>
      </trkpt>
      <trkpt lat="48.06317" lon="7.14159">
        <ele>787</ele>
        <time>2014-03-02T09:54:16Z</time>
      </trkpt>
      <trkpt lat="48.06316" lon="7.14117">
        <ele>789</ele>
        <time>2014-03-02T09:54:30Z</time>
      </trkpt>
      <trkpt lat="48.06317" lon="7.14104">
        <ele>790</ele>
        <time>2014-03-02T09:54:44Z</time>
      </trkpt>
      <trkpt lat="48.06316" lon="7.14092">
        <ele>791</ele>
        <time>2014-03-02T09:54:53Z</time>
      </trkpt>
      <trkpt lat="48.06318" lon="7.1408">
        <ele>790</ele>
        <time>2014-03-02T09:55:18Z</time>
      </trkpt>
      <trkpt lat="48.06317" lon="7.14067">
        <ele>792</ele>
        <time>2014-03-02T09:55:23Z</time>
      </trkpt>
      <trkpt lat="48.06318" lon="7.1405">
        <ele>792</ele>
        <time>2014-03-02T09:55:28Z</time>
      </trkpt>
      <trkpt lat="48.06319" lon="7.14037">
        <ele>793</ele>
        <time>2014-03-02T09:55:32Z</time>
      </trkpt>
      <trkpt lat="48.06319" lon="7.14023">
        <ele>795</ele>
        <time>2014-03-02T09:55:36Z</time>
      </trkpt>
      <trkpt lat="48.06321" lon="7.14005">
        <ele>794</ele>
        <time>2014-03-02T09:55:41Z</time>
      </trkpt>
      <trkpt lat="48.06323" lon="7.13993">
        <ele>793</ele>
        <time>2014-03-02T09:55:44Z</time>
      </trkpt>
      <trkpt lat="48.06325" lon="7.1398">
        <ele>793</ele>
        <time>2014-03-02T09:55:49Z</time>
      </trkpt>
      <trkpt lat="48.06331" lon="7.1396">
        <ele>793</ele>
        <time>2014-03-02T09:55:53Z</time>
      </trkpt>
      <trkpt lat="48.06346" lon="7.13946">
        <ele>794</ele>
        <time>2014-03-02T09:55:58Z</time>
      </trkpt>
      <trkpt lat="48.0636" lon="7.13934">
        <ele>794</ele>
        <time>2014-03-02T09:56:02Z</time>
      </trkpt>
      <trkpt lat="48.06381" lon="7.13914">
        <ele>791</ele>
        <time>2014-03-02T09:56:07Z</time>
      </trkpt>
      <trkpt lat="48.06398" lon="7.13903">
        <ele>792</ele>
        <time>2014-03-02T09:56:12Z</time>
      </trkpt>
      <trkpt lat="48.0641" lon="7.13896">
        <ele>793</ele>
        <time>2014-03-02T09:56:16Z</time>
      </trkpt>
      <trkpt lat="48.06425" lon="7.13886">
        <ele>794</ele>
        <time>2014-03-02T09:56:21Z</time>
      </trkpt>
      <trkpt lat="48.06437" lon="7.13874">
        <ele>795</ele>
        <time>2014-03-02T09:56:26Z</time>
      </trkpt>
      <trkpt lat="48.06446" lon="7.13866">
        <ele>795</ele>
        <time>2014-03-02T09:56:30Z</time>
      </trkpt>
      <trkpt lat="48.06454" lon="7.13859">
        <ele>798</ele>
        <time>2014-03-02T09:56:35Z</time>
      </trkpt>
      <trkpt lat="48.06462" lon="7.13852">
        <ele>799</ele>
        <time>2014-03-02T09:56:40Z</time>
      </trkpt>
      <trkpt lat="48.06469" lon="7.13847">
        <ele>800</ele>
        <time>2014-03-02T09:56:43Z</time>
      </trkpt>
      <trkpt lat="48.06476" lon="7.13844">
        <ele>801</ele>
        <time>2014-03-02T09:56:48Z</time>
      </trkpt>
      <trkpt lat="48.06485" lon="7.13838">
        <ele>801</ele>
        <time>2014-03-02T09:56:52Z</time>
      </trkpt>
      <trkpt lat="48.06494" lon="7.13833">
        <ele>802</ele>
        <time>2014-03-02T09:56:56Z</time>
      </trkpt>
      <trkpt lat="48.06503" lon="7.13828">
        <ele>802</ele>
        <time>2014-03-02T09:57:00Z</time>
      </trkpt>
      <trkpt lat="48.06511" lon="7.13823">
        <ele>803</ele>
        <time>2014-03-02T09:57:04Z</time>
      </trkpt>
      <trkpt lat="48.0652" lon="7.1382">
        <ele>802</ele>
        <time>2014-03-02T09:57:09Z</time>
      </trkpt>
      <trkpt lat="48.06528" lon="7.13818">
        <ele>804</ele>
        <time>2014-03-02T09:57:13Z</time>
      </trkpt>
      <trkpt lat="48.06536" lon="7.13817">
        <ele>804</ele>
        <time>2014-03-02T09:57:18Z</time>
      </trkpt>
      <trkpt lat="48.06545" lon="7.13818">
        <ele>804</ele>
        <time>2014-03-02T09:57:23Z</time>
      </trkpt>
      <trkpt lat="48.06553" lon="7.13819">
        <ele>803</ele>
        <time>2014-03-02T09:57:28Z</time>
      </trkpt>
      <trkpt lat="48.06561" lon="7.1382">
        <ele>804</ele>
        <time>2014-03-02T09:57:33Z</time>
      </trkpt>
      <trkpt lat="48.06569" lon="7.13823">
        <ele>805</ele>
        <time>2014-03-02T09:57:38Z</time>
      </trkpt>
      <trkpt lat="48.06576" lon="7.13825">
        <ele>806</ele>
        <time>2014-03-02T09:57:42Z</time>
      </trkpt>
      <trkpt lat="48.06586" lon="7.13827">
        <ele>806</ele>
        <time>2014-03-02T09:57:47Z</time>
      </trkpt>
      <trkpt lat="48.06595" lon="7.13827">
        <ele>806</ele>
        <time>2014-03-02T09:57:51Z</time>
      </trkpt>
      <trkpt lat="48.06608" lon="7.13823">
        <ele>806</ele>
        <time>2014-03-02T09:57:55Z</time>
      </trkpt>
      <trkpt lat="48.0662" lon="7.13766">
        <ele>806</ele>
        <time>2014-03-02T09:58:04Z</time>
      </trkpt>
      <trkpt lat="48.06616" lon="7.13757">
        <ele>806</ele>
        <time>2014-03-02T09:58:08Z</time>
      </trkpt>
      <trkpt lat="48.0661" lon="7.13744">
        <ele>810</ele>
        <time>2014-03-02T09:58:13Z</time>
      </trkpt>
      <trkpt lat="48.06606" lon="7.13733">
        <ele>811</ele>
        <time>2014-03-02T09:58:18Z</time>
      </trkpt>
      <trkpt lat="48.06602" lon="7.13721">
        <ele>811</ele>
        <time>2014-03-02T09:58:23Z</time>
      </trkpt>
      <trkpt lat="48.066" lon="7.1371">
        <ele>812</ele>
        <time>2014-03-02T09:58:29Z</time>
      </trkpt>
      <trkpt lat="48.06596" lon="7.13699">
        <ele>815</ele>
        <time>2014-03-02T09:58:35Z</time>
      </trkpt>
      <trkpt lat="48.06592" lon="7.13688">
        <ele>818</ele>
        <time>2014-03-02T09:58:41Z</time>
      </trkpt>
      <trkpt lat="48.06592" lon="7.13677">
        <ele>818</ele>
        <time>2014-03-02T09:58:46Z</time>
      </trkpt>
      <trkpt lat="48.06592" lon="7.13661">
        <ele>818</ele>
        <time>2014-03-02T09:58:51Z</time>
      </trkpt>
      <trkpt lat="48.06595" lon="7.13648">
        <ele>817</ele>
        <time>2014-03-02T09:58:55Z</time>
      </trkpt>
      <trkpt lat="48.06601" lon="7.13634">
        <ele>819</ele>
        <time>2014-03-02T09:59:00Z</time>
      </trkpt>
      <trkpt lat="48.06606" lon="7.13624">
        <ele>819</ele>
        <time>2014-03-02T09:59:04Z</time>
      </trkpt>
      <trkpt lat="48.0661" lon="7.13612">
        <ele>819</ele>
        <time>2014-03-02T09:59:08Z</time>
      </trkpt>
      <trkpt lat="48.06614" lon="7.13599">
        <ele>819</ele>
        <time>2014-03-02T09:59:13Z</time>
      </trkpt>
      <trkpt lat="48.06619" lon="7.13588">
        <ele>819</ele>
        <time>2014-03-02T09:59:18Z</time>
      </trkpt>
      <trkpt lat="48.06624" lon="7.13577">
        <ele>817</ele>
        <time>2014-03-02T09:59:54Z</time>
      </trkpt>
      <trkpt lat="48.06629" lon="7.13566">
        <ele>817</ele>
        <time>2014-03-02T09:59:59Z</time>
      </trkpt>
      <trkpt lat="48.06635" lon="7.1356">
        <ele>819</ele>
        <time>2014-03-02T10:00:04Z</time>
      </trkpt>
      <trkpt lat="48.06643" lon="7.13554">
        <ele>820</ele>
        <time>2014-03-02T10:00:10Z</time>
      </trkpt>
      <trkpt lat="48.0665" lon="7.13548">
        <ele>823</ele>
        <time>2014-03-02T10:00:17Z</time>
      </trkpt>
      <trkpt lat="48.06658" lon="7.13542">
        <ele>825</ele>
        <time>2014-03-02T10:00:24Z</time>
      </trkpt>
      <trkpt lat="48.06666" lon="7.13541">
        <ele>826</ele>
        <time>2014-03-02T10:00:32Z</time>
      </trkpt>
      <trkpt lat="48.06674" lon="7.13538">
        <ele>828</ele>
        <time>2014-03-02T10:00:38Z</time>
      </trkpt>
      <trkpt lat="48.06681" lon="7.13533">
        <ele>828</ele>
        <time>2014-03-02T10:00:43Z</time>
      </trkpt>
      <trkpt lat="48.0669" lon="7.13529">
        <ele>828</ele>
        <time>2014-03-02T10:00:48Z</time>
      </trkpt>
      <trkpt lat="48.06697" lon="7.13522">
        <ele>829</ele>
        <time>2014-03-02T10:00:53Z</time>
      </trkpt>
      <trkpt lat="48.06703" lon="7.13513">
        <ele>830</ele>
        <time>2014-03-02T10:00:58Z</time>
      </trkpt>
      <trkpt lat="48.06706" lon="7.13502">
        <ele>828</ele>
        <time>2014-03-02T10:01:04Z</time>
      </trkpt>
      <trkpt lat="48.06709" lon="7.13491">
        <ele>829</ele>
        <time>2014-03-02T10:01:10Z</time>
      </trkpt>
      <trkpt lat="48.06714" lon="7.13481">
        <ele>833</ele>
        <time>2014-03-02T10:01:19Z</time>
      </trkpt>
      <trkpt lat="48.06717" lon="7.13469">
        <ele>830</ele>
        <time>2014-03-02T10:01:30Z</time>
      </trkpt>
      <trkpt lat="48.06713" lon="7.13457">
        <ele>833</ele>
        <time>2014-03-02T10:01:42Z</time>
      </trkpt>
      <trkpt lat="48.06652" lon="7.13384">
        <ele>831</ele>
        <time>2014-03-02T10:01:55Z</time>
      </trkpt>
      <trkpt lat="48.06641" lon="7.13366">
        <ele>828</ele>
        <time>2014-03-02T10:02:00Z</time>
      </trkpt>
      <trkpt lat="48.06632" lon="7.13343">
        <ele>824</ele>
        <time>2014-03-02T10:02:04Z</time>
      </trkpt>
      <trkpt lat="48.06628" lon="7.13311">
        <ele>823</ele>
        <time>2014-03-02T10:02:08Z</time>
      </trkpt>
      <trkpt lat="48.06626" lon="7.13294">
        <ele>825</ele>
        <time>2014-03-02T10:02:13Z</time>
      </trkpt>
      <trkpt lat="48.06624" lon="7.13262">
        <ele>824</ele>
        <time>2014-03-02T10:02:18Z</time>
      </trkpt>
      <trkpt lat="48.06627" lon="7.13233">
        <ele>819</ele>
        <time>2014-03-02T10:02:22Z</time>
      </trkpt>
      <trkpt lat="48.06632" lon="7.13206">
        <ele>820</ele>
        <time>2014-03-02T10:02:27Z</time>
      </trkpt>
      <trkpt lat="48.06636" lon="7.13188">
        <ele>820</ele>
        <time>2014-03-02T10:02:31Z</time>
      </trkpt>
      <trkpt lat="48.0664" lon="7.1317">
        <ele>820</ele>
        <time>2014-03-02T10:02:35Z</time>
      </trkpt>
      <trkpt lat="48.06645" lon="7.13154">
        <ele>820</ele>
        <time>2014-03-02T10:02:40Z</time>
      </trkpt>
      <trkpt lat="48.06647" lon="7.1314">
        <ele>821</ele>
        <time>2014-03-02T10:02:44Z</time>
      </trkpt>
      <trkpt lat="48.06648" lon="7.13122">
        <ele>822</ele>
        <time>2014-03-02T10:02:48Z</time>
      </trkpt>
      <trkpt lat="48.06649" lon="7.13098">
        <ele>821</ele>
        <time>2014-03-02T10:02:53Z</time>
      </trkpt>
      <trkpt lat="48.06648" lon="7.13079">
        <ele>820</ele>
        <time>2014-03-02T10:02:57Z</time>
      </trkpt>
      <trkpt lat="48.06647" lon="7.13058">
        <ele>821</ele>
        <time>2014-03-02T10:03:02Z</time>
      </trkpt>
      <trkpt lat="48.06648" lon="7.1304">
        <ele>823</ele>
        <time>2014-03-02T10:03:06Z</time>
      </trkpt>
      <trkpt lat="48.06649" lon="7.13021">
        <ele>822</ele>
        <time>2014-03-02T10:03:11Z</time>
      </trkpt>
      <trkpt lat="48.06651" lon="7.13004">
        <ele>822</ele>
        <time>2014-03-02T10:03:16Z</time>
      </trkpt>
      <trkpt lat="48.06653" lon="7.12988">
        <ele>822</ele>
        <time>2014-03-02T10:03:21Z</time>
      </trkpt>
      <trkpt lat="48.06655" lon="7.1297">
        <ele>823</ele>
        <time>2014-03-02T10:03:26Z</time>
      </trkpt>
      <trkpt lat="48.0666" lon="7.12954">
        <ele>823</ele>
        <time>2014-03-02T10:03:30Z</time>
      </trkpt>
      <trkpt lat="48.06668" lon="7.12938">
        <ele>823</ele>
        <time>2014-03-02T10:03:35Z</time>
      </trkpt>
      <trkpt lat="48.06674" lon="7.12921">
        <ele>823</ele>
        <time>2014-03-02T10:03:40Z</time>
      </trkpt>
      <trkpt lat="48.06682" lon="7.12905">
        <ele>822</ele>
        <time>2014-03-02T10:03:44Z</time>
      </trkpt>
      <trkpt lat="48.0669" lon="7.12892">
        <ele>823</ele>
        <time>2014-03-02T10:03:48Z</time>
      </trkpt>
      <trkpt lat="48.06696" lon="7.12881">
        <ele>824</ele>
        <time>2014-03-02T10:03:52Z</time>
      </trkpt>
      <trkpt lat="48.06702" lon="7.12871">
        <ele>825</ele>
        <time>2014-03-02T10:03:57Z</time>
      </trkpt>
      <trkpt lat="48.06706" lon="7.12862">
        <ele>826</ele>
        <time>2014-03-02T10:04:01Z</time>
      </trkpt>
      <trkpt lat="48.0671" lon="7.12851">
        <ele>827</ele>
        <time>2014-03-02T10:04:05Z</time>
      </trkpt>
      <trkpt lat="48.06716" lon="7.12837">
        <ele>828</ele>
        <time>2014-03-02T10:04:10Z</time>
      </trkpt>
      <trkpt lat="48.06721" lon="7.12821">
        <ele>827</ele>
        <time>2014-03-02T10:04:15Z</time>
      </trkpt>
      <trkpt lat="48.06726" lon="7.12804">
        <ele>827</ele>
        <time>2014-03-02T10:04:19Z</time>
      </trkpt>
      <trkpt lat="48.06729" lon="7.1278">
        <ele>828</ele>
        <time>2014-03-02T10:04:24Z</time>
      </trkpt>
      <trkpt lat="48.0673" lon="7.12761">
        <ele>828</ele>
        <time>2014-03-02T10:04:28Z</time>
      </trkpt>
      <trkpt lat="48.06728" lon="7.12738">
        <ele>827</ele>
        <time>2014-03-02T10:04:33Z</time>
      </trkpt>
      <trkpt lat="48.06737" lon="7.12736">
        <ele>826</ele>
        <time>2014-03-02T10:04:54Z</time>
      </trkpt>
      <trkpt lat="48.06742" lon="7.12727">
        <ele>826</ele>
        <time>2014-03-02T10:05:19Z</time>
      </trkpt>
      <trkpt lat="48.06745" lon="7.12739">
        <ele>825</ele>
        <time>2014-03-02T10:05:26Z</time>
      </trkpt>
      <trkpt lat="48.06746" lon="7.12751">
        <ele>825</ele>
        <time>2014-03-02T10:05:31Z</time>
      </trkpt>
      <trkpt lat="48.06745" lon="7.12764">
        <ele>827</ele>
        <time>2014-03-02T10:05:35Z</time>
      </trkpt>
      <trkpt lat="48.06743" lon="7.12777">
        <ele>829</ele>
        <time>2014-03-02T10:05:41Z</time>
      </trkpt>
      <trkpt lat="48.0674" lon="7.1279">
        <ele>831</ele>
        <time>2014-03-02T10:05:46Z</time>
      </trkpt>
      <trkpt lat="48.06737" lon="7.12803">
        <ele>831</ele>
        <time>2014-03-02T10:05:51Z</time>
      </trkpt>
      <trkpt lat="48.06735" lon="7.12815">
        <ele>832</ele>
        <time>2014-03-02T10:05:55Z</time>
      </trkpt>
      <trkpt lat="48.06732" lon="7.12827">
        <ele>834</ele>
        <time>2014-03-02T10:05:59Z</time>
      </trkpt>
      <trkpt lat="48.06729" lon="7.1284">
        <ele>835</ele>
        <time>2014-03-02T10:06:03Z</time>
      </trkpt>
      <trkpt lat="48.06725" lon="7.12855">
        <ele>837</ele>
        <time>2014-03-02T10:06:08Z</time>
      </trkpt>
      <trkpt lat="48.06722" lon="7.12868">
        <ele>839</ele>
        <time>2014-03-02T10:06:12Z</time>
      </trkpt>
      <trkpt lat="48.06718" lon="7.12884">
        <ele>839</ele>
        <time>2014-03-02T10:06:17Z</time>
      </trkpt>
      <trkpt lat="48.06714" lon="7.129">
        <ele>843</ele>
        <time>2014-03-02T10:06:22Z</time>
      </trkpt>
      <trkpt lat="48.06711" lon="7.12913">
        <ele>839</ele>
        <time>2014-03-02T10:06:26Z</time>
      </trkpt>
      <trkpt lat="48.06708" lon="7.12926">
        <ele>842</ele>
        <time>2014-03-02T10:06:30Z</time>
      </trkpt>
      <trkpt lat="48.06707" lon="7.12939">
        <ele>843</ele>
        <time>2014-03-02T10:06:34Z</time>
      </trkpt>
      <trkpt lat="48.06705" lon="7.12956">
        <ele>844</ele>
        <time>2014-03-02T10:06:39Z</time>
      </trkpt>
      <trkpt lat="48.06703" lon="7.12968">
        <ele>845</ele>
        <time>2014-03-02T10:06:43Z</time>
      </trkpt>
      <trkpt lat="48.06702" lon="7.12982">
        <ele>844</ele>
        <time>2014-03-02T10:06:47Z</time>
      </trkpt>
      <trkpt lat="48.06702" lon="7.12995">
        <ele>845</ele>
        <time>2014-03-02T10:06:51Z</time>
      </trkpt>
      <trkpt lat="48.06702" lon="7.13011">
        <ele>845</ele>
        <time>2014-03-02T10:06:56Z</time>
      </trkpt>
      <trkpt lat="48.06703" lon="7.13024">
        <ele>847</ele>
        <time>2014-03-02T10:07:00Z</time>
      </trkpt>
      <trkpt lat="48.06703" lon="7.13041">
        <ele>848</ele>
        <time>2014-03-02T10:07:05Z</time>
      </trkpt>
      <trkpt lat="48.06703" lon="7.13055">
        <ele>849</ele>
        <time>2014-03-02T10:07:09Z</time>
      </trkpt>
      <trkpt lat="48.06704" lon="7.13072">
        <ele>851</ele>
        <time>2014-03-02T10:07:14Z</time>
      </trkpt>
      <trkpt lat="48.06705" lon="7.13086">
        <ele>853</ele>
        <time>2014-03-02T10:07:18Z</time>
      </trkpt>
      <trkpt lat="48.06706" lon="7.13104">
        <ele>853</ele>
        <time>2014-03-02T10:07:22Z</time>
      </trkpt>
      <trkpt lat="48.06707" lon="7.13119">
        <ele>851</ele>
        <time>2014-03-02T10:07:27Z</time>
      </trkpt>
      <trkpt lat="48.06708" lon="7.13137">
        <ele>852</ele>
        <time>2014-03-02T10:07:32Z</time>
      </trkpt>
      <trkpt lat="48.06709" lon="7.13151">
        <ele>853</ele>
        <time>2014-03-02T10:07:36Z</time>
      </trkpt>
      <trkpt lat="48.06709" lon="7.13165">
        <ele>854</ele>
        <time>2014-03-02T10:07:40Z</time>
      </trkpt>
      <trkpt lat="48.06709" lon="7.1318">
        <ele>853</ele>
        <time>2014-03-02T10:07:44Z</time>
      </trkpt>
      <trkpt lat="48.0671" lon="7.13198">
        <ele>854</ele>
        <time>2014-03-02T10:07:49Z</time>
      </trkpt>
      <trkpt lat="48.06709" lon="7.13211">
        <ele>855</ele>
        <time>2014-03-02T10:07:53Z</time>
      </trkpt>
      <trkpt lat="48.0671" lon="7.13228">
        <ele>855</ele>
        <time>2014-03-02T10:07:58Z</time>
      </trkpt>
      <trkpt lat="48.0671" lon="7.13243">
        <ele>855</ele>
        <time>2014-03-02T10:08:02Z</time>
      </trkpt>
      <trkpt lat="48.0671" lon="7.13261">
        <ele>857</ele>
        <time>2014-03-02T10:08:07Z</time>
      </trkpt>
      <trkpt lat="48.06713" lon="7.13276">
        <ele>859</ele>
        <time>2014-03-02T10:08:11Z</time>
      </trkpt>
      <trkpt lat="48.06719" lon="7.13294">
        <ele>861</ele>
        <time>2014-03-02T10:08:16Z</time>
      </trkpt>
      <trkpt lat="48.06725" lon="7.13307">
        <ele>862</ele>
        <time>2014-03-02T10:08:20Z</time>
      </trkpt>
      <trkpt lat="48.06732" lon="7.1332">
        <ele>863</ele>
        <time>2014-03-02T10:08:24Z</time>
      </trkpt>
      <trkpt lat="48.06743" lon="7.13333">
        <ele>863</ele>
        <time>2014-03-02T10:08:29Z</time>
      </trkpt>
      <trkpt lat="48.06753" lon="7.13339">
        <ele>863</ele>
        <time>2014-03-02T10:08:33Z</time>
      </trkpt>
      <trkpt lat="48.06766" lon="7.13342">
        <ele>863</ele>
        <time>2014-03-02T10:08:38Z</time>
      </trkpt>
      <trkpt lat="48.06776" lon="7.13342">
        <ele>865</ele>
        <time>2014-03-02T10:08:42Z</time>
      </trkpt>
      <trkpt lat="48.06786" lon="7.13341">
        <ele>866</ele>
        <time>2014-03-02T10:08:46Z</time>
      </trkpt>
      <trkpt lat="48.06795" lon="7.13336">
        <ele>867</ele>
        <time>2014-03-02T10:08:50Z</time>
      </trkpt>
      <trkpt lat="48.06807" lon="7.13329">
        <ele>867</ele>
        <time>2014-03-02T10:08:55Z</time>
      </trkpt>
      <trkpt lat="48.06819" lon="7.13322">
        <ele>865</ele>
        <time>2014-03-02T10:08:59Z</time>
      </trkpt>
      <trkpt lat="48.0683" lon="7.13315">
        <ele>867</ele>
        <time>2014-03-02T10:09:03Z</time>
      </trkpt>
      <trkpt lat="48.06838" lon="7.13306">
        <ele>867</ele>
        <time>2014-03-02T10:09:07Z</time>
      </trkpt>
      <trkpt lat="48.06849" lon="7.13294">
        <ele>865</ele>
        <time>2014-03-02T10:09:12Z</time>
      </trkpt>
      <trkpt lat="48.06857" lon="7.13285">
        <ele>867</ele>
        <time>2014-03-02T10:09:16Z</time>
      </trkpt>
      <trkpt lat="48.06867" lon="7.13277">
        <ele>872</ele>
        <time>2014-03-02T10:09:21Z</time>
      </trkpt>
      <trkpt lat="48.06875" lon="7.13275">
        <ele>875</ele>
        <time>2014-03-02T10:09:25Z</time>
      </trkpt>
      <trkpt lat="48.06886" lon="7.1328">
        <ele>877</ele>
        <time>2014-03-02T10:09:30Z</time>
      </trkpt>
      <trkpt lat="48.06898" lon="7.13282">
        <ele>875</ele>
        <time>2014-03-02T10:09:34Z</time>
      </trkpt>
      <trkpt lat="48.06913" lon="7.13282">
        <ele>874</ele>
        <time>2014-03-02T10:09:39Z</time>
      </trkpt>
      <trkpt lat="48.06927" lon="7.1328">
        <ele>875</ele>
        <time>2014-03-02T10:09:44Z</time>
      </trkpt>
      <trkpt lat="48.06939" lon="7.13275">
        <ele>876</ele>
        <time>2014-03-02T10:09:49Z</time>
      </trkpt>
      <trkpt lat="48.0695" lon="7.13273">
        <ele>575</ele>
        <time>2014-03-02T10:09:54Z</time>
      </trkpt>
      <trkpt lat="48.0696" lon="7.13271">
        <ele>718</ele>
        <time>2014-03-02T10:09:58Z</time>
      </trkpt>
      <trkpt lat="48.06968" lon="7.13268">
        <ele>820</ele>
        <time>2014-03-02T10:10:02Z</time>
      </trkpt>
      <trkpt lat="48.06977" lon="7.13265">
        <ele>774</ele>
        <time>2014-03-02T10:10:05Z</time>
      </trkpt>
      <trkpt lat="48.06986" lon="7.13262">
        <ele>833</ele>
        <time>2014-03-02T10:10:10Z</time>
      </trkpt>
      <trkpt lat="48.06997" lon="7.13261">
        <ele>848</ele>
        <time>2014-03-02T10:10:15Z</time>
      </trkpt>
      <trkpt lat="48.07009" lon="7.1326">
        <ele>764</ele>
        <time>2014-03-02T10:10:19Z</time>
      </trkpt>
      <trkpt lat="48.07019" lon="7.13259">
        <ele>816</ele>
        <time>2014-03-02T10:10:24Z</time>
      </trkpt>
      <trkpt lat="48.07027" lon="7.13256">
        <ele>837</ele>
        <time>2014-03-02T10:10:29Z</time>
      </trkpt>
      <trkpt lat="48.07037" lon="7.13254">
        <ele>856</ele>
        <time>2014-03-02T10:10:34Z</time>
      </trkpt>
      <trkpt lat="48.07046" lon="7.13251">
        <ele>864</ele>
        <time>2014-03-02T10:10:39Z</time>
      </trkpt>
      <trkpt lat="48.07055" lon="7.13252">
        <ele>886</ele>
        <time>2014-03-02T10:10:43Z</time>
      </trkpt>
      <trkpt lat="48.07064" lon="7.13252">
        <ele>887</ele>
        <time>2014-03-02T10:10:48Z</time>
      </trkpt>
      <trkpt lat="48.07072" lon="7.1325">
        <ele>891</ele>
        <time>2014-03-02T10:10:52Z</time>
      </trkpt>
      <trkpt lat="48.07078" lon="7.13248">
        <ele>897</ele>
        <time>2014-03-02T10:10:56Z</time>
      </trkpt>
      <trkpt lat="48.07089" lon="7.13246">
        <ele>900</ele>
        <time>2014-03-02T10:11:01Z</time>
      </trkpt>
      <trkpt lat="48.07097" lon="7.13245">
        <ele>905</ele>
        <time>2014-03-02T10:11:05Z</time>
      </trkpt>
      <trkpt lat="48.07104" lon="7.1324">
        <ele>907</ele>
        <time>2014-03-02T10:11:09Z</time>
      </trkpt>
      <trkpt lat="48.07114" lon="7.13239">
        <ele>909</ele>
        <time>2014-03-02T10:11:14Z</time>
      </trkpt>
      <trkpt lat="48.07126" lon="7.13236">
        <ele>908</ele>
        <time>2014-03-02T10:11:19Z</time>
      </trkpt>
      <trkpt lat="48.07135" lon="7.13232">
        <ele>911</ele>
        <time>2014-03-02T10:11:23Z</time>
      </trkpt>
      <trkpt lat="48.07147" lon="7.13232">
        <ele>912</ele>
        <time>2014-03-02T10:11:28Z</time>
      </trkpt>
      <trkpt lat="48.07157" lon="7.13231">
        <ele>910</ele>
        <time>2014-03-02T10:11:32Z</time>
      </trkpt>
      <trkpt lat="48.0717" lon="7.1323">
        <ele>910</ele>
        <time>2014-03-02T10:11:37Z</time>
      </trkpt>
      <trkpt lat="48.07182" lon="7.13232">
        <ele>910</ele>
        <time>2014-03-02T10:11:42Z</time>
      </trkpt>
      <trkpt lat="48.07193" lon="7.13232">
        <ele>913</ele>
        <time>2014-03-02T10:11:46Z</time>
      </trkpt>
      <trkpt lat="48.07202" lon="7.13234">
        <ele>913</ele>
        <time>2014-03-02T10:11:51Z</time>
      </trkpt>
      <trkpt lat="48.07209" lon="7.13235">
        <ele>920</ele>
        <time>2014-03-02T10:11:55Z</time>
      </trkpt>
      <trkpt lat="48.07217" lon="7.13238">
        <ele>920</ele>
        <time>2014-03-02T10:12:00Z</time>
      </trkpt>
      <trkpt lat="48.07229" lon="7.13237">
        <ele>918</ele>
        <time>2014-03-02T10:12:05Z</time>
      </trkpt>
      <trkpt lat="48.07239" lon="7.13239">
        <ele>920</ele>
        <time>2014-03-02T10:12:10Z</time>
      </trkpt>
      <trkpt lat="48.07248" lon="7.13238">
        <ele>918</ele>
        <time>2014-03-02T10:12:16Z</time>
      </trkpt>
      <trkpt lat="48.0726" lon="7.13244">
        <ele>920</ele>
        <time>2014-03-02T10:12:21Z</time>
      </trkpt>
      <trkpt lat="48.0727" lon="7.13248">
        <ele>922</ele>
        <time>2014-03-02T10:12:25Z</time>
      </trkpt>
      <trkpt lat="48.07282" lon="7.13255">
        <ele>922</ele>
        <time>2014-03-02T10:12:30Z</time>
      </trkpt>
      <trkpt lat="48.0729" lon="7.13261">
        <ele>925</ele>
        <time>2014-03-02T10:12:34Z</time>
      </trkpt>
      <trkpt lat="48.07302" lon="7.13266">
        <ele>926</ele>
        <time>2014-03-02T10:12:39Z</time>
      </trkpt>
      <trkpt lat="48.07309" lon="7.13269">
        <ele>762</ele>
        <time>2014-03-02T10:12:44Z</time>
      </trkpt>
      <trkpt lat="48.07318" lon="7.13277">
        <ele>813</ele>
        <time>2014-03-02T10:12:48Z</time>
      </trkpt>
      <trkpt lat="48.07331" lon="7.13286">
        <ele>746</ele>
        <time>2014-03-02T10:12:53Z</time>
      </trkpt>
      <trkpt lat="48.0734" lon="7.13295">
        <ele>822</ele>
        <time>2014-03-02T10:12:57Z</time>
      </trkpt>
      <trkpt lat="48.07353" lon="7.13306">
        <ele>866</ele>
        <time>2014-03-02T10:13:01Z</time>
      </trkpt>
      <trkpt lat="48.07363" lon="7.13319">
        <ele>876</ele>
        <time>2014-03-02T10:13:06Z</time>
      </trkpt>
      <trkpt lat="48.07376" lon="7.13336">
        <ele>898</ele>
        <time>2014-03-02T10:13:11Z</time>
      </trkpt>
      <trkpt lat="48.07385" lon="7.13349">
        <ele>914</ele>
        <time>2014-03-02T10:13:15Z</time>
      </trkpt>
      <trkpt lat="48.07394" lon="7.13365">
        <ele>928</ele>
        <time>2014-03-02T10:13:20Z</time>
      </trkpt>
      <trkpt lat="48.07401" lon="7.13379">
        <ele>928</ele>
        <time>2014-03-02T10:13:25Z</time>
      </trkpt>
      <trkpt lat="48.0741" lon="7.13394">
        <ele>928</ele>
        <time>2014-03-02T10:13:29Z</time>
      </trkpt>
      <trkpt lat="48.07417" lon="7.1341">
        <ele>930</ele>
        <time>2014-03-02T10:13:33Z</time>
      </trkpt>
      <trkpt lat="48.07424" lon="7.13425">
        <ele>936</ele>
        <time>2014-03-02T10:13:37Z</time>
      </trkpt>
      <trkpt lat="48.07429" lon="7.13438">
        <ele>935</ele>
        <time>2014-03-02T10:13:41Z</time>
      </trkpt>
      <trkpt lat="48.07434" lon="7.13452">
        <ele>935</ele>
        <time>2014-03-02T10:13:45Z</time>
      </trkpt>
      <trkpt lat="48.07437" lon="7.13469">
        <ele>936</ele>
        <time>2014-03-02T10:13:50Z</time>
      </trkpt>
      <trkpt lat="48.07442" lon="7.13481">
        <ele>939</ele>
        <time>2014-03-02T10:13:54Z</time>
      </trkpt>
      <trkpt lat="48.0745" lon="7.13495">
        <ele>943</ele>
        <time>2014-03-02T10:13:59Z</time>
      </trkpt>
      <trkpt lat="48.07457" lon="7.13503">
        <ele>942</ele>
        <time>2014-03-02T10:14:03Z</time>
      </trkpt>
      <trkpt lat="48.07467" lon="7.13501">
        <ele>938</ele>
        <time>2014-03-02T10:14:08Z</time>
      </trkpt>
      <trkpt lat="48.07478" lon="7.13496">
        <ele>938</ele>
        <time>2014-03-02T10:14:13Z</time>
      </trkpt>
      <trkpt lat="48.07486" lon="7.13489">
        <ele>935</ele>
        <time>2014-03-02T10:14:17Z</time>
      </trkpt>
      <trkpt lat="48.07495" lon="7.13486">
        <ele>933</ele>
        <time>2014-03-02T10:14:21Z</time>
      </trkpt>
      <trkpt lat="48.07504" lon="7.13484">
        <ele>934</ele>
        <time>2014-03-02T10:14:25Z</time>
      </trkpt>
      <trkpt lat="48.07514" lon="7.13482">
        <ele>804</ele>
        <time>2014-03-02T10:14:29Z</time>
      </trkpt>
      <trkpt lat="48.07523" lon="7.13477">
        <ele>854</ele>
        <time>2014-03-02T10:14:33Z</time>
      </trkpt>
      <trkpt lat="48.07533" lon="7.13469">
        <ele>821</ele>
        <time>2014-03-02T10:14:38Z</time>
      </trkpt>
      <trkpt lat="48.07542" lon="7.13469">
        <ele>864</ele>
        <time>2014-03-02T10:14:42Z</time>
      </trkpt>
      <trkpt lat="48.0755" lon="7.1347">
        <ele>830</ele>
        <time>2014-03-02T10:14:47Z</time>
      </trkpt>
      <trkpt lat="48.07558" lon="7.13476">
        <ele>861</ele>
        <time>2014-03-02T10:14:52Z</time>
      </trkpt>
      <trkpt lat="48.07567" lon="7.1348">
        <ele>893</ele>
        <time>2014-03-02T10:14:57Z</time>
      </trkpt>
      <trkpt lat="48.07575" lon="7.13489">
        <ele>913</ele>
        <time>2014-03-02T10:15:02Z</time>
      </trkpt>
      <trkpt lat="48.07583" lon="7.135">
        <ele>913</ele>
        <time>2014-03-02T10:15:07Z</time>
      </trkpt>
      <trkpt lat="48.07592" lon="7.13508">
        <ele>806</ele>
        <time>2014-03-02T10:15:11Z</time>
      </trkpt>
      <trkpt lat="48.07607" lon="7.13516">
        <ele>878</ele>
        <time>2014-03-02T10:15:16Z</time>
      </trkpt>
      <trkpt lat="48.07617" lon="7.13525">
        <ele>776</ele>
        <time>2014-03-02T10:15:20Z</time>
      </trkpt>
      <trkpt lat="48.07628" lon="7.13538">
        <ele>881</ele>
        <time>2014-03-02T10:15:24Z</time>
      </trkpt>
      <trkpt lat="48.07639" lon="7.13549">
        <ele>908</ele>
        <time>2014-03-02T10:15:28Z</time>
      </trkpt>
      <trkpt lat="48.07646" lon="7.13559">
        <ele>871</ele>
        <time>2014-03-02T10:15:33Z</time>
      </trkpt>
      <trkpt lat="48.07653" lon="7.13572">
        <ele>898</ele>
        <time>2014-03-02T10:15:38Z</time>
      </trkpt>
      <trkpt lat="48.07658" lon="7.13579">
        <ele>865</ele>
        <time>2014-03-02T10:15:43Z</time>
      </trkpt>
      <trkpt lat="48.07666" lon="7.13592">
        <ele>891</ele>
        <time>2014-03-02T10:15:48Z</time>
      </trkpt>
      <trkpt lat="48.07677" lon="7.13611">
        <ele>882</ele>
        <time>2014-03-02T10:15:53Z</time>
      </trkpt>
      <trkpt lat="48.07685" lon="7.13624">
        <ele>929</ele>
        <time>2014-03-02T10:15:57Z</time>
      </trkpt>
      <trkpt lat="48.07692" lon="7.13642">
        <ele>900</ele>
        <time>2014-03-02T10:16:02Z</time>
      </trkpt>
      <trkpt lat="48.07698" lon="7.13657">
        <ele>929</ele>
        <time>2014-03-02T10:16:06Z</time>
      </trkpt>
      <trkpt lat="48.07704" lon="7.1367">
        <ele>939</ele>
        <time>2014-03-02T10:16:10Z</time>
      </trkpt>
      <trkpt lat="48.07711" lon="7.13687">
        <ele>941</ele>
        <time>2014-03-02T10:16:15Z</time>
      </trkpt>
      <trkpt lat="48.07717" lon="7.13703">
        <ele>950</ele>
        <time>2014-03-02T10:16:20Z</time>
      </trkpt>
      <trkpt lat="48.07717" lon="7.1369">
        <ele>952</ele>
        <time>2014-03-02T10:16:37Z</time>
      </trkpt>
      <trkpt lat="48.07716" lon="7.13678">
        <ele>964</ele>
        <time>2014-03-02T10:16:49Z</time>
      </trkpt>
      <trkpt lat="48.07711" lon="7.13667">
        <ele>966</ele>
        <time>2014-03-02T10:17:01Z</time>
      </trkpt>
      <trkpt lat="48.07708" lon="7.13655">
        <ele>970</ele>
        <time>2014-03-02T10:17:10Z</time>
      </trkpt>
      <trkpt lat="48.07708" lon="7.13644">
        <ele>973</ele>
        <time>2014-03-02T10:17:18Z</time>
      </trkpt>
      <trkpt lat="48.07709" lon="7.13631">
        <ele>973</ele>
        <time>2014-03-02T10:17:25Z</time>
      </trkpt>
      <trkpt lat="48.0771" lon="7.13619">
        <ele>979</ele>
        <time>2014-03-02T10:17:33Z</time>
      </trkpt>
      <trkpt lat="48.0771" lon="7.13607">
        <ele>982</ele>
        <time>2014-03-02T10:17:41Z</time>
      </trkpt>
      <trkpt lat="48.07712" lon="7.13594">
        <ele>981</ele>
        <time>2014-03-02T10:17:53Z</time>
      </trkpt>
      <trkpt lat="48.07714" lon="7.13582">
        <ele>979</ele>
        <time>2014-03-02T10:18:04Z</time>
      </trkpt>
      <trkpt lat="48.07714" lon="7.1357">
        <ele>978</ele>
        <time>2014-03-02T10:18:12Z</time>
      </trkpt>
      <trkpt lat="48.07714" lon="7.13559">
        <ele>969</ele>
        <time>2014-03-02T10:18:16Z</time>
      </trkpt>
      <trkpt lat="48.07714" lon="7.13547">
        <ele>968</ele>
        <time>2014-03-02T10:18:20Z</time>
      </trkpt>
      <trkpt lat="48.07714" lon="7.13533">
        <ele>799</ele>
        <time>2014-03-02T10:18:26Z</time>
      </trkpt>
      <trkpt lat="48.07713" lon="7.13521">
        <ele>901</ele>
        <time>2014-03-02T10:18:31Z</time>
      </trkpt>
      <trkpt lat="48.07713" lon="7.13508">
        <ele>845</ele>
        <time>2014-03-02T10:18:37Z</time>
      </trkpt>
      <trkpt lat="48.0771" lon="7.13496">
        <ele>866</ele>
        <time>2014-03-02T10:18:45Z</time>
      </trkpt>
      <trkpt lat="48.0771" lon="7.13483">
        <ele>951</ele>
        <time>2014-03-02T10:18:53Z</time>
      </trkpt>
      <trkpt lat="48.07714" lon="7.13472">
        <ele>915</ele>
        <time>2014-03-02T10:18:59Z</time>
      </trkpt>
      <trkpt lat="48.07714" lon="7.1346">
        <ele>964</ele>
        <time>2014-03-02T10:19:06Z</time>
      </trkpt>
      <trkpt lat="48.0772" lon="7.1345">
        <ele>970</ele>
        <time>2014-03-02T10:19:11Z</time>
      </trkpt>
      <trkpt lat="48.07725" lon="7.13441">
        <ele>979</ele>
        <time>2014-03-02T10:19:15Z</time>
      </trkpt>
      <trkpt lat="48.07731" lon="7.13432">
        <ele>977</ele>
        <time>2014-03-02T10:19:22Z</time>
      </trkpt>
      <trkpt lat="48.07734" lon="7.13419">
        <ele>985</ele>
        <time>2014-03-02T10:19:33Z</time>
      </trkpt>
      <trkpt lat="48.07736" lon="7.13408">
        <ele>933</ele>
        <time>2014-03-02T10:19:40Z</time>
      </trkpt>
      <trkpt lat="48.07747" lon="7.13372">
        <ele>971</ele>
        <time>2014-03-02T10:19:50Z</time>
      </trkpt>
      <trkpt lat="48.07755" lon="7.13366">
        <ele>975</ele>
        <time>2014-03-02T10:20:36Z</time>
      </trkpt>
      <trkpt lat="48.07763" lon="7.13358">
        <ele>982</ele>
        <time>2014-03-02T10:21:19Z</time>
      </trkpt>
      <trkpt lat="48.07768" lon="7.13369">
        <ele>986</ele>
        <time>2014-03-02T10:26:13Z</time>
      </trkpt>
      <trkpt lat="48.0777" lon="7.1338">
        <ele>985</ele>
        <time>2014-03-02T10:26:20Z</time>
      </trkpt>
      <trkpt lat="48.07777" lon="7.13388">
        <ele>988</ele>
        <time>2014-03-02T10:26:27Z</time>
      </trkpt>
      <trkpt lat="48.07784" lon="7.13394">
        <ele>990</ele>
        <time>2014-03-02T10:26:36Z</time>
      </trkpt>
      <trkpt lat="48.07783" lon="7.13407">
        <ele>988</ele>
        <time>2014-03-02T10:27:13Z</time>
      </trkpt>
      <trkpt lat="48.07788" lon="7.1338">
        <ele>991</ele>
        <time>2014-03-02T10:27:27Z</time>
      </trkpt>
      <trkpt lat="48.07787" lon="7.13392">
        <ele>989</ele>
        <time>2014-03-02T10:27:45Z</time>
      </trkpt>
      <trkpt lat="48.07786" lon="7.1338">
        <ele>992</ele>
        <time>2014-03-02T10:28:05Z</time>
      </trkpt>
      <trkpt lat="48.07763" lon="7.13362">
        <ele>985</ele>
        <time>2014-03-02T10:28:12Z</time>
      </trkpt>
      <trkpt lat="48.07767" lon="7.13373">
        <ele>986</ele>
        <time>2014-03-02T10:32:46Z</time>
      </trkpt>
      <trkpt lat="48.07773" lon="7.13382">
        <ele>994</ele>
        <time>2014-03-02T10:32:52Z</time>
      </trkpt>
      <trkpt lat="48.07777" lon="7.13393">
        <ele>989</ele>
        <time>2014-03-02T10:32:59Z</time>
      </trkpt>
      <trkpt lat="48.0778" lon="7.13404">
        <ele>991</ele>
        <time>2014-03-02T10:33:07Z</time>
      </trkpt>
      <trkpt lat="48.07782" lon="7.13416">
        <ele>987</ele>
        <time>2014-03-02T10:33:14Z</time>
      </trkpt>
      <trkpt lat="48.07784" lon="7.13428">
        <ele>987</ele>
        <time>2014-03-02T10:33:20Z</time>
      </trkpt>
      <trkpt lat="48.07783" lon="7.13439">
        <ele>992</ele>
        <time>2014-03-02T10:33:26Z</time>
      </trkpt>
      <trkpt lat="48.07785" lon="7.13452">
        <ele>992</ele>
        <time>2014-03-02T10:33:31Z</time>
      </trkpt>
      <trkpt lat="48.07787" lon="7.13465">
        <ele>994</ele>
        <time>2014-03-02T10:33:38Z</time>
      </trkpt>
      <trkpt lat="48.07787" lon="7.13478">
        <ele>996</ele>
        <time>2014-03-02T10:33:45Z</time>
      </trkpt>
      <trkpt lat="48.0779" lon="7.1349">
        <ele>996</ele>
        <time>2014-03-02T10:33:52Z</time>
      </trkpt>
      <trkpt lat="48.07789" lon="7.13502">
        <ele>998</ele>
        <time>2014-03-02T10:33:57Z</time>
      </trkpt>
      <trkpt lat="48.07793" lon="7.13513">
        <ele>998</ele>
        <time>2014-03-02T10:34:03Z</time>
      </trkpt>
      <trkpt lat="48.07797" lon="7.13525">
        <ele>1004</ele>
        <time>2014-03-02T10:34:09Z</time>
      </trkpt>
      <trkpt lat="48.07797" lon="7.13539">
        <ele>1016</ele>
        <time>2014-03-02T10:34:16Z</time>
      </trkpt>
      <trkpt lat="48.07798" lon="7.1355">
        <ele>1014</ele>
        <time>2014-03-02T10:34:21Z</time>
      </trkpt>
      <trkpt lat="48.07802" lon="7.13561">
        <ele>1013</ele>
        <time>2014-03-02T10:34:26Z</time>
      </trkpt>
      <trkpt lat="48.07807" lon="7.1357">
        <ele>1010</ele>
        <time>2014-03-02T10:34:30Z</time>
      </trkpt>
      <trkpt lat="48.07809" lon="7.13581">
        <ele>1010</ele>
        <time>2014-03-02T10:34:35Z</time>
      </trkpt>
      <trkpt lat="48.07811" lon="7.13591">
        <ele>855</ele>
        <time>2014-03-02T10:34:40Z</time>
      </trkpt>
      <trkpt lat="48.07816" lon="7.13602">
        <ele>953</ele>
        <time>2014-03-02T10:34:44Z</time>
      </trkpt>
      <trkpt lat="48.07824" lon="7.13615">
        <ele>977</ele>
        <time>2014-03-02T10:34:49Z</time>
      </trkpt>
      <trkpt lat="48.07825" lon="7.13626">
        <ele>991</ele>
        <time>2014-03-02T10:34:53Z</time>
      </trkpt>
      <trkpt lat="48.07827" lon="7.13638">
        <ele>996</ele>
        <time>2014-03-02T10:34:57Z</time>
      </trkpt>
      <trkpt lat="48.0783" lon="7.1365">
        <ele>997</ele>
        <time>2014-03-02T10:35:00Z</time>
      </trkpt>
      <trkpt lat="48.0783" lon="7.13661">
        <ele>1000</ele>
        <time>2014-03-02T10:35:05Z</time>
      </trkpt>
      <trkpt lat="48.07833" lon="7.13676">
        <ele>1008</ele>
        <time>2014-03-02T10:35:10Z</time>
      </trkpt>
      <trkpt lat="48.07836" lon="7.13688">
        <ele>1011</ele>
        <time>2014-03-02T10:35:14Z</time>
      </trkpt>
      <trkpt lat="48.07836" lon="7.13706">
        <ele>1013</ele>
        <time>2014-03-02T10:35:19Z</time>
      </trkpt>
      <trkpt lat="48.07838" lon="7.13723">
        <ele>1012</ele>
        <time>2014-03-02T10:35:23Z</time>
      </trkpt>
      <trkpt lat="48.07836" lon="7.13747">
        <ele>1010</ele>
        <time>2014-03-02T10:35:27Z</time>
      </trkpt>
      <trkpt lat="48.07836" lon="7.13775">
        <ele>1010</ele>
        <time>2014-03-02T10:35:32Z</time>
      </trkpt>
      <trkpt lat="48.07836" lon="7.1381">
        <ele>1009</ele>
        <time>2014-03-02T10:35:37Z</time>
      </trkpt>
      <trkpt lat="48.07828" lon="7.1384">
        <ele>1012</ele>
        <time>2014-03-02T10:35:41Z</time>
      </trkpt>
      <trkpt lat="48.07826" lon="7.13861">
        <ele>1011</ele>
        <time>2014-03-02T10:35:46Z</time>
      </trkpt>
      <trkpt lat="48.07825" lon="7.13884">
        <ele>1011</ele>
        <time>2014-03-02T10:35:51Z</time>
      </trkpt>
      <trkpt lat="48.07823" lon="7.13908">
        <ele>1011</ele>
        <time>2014-03-02T10:35:56Z</time>
      </trkpt>
      <trkpt lat="48.07826" lon="7.13931">
        <ele>1014</ele>
        <time>2014-03-02T10:36:00Z</time>
      </trkpt>
      <trkpt lat="48.07824" lon="7.13959">
        <ele>1017</ele>
        <time>2014-03-02T10:36:05Z</time>
      </trkpt>
      <trkpt lat="48.07831" lon="7.13987">
        <ele>1013</ele>
        <time>2014-03-02T10:36:10Z</time>
      </trkpt>
      <trkpt lat="48.07841" lon="7.1401">
        <ele>1011</ele>
        <time>2014-03-02T10:36:14Z</time>
      </trkpt>
      <trkpt lat="48.07851" lon="7.14033">
        <ele>1018</ele>
        <time>2014-03-02T10:36:19Z</time>
      </trkpt>
      <trkpt lat="48.07857" lon="7.14046">
        <ele>1022</ele>
        <time>2014-03-02T10:36:23Z</time>
      </trkpt>
      <trkpt lat="48.07863" lon="7.14055">
        <ele>1018</ele>
        <time>2014-03-02T10:36:27Z</time>
      </trkpt>
      <trkpt lat="48.0787" lon="7.14065">
        <ele>1021</ele>
        <time>2014-03-02T10:36:32Z</time>
      </trkpt>
      <trkpt lat="48.07876" lon="7.14079">
        <ele>1022</ele>
        <time>2014-03-02T10:36:36Z</time>
      </trkpt>
      <trkpt lat="48.07884" lon="7.14092">
        <ele>1022</ele>
        <time>2014-03-02T10:36:40Z</time>
      </trkpt>
      <trkpt lat="48.07892" lon="7.14103">
        <ele>1022</ele>
        <time>2014-03-02T10:36:45Z</time>
      </trkpt>
      <trkpt lat="48.07898" lon="7.14113">
        <ele>1018</ele>
        <time>2014-03-02T10:36:49Z</time>
      </trkpt>
      <trkpt lat="48.07903" lon="7.14125">
        <ele>1022</ele>
        <time>2014-03-02T10:36:53Z</time>
      </trkpt>
      <trkpt lat="48.07913" lon="7.1414">
        <ele>1020</ele>
        <time>2014-03-02T10:36:58Z</time>
      </trkpt>
      <trkpt lat="48.07922" lon="7.14155">
        <ele>1015</ele>
        <time>2014-03-02T10:37:03Z</time>
      </trkpt>
      <trkpt lat="48.07926" lon="7.14167">
        <ele>1009</ele>
        <time>2014-03-02T10:37:07Z</time>
      </trkpt>
      <trkpt lat="48.07927" lon="7.14208">
        <ele>1008</ele>
        <time>2014-03-02T10:37:11Z</time>
      </trkpt>
      <trkpt lat="48.07921" lon="7.14246">
        <ele>1005</ele>
        <time>2014-03-02T10:37:16Z</time>
      </trkpt>
      <trkpt lat="48.07912" lon="7.14287">
        <ele>1000</ele>
        <time>2014-03-02T10:37:20Z</time>
      </trkpt>
      <trkpt lat="48.0791" lon="7.14325">
        <ele>995</ele>
        <time>2014-03-02T10:37:25Z</time>
      </trkpt>
      <trkpt lat="48.07904" lon="7.14336">
        <ele>989</ele>
        <time>2014-03-02T10:37:30Z</time>
      </trkpt>
      <trkpt lat="48.07905" lon="7.14355">
        <ele>991</ele>
        <time>2014-03-02T10:37:34Z</time>
      </trkpt>
      <trkpt lat="48.07914" lon="7.14374">
        <ele>992</ele>
        <time>2014-03-02T10:37:38Z</time>
      </trkpt>
      <trkpt lat="48.07924" lon="7.14391">
        <ele>990</ele>
        <time>2014-03-02T10:37:42Z</time>
      </trkpt>
      <trkpt lat="48.07934" lon="7.14413">
        <ele>988</ele>
        <time>2014-03-02T10:37:46Z</time>
      </trkpt>
      <trkpt lat="48.07944" lon="7.1444">
        <ele>988</ele>
        <time>2014-03-02T10:37:50Z</time>
      </trkpt>
      <trkpt lat="48.07947" lon="7.1447">
        <ele>988</ele>
        <time>2014-03-02T10:37:54Z</time>
      </trkpt>
      <trkpt lat="48.07944" lon="7.14481">
        <ele>992</ele>
        <time>2014-03-02T10:37:59Z</time>
      </trkpt>
      <trkpt lat="48.07944" lon="7.14494">
        <ele>991</ele>
        <time>2014-03-02T10:38:05Z</time>
      </trkpt>
      <trkpt lat="48.0794" lon="7.14506">
        <ele>991</ele>
        <time>2014-03-02T10:38:11Z</time>
      </trkpt>
      <trkpt lat="48.07938" lon="7.1452">
        <ele>992</ele>
        <time>2014-03-02T10:38:16Z</time>
      </trkpt>
      <trkpt lat="48.07938" lon="7.14533">
        <ele>994</ele>
        <time>2014-03-02T10:38:21Z</time>
      </trkpt>
      <trkpt lat="48.07938" lon="7.14545">
        <ele>995</ele>
        <time>2014-03-02T10:38:26Z</time>
      </trkpt>
      <trkpt lat="48.07939" lon="7.1456">
        <ele>992</ele>
        <time>2014-03-02T10:38:31Z</time>
      </trkpt>
      <trkpt lat="48.07936" lon="7.14571">
        <ele>994</ele>
        <time>2014-03-02T10:38:37Z</time>
      </trkpt>
      <trkpt lat="48.07936" lon="7.14584">
        <ele>994</ele>
        <time>2014-03-02T10:38:41Z</time>
      </trkpt>
      <trkpt lat="48.0794" lon="7.14598">
        <ele>992</ele>
        <time>2014-03-02T10:38:45Z</time>
      </trkpt>
      <trkpt lat="48.07942" lon="7.14613">
        <ele>993</ele>
        <time>2014-03-02T10:38:49Z</time>
      </trkpt>
      <trkpt lat="48.07943" lon="7.14625">
        <ele>995</ele>
        <time>2014-03-02T10:38:55Z</time>
      </trkpt>
      <trkpt lat="48.07947" lon="7.14636">
        <ele>996</ele>
        <time>2014-03-02T10:38:59Z</time>
      </trkpt>
      <trkpt lat="48.07951" lon="7.14648">
        <ele>998</ele>
        <time>2014-03-02T10:39:03Z</time>
      </trkpt>
      <trkpt lat="48.07957" lon="7.14664">
        <ele>1000</ele>
        <time>2014-03-02T10:39:07Z</time>
      </trkpt>
      <trkpt lat="48.07962" lon="7.14681">
        <ele>999</ele>
        <time>2014-03-02T10:39:11Z</time>
      </trkpt>
      <trkpt lat="48.07966" lon="7.14697">
        <ele>997</ele>
        <time>2014-03-02T10:39:15Z</time>
      </trkpt>
      <trkpt lat="48.07968" lon="7.14714">
        <ele>998</ele>
        <time>2014-03-02T10:39:20Z</time>
      </trkpt>
      <trkpt lat="48.07966" lon="7.14727">
        <ele>998</ele>
        <time>2014-03-02T10:39:25Z</time>
      </trkpt>
      <trkpt lat="48.07962" lon="7.14739">
        <ele>1001</ele>
        <time>2014-03-02T10:39:30Z</time>
      </trkpt>
      <trkpt lat="48.07957" lon="7.14751">
        <ele>1003</ele>
        <time>2014-03-02T10:39:34Z</time>
      </trkpt>
      <trkpt lat="48.07954" lon="7.14762">
        <ele>1005</ele>
        <time>2014-03-02T10:39:39Z</time>
      </trkpt>
      <trkpt lat="48.07947" lon="7.14772">
        <ele>1010</ele>
        <time>2014-03-02T10:39:44Z</time>
      </trkpt>
      <trkpt lat="48.07943" lon="7.14786">
        <ele>1007</ele>
        <time>2014-03-02T10:39:48Z</time>
      </trkpt>
      <trkpt lat="48.07945" lon="7.14809">
        <ele>1004</ele>
        <time>2014-03-02T10:39:52Z</time>
      </trkpt>
      <trkpt lat="48.07946" lon="7.14822">
        <ele>1003</ele>
        <time>2014-03-02T10:39:57Z</time>
      </trkpt>
      <trkpt lat="48.07944" lon="7.14836">
        <ele>1001</ele>
        <time>2014-03-02T10:40:02Z</time>
      </trkpt>
      <trkpt lat="48.07949" lon="7.14886">
        <ele>1001</ele>
        <time>2014-03-02T10:40:07Z</time>
      </trkpt>
      <trkpt lat="48.07951" lon="7.14925">
        <ele>999</ele>
        <time>2014-03-02T10:40:11Z</time>
      </trkpt>
      <trkpt lat="48.07946" lon="7.14967">
        <ele>994</ele>
        <time>2014-03-02T10:40:15Z</time>
      </trkpt>
      <trkpt lat="48.07932" lon="7.15003">
        <ele>992</ele>
        <time>2014-03-02T10:40:19Z</time>
      </trkpt>
      <trkpt lat="48.07926" lon="7.1504">
        <ele>995</ele>
        <time>2014-03-02T10:40:23Z</time>
      </trkpt>
      <trkpt lat="48.0793" lon="7.15093">
        <ele>995</ele>
        <time>2014-03-02T10:40:28Z</time>
      </trkpt>
      <trkpt lat="48.07937" lon="7.15119">
        <ele>993</ele>
        <time>2014-03-02T10:40:32Z</time>
      </trkpt>
      <trkpt lat="48.07945" lon="7.1514">
        <ele>993</ele>
        <time>2014-03-02T10:40:36Z</time>
      </trkpt>
      <trkpt lat="48.0795" lon="7.15161">
        <ele>991</ele>
        <time>2014-03-02T10:40:39Z</time>
      </trkpt>
      <trkpt lat="48.07956" lon="7.15178">
        <ele>994</ele>
        <time>2014-03-02T10:40:44Z</time>
      </trkpt>
      <trkpt lat="48.0796" lon="7.15192">
        <ele>993</ele>
        <time>2014-03-02T10:40:48Z</time>
      </trkpt>
      <trkpt lat="48.07965" lon="7.15208">
        <ele>992</ele>
        <time>2014-03-02T10:40:51Z</time>
      </trkpt>
      <trkpt lat="48.07968" lon="7.15228">
        <ele>992</ele>
        <time>2014-03-02T10:40:56Z</time>
      </trkpt>
      <trkpt lat="48.07972" lon="7.15248">
        <ele>992</ele>
        <time>2014-03-02T10:41:00Z</time>
      </trkpt>
      <trkpt lat="48.07976" lon="7.15274">
        <ele>991</ele>
        <time>2014-03-02T10:41:04Z</time>
      </trkpt>
      <trkpt lat="48.07984" lon="7.15321">
        <ele>990</ele>
        <time>2014-03-02T10:41:09Z</time>
      </trkpt>
      <trkpt lat="48.07982" lon="7.15357">
        <ele>987</ele>
        <time>2014-03-02T10:41:13Z</time>
      </trkpt>
      <trkpt lat="48.07967" lon="7.15402">
        <ele>980</ele>
        <time>2014-03-02T10:41:17Z</time>
      </trkpt>
      <trkpt lat="48.0795" lon="7.1543">
        <ele>979</ele>
        <time>2014-03-02T10:41:22Z</time>
      </trkpt>
      <trkpt lat="48.07936" lon="7.15485">
        <ele>976</ele>
        <time>2014-03-02T10:41:27Z</time>
      </trkpt>
      <trkpt lat="48.07945" lon="7.15536">
        <ele>975</ele>
        <time>2014-03-02T10:41:31Z</time>
      </trkpt>
      <trkpt lat="48.07949" lon="7.15576">
        <ele>971</ele>
        <time>2014-03-02T10:41:36Z</time>
      </trkpt>
      <trkpt lat="48.07955" lon="7.15601">
        <ele>970</ele>
        <time>2014-03-02T10:41:41Z</time>
      </trkpt>
      <trkpt lat="48.07966" lon="7.15627">
        <ele>968</ele>
        <time>2014-03-02T10:41:46Z</time>
      </trkpt>
      <trkpt lat="48.07972" lon="7.15647">
        <ele>971</ele>
        <time>2014-03-02T10:41:50Z</time>
      </trkpt>
      <trkpt lat="48.0798" lon="7.15664">
        <ele>970</ele>
        <time>2014-03-02T10:41:54Z</time>
      </trkpt>
      <trkpt lat="48.07988" lon="7.1568">
        <ele>970</ele>
        <time>2014-03-02T10:41:58Z</time>
      </trkpt>
      <trkpt lat="48.07994" lon="7.15692">
        <ele>973</ele>
        <time>2014-03-02T10:42:02Z</time>
      </trkpt>
      <trkpt lat="48.07998" lon="7.15703">
        <ele>970</ele>
        <time>2014-03-02T10:42:06Z</time>
      </trkpt>
      <trkpt lat="48.08001" lon="7.15716">
        <ele>970</ele>
        <time>2014-03-02T10:42:10Z</time>
      </trkpt>
      <trkpt lat="48.08003" lon="7.1573">
        <ele>968</ele>
        <time>2014-03-02T10:42:15Z</time>
      </trkpt>
      <trkpt lat="48.08005" lon="7.15739">
        <ele>970</ele>
        <time>2014-03-02T10:42:19Z</time>
      </trkpt>
      <trkpt lat="48.08008" lon="7.15751">
        <ele>971</ele>
        <time>2014-03-02T10:42:23Z</time>
      </trkpt>
      <trkpt lat="48.08013" lon="7.15768">
        <ele>969</ele>
        <time>2014-03-02T10:42:28Z</time>
      </trkpt>
      <trkpt lat="48.08016" lon="7.15783">
        <ele>969</ele>
        <time>2014-03-02T10:42:32Z</time>
      </trkpt>
      <trkpt lat="48.08021" lon="7.15799">
        <ele>971</ele>
        <time>2014-03-02T10:42:37Z</time>
      </trkpt>
      <trkpt lat="48.08026" lon="7.15811">
        <ele>972</ele>
        <time>2014-03-02T10:42:41Z</time>
      </trkpt>
      <trkpt lat="48.0803" lon="7.15824">
        <ele>972</ele>
        <time>2014-03-02T10:42:45Z</time>
      </trkpt>
      <trkpt lat="48.08034" lon="7.15838">
        <ele>974</ele>
        <time>2014-03-02T10:42:49Z</time>
      </trkpt>
      <trkpt lat="48.08038" lon="7.15852">
        <ele>974</ele>
        <time>2014-03-02T10:42:54Z</time>
      </trkpt>
      <trkpt lat="48.0804" lon="7.15864">
        <ele>975</ele>
        <time>2014-03-02T10:42:59Z</time>
      </trkpt>
      <trkpt lat="48.08041" lon="7.15876">
        <ele>974</ele>
        <time>2014-03-02T10:43:03Z</time>
      </trkpt>
      <trkpt lat="48.08042" lon="7.15888">
        <ele>974</ele>
        <time>2014-03-02T10:43:09Z</time>
      </trkpt>
      <trkpt lat="48.0804" lon="7.159">
        <ele>976</ele>
        <time>2014-03-02T10:43:14Z</time>
      </trkpt>
      <trkpt lat="48.08039" lon="7.15912">
        <ele>977</ele>
        <time>2014-03-02T10:43:19Z</time>
      </trkpt>
      <trkpt lat="48.08039" lon="7.15931">
        <ele>975</ele>
        <time>2014-03-02T10:43:24Z</time>
      </trkpt>
      <trkpt lat="48.08041" lon="7.15946">
        <ele>976</ele>
        <time>2014-03-02T10:43:28Z</time>
      </trkpt>
      <trkpt lat="48.08041" lon="7.1596">
        <ele>978</ele>
        <time>2014-03-02T10:43:31Z</time>
      </trkpt>
      <trkpt lat="48.0804" lon="7.15974">
        <ele>976</ele>
        <time>2014-03-02T10:43:36Z</time>
      </trkpt>
      <trkpt lat="48.0804" lon="7.15988">
        <ele>975</ele>
        <time>2014-03-02T10:43:39Z</time>
      </trkpt>
      <trkpt lat="48.08037" lon="7.16002">
        <ele>976</ele>
        <time>2014-03-02T10:43:44Z</time>
      </trkpt>
      <trkpt lat="48.08033" lon="7.16015">
        <ele>976</ele>
        <time>2014-03-02T10:43:48Z</time>
      </trkpt>
      <trkpt lat="48.08029" lon="7.16027">
        <ele>983</ele>
        <time>2014-03-02T10:43:52Z</time>
      </trkpt>
      <trkpt lat="48.08025" lon="7.16037">
        <ele>987</ele>
        <time>2014-03-02T10:43:57Z</time>
      </trkpt>
      <trkpt lat="48.08022" lon="7.16049">
        <ele>990</ele>
        <time>2014-03-02T10:44:01Z</time>
      </trkpt>
      <trkpt lat="48.08019" lon="7.16061">
        <ele>989</ele>
        <time>2014-03-02T10:44:06Z</time>
      </trkpt>
      <trkpt lat="48.08016" lon="7.16074">
        <ele>989</ele>
        <time>2014-03-02T10:44:18Z</time>
      </trkpt>
      <trkpt lat="48.08011" lon="7.16083">
        <ele>988</ele>
        <time>2014-03-02T10:44:30Z</time>
      </trkpt>
      <trkpt lat="48.08009" lon="7.16094">
        <ele>987</ele>
        <time>2014-03-02T10:44:35Z</time>
      </trkpt>
      <trkpt lat="48.08007" lon="7.16105">
        <ele>988</ele>
        <time>2014-03-02T10:44:39Z</time>
      </trkpt>
      <trkpt lat="48.08002" lon="7.1612">
        <ele>986</ele>
        <time>2014-03-02T10:44:43Z</time>
      </trkpt>
      <trkpt lat="48.08002" lon="7.16136">
        <ele>985</ele>
        <time>2014-03-02T10:44:47Z</time>
      </trkpt>
      <trkpt lat="48.07998" lon="7.16154">
        <ele>987</ele>
        <time>2014-03-02T10:44:52Z</time>
      </trkpt>
      <trkpt lat="48.08" lon="7.16179">
        <ele>982</ele>
        <time>2014-03-02T10:44:55Z</time>
      </trkpt>
      <trkpt lat="48.07998" lon="7.16192">
        <ele>984</ele>
        <time>2014-03-02T10:45:00Z</time>
      </trkpt>
      <trkpt lat="48.07996" lon="7.16213">
        <ele>977</ele>
        <time>2014-03-02T10:45:03Z</time>
      </trkpt>
      <trkpt lat="48.07996" lon="7.16243">
        <ele>977</ele>
        <time>2014-03-02T10:45:08Z</time>
      </trkpt>
      <trkpt lat="48.07999" lon="7.16261">
        <ele>977</ele>
        <time>2014-03-02T10:45:12Z</time>
      </trkpt>
      <trkpt lat="48.07998" lon="7.16279">
        <ele>979</ele>
        <time>2014-03-02T10:45:16Z</time>
      </trkpt>
      <trkpt lat="48.07997" lon="7.16303">
        <ele>978</ele>
        <time>2014-03-02T10:45:20Z</time>
      </trkpt>
      <trkpt lat="48.07982" lon="7.16341">
        <ele>974</ele>
        <time>2014-03-02T10:45:25Z</time>
      </trkpt>
      <trkpt lat="48.07967" lon="7.16376">
        <ele>971</ele>
        <time>2014-03-02T10:45:30Z</time>
      </trkpt>
      <trkpt lat="48.0796" lon="7.16415">
        <ele>968</ele>
        <time>2014-03-02T10:45:35Z</time>
      </trkpt>
      <trkpt lat="48.07951" lon="7.1646">
        <ele>966</ele>
        <time>2014-03-02T10:45:39Z</time>
      </trkpt>
      <trkpt lat="48.07928" lon="7.16496">
        <ele>957</ele>
        <time>2014-03-02T10:45:43Z</time>
      </trkpt>
      <trkpt lat="48.07923" lon="7.16506">
        <ele>959</ele>
        <time>2014-03-02T10:45:49Z</time>
      </trkpt>
      <trkpt lat="48.07919" lon="7.16604">
        <ele>953</ele>
        <time>2014-03-02T10:45:58Z</time>
      </trkpt>
      <trkpt lat="48.07917" lon="7.16628">
        <ele>951</ele>
        <time>2014-03-02T10:46:02Z</time>
      </trkpt>
      <trkpt lat="48.07915" lon="7.16658">
        <ele>956</ele>
        <time>2014-03-02T10:46:06Z</time>
      </trkpt>
      <trkpt lat="48.07918" lon="7.16702">
        <ele>954</ele>
        <time>2014-03-02T10:46:10Z</time>
      </trkpt>
      <trkpt lat="48.07915" lon="7.16729">
        <ele>952</ele>
        <time>2014-03-02T10:46:15Z</time>
      </trkpt>
      <trkpt lat="48.07913" lon="7.16749">
        <ele>950</ele>
        <time>2014-03-02T10:46:19Z</time>
      </trkpt>
      <trkpt lat="48.07911" lon="7.16767">
        <ele>943</ele>
        <time>2014-03-02T10:46:23Z</time>
      </trkpt>
      <trkpt lat="48.07913" lon="7.16794">
        <ele>941</ele>
        <time>2014-03-02T10:46:28Z</time>
      </trkpt>
      <trkpt lat="48.07921" lon="7.16821">
        <ele>939</ele>
        <time>2014-03-02T10:46:32Z</time>
      </trkpt>
      <trkpt lat="48.07927" lon="7.16842">
        <ele>941</ele>
        <time>2014-03-02T10:46:37Z</time>
      </trkpt>
      <trkpt lat="48.07932" lon="7.16871">
        <ele>949</ele>
        <time>2014-03-02T10:46:42Z</time>
      </trkpt>
      <trkpt lat="48.07943" lon="7.16889">
        <ele>951</ele>
        <time>2014-03-02T10:46:46Z</time>
      </trkpt>
      <trkpt lat="48.07955" lon="7.1691">
        <ele>945</ele>
        <time>2014-03-02T10:46:50Z</time>
      </trkpt>
      <trkpt lat="48.07965" lon="7.16943">
        <ele>945</ele>
        <time>2014-03-02T10:46:54Z</time>
      </trkpt>
      <trkpt lat="48.07966" lon="7.1698">
        <ele>949</ele>
        <time>2014-03-02T10:46:59Z</time>
      </trkpt>
      <trkpt lat="48.07969" lon="7.17004">
        <ele>950</ele>
        <time>2014-03-02T10:47:04Z</time>
      </trkpt>
      <trkpt lat="48.07973" lon="7.17034">
        <ele>948</ele>
        <time>2014-03-02T10:47:09Z</time>
      </trkpt>
      <trkpt lat="48.07977" lon="7.17055">
        <ele>946</ele>
        <time>2014-03-02T10:47:13Z</time>
      </trkpt>
      <trkpt lat="48.07989" lon="7.17077">
        <ele>944</ele>
        <time>2014-03-02T10:47:18Z</time>
      </trkpt>
      <trkpt lat="48.07994" lon="7.17091">
        <ele>944</ele>
        <time>2014-03-02T10:47:22Z</time>
      </trkpt>
      <trkpt lat="48.08003" lon="7.17117">
        <ele>940</ele>
        <time>2014-03-02T10:47:27Z</time>
      </trkpt>
      <trkpt lat="48.08023" lon="7.17159">
        <ele>939</ele>
        <time>2014-03-02T10:47:32Z</time>
      </trkpt>
      <trkpt lat="48.08038" lon="7.17192">
        <ele>938</ele>
        <time>2014-03-02T10:47:37Z</time>
      </trkpt>
      <trkpt lat="48.08048" lon="7.17213">
        <ele>935</ele>
        <time>2014-03-02T10:47:41Z</time>
      </trkpt>
      <trkpt lat="48.08061" lon="7.17236">
        <ele>935</ele>
        <time>2014-03-02T10:47:45Z</time>
      </trkpt>
      <trkpt lat="48.08075" lon="7.17259">
        <ele>938</ele>
        <time>2014-03-02T10:47:50Z</time>
      </trkpt>
      <trkpt lat="48.08082" lon="7.17275">
        <ele>942</ele>
        <time>2014-03-02T10:47:54Z</time>
      </trkpt>
      <trkpt lat="48.08094" lon="7.17292">
        <ele>940</ele>
        <time>2014-03-02T10:47:59Z</time>
      </trkpt>
      <trkpt lat="48.08105" lon="7.1731">
        <ele>940</ele>
        <time>2014-03-02T10:48:04Z</time>
      </trkpt>
      <trkpt lat="48.08112" lon="7.17323">
        <ele>939</ele>
        <time>2014-03-02T10:48:08Z</time>
      </trkpt>
      <trkpt lat="48.0812" lon="7.17339">
        <ele>941</ele>
        <time>2014-03-02T10:48:13Z</time>
      </trkpt>
      <trkpt lat="48.08127" lon="7.17349">
        <ele>942</ele>
        <time>2014-03-02T10:48:17Z</time>
      </trkpt>
      <trkpt lat="48.08133" lon="7.17365">
        <ele>943</ele>
        <time>2014-03-02T10:48:22Z</time>
      </trkpt>
      <trkpt lat="48.08135" lon="7.1739">
        <ele>944</ele>
        <time>2014-03-02T10:48:26Z</time>
      </trkpt>
      <trkpt lat="48.0814" lon="7.17407">
        <ele>949</ele>
        <time>2014-03-02T10:48:30Z</time>
      </trkpt>
      <trkpt lat="48.08145" lon="7.17428">
        <ele>948</ele>
        <time>2014-03-02T10:48:35Z</time>
      </trkpt>
      <trkpt lat="48.08152" lon="7.17452">
        <ele>946</ele>
        <time>2014-03-02T10:48:39Z</time>
      </trkpt>
      <trkpt lat="48.08155" lon="7.17468">
        <ele>944</ele>
        <time>2014-03-02T10:48:44Z</time>
      </trkpt>
      <trkpt lat="48.0816" lon="7.17492">
        <ele>943</ele>
        <time>2014-03-02T10:48:48Z</time>
      </trkpt>
      <trkpt lat="48.08164" lon="7.17511">
        <ele>947</ele>
        <time>2014-03-02T10:48:53Z</time>
      </trkpt>
      <trkpt lat="48.08165" lon="7.17539">
        <ele>935</ele>
        <time>2014-03-02T10:48:57Z</time>
      </trkpt>
      <trkpt lat="48.08174" lon="7.17584">
        <ele>937</ele>
        <time>2014-03-02T10:49:02Z</time>
      </trkpt>
      <trkpt lat="48.08186" lon="7.17611">
        <ele>936</ele>
        <time>2014-03-02T10:49:06Z</time>
      </trkpt>
      <trkpt lat="48.08196" lon="7.17638">
        <ele>935</ele>
        <time>2014-03-02T10:49:11Z</time>
      </trkpt>
      <trkpt lat="48.08203" lon="7.17669">
        <ele>935</ele>
        <time>2014-03-02T10:49:14Z</time>
      </trkpt>
      <trkpt lat="48.08209" lon="7.177">
        <ele>926</ele>
        <time>2014-03-02T10:49:18Z</time>
      </trkpt>
      <trkpt lat="48.08219" lon="7.17728">
        <ele>923</ele>
        <time>2014-03-02T10:49:23Z</time>
      </trkpt>
      <trkpt lat="48.08236" lon="7.17755">
        <ele>924</ele>
        <time>2014-03-02T10:49:28Z</time>
      </trkpt>
      <trkpt lat="48.08252" lon="7.17774">
        <ele>922</ele>
        <time>2014-03-02T10:49:32Z</time>
      </trkpt>
      <trkpt lat="48.08272" lon="7.1779">
        <ele>926</ele>
        <time>2014-03-02T10:49:37Z</time>
      </trkpt>
      <trkpt lat="48.08286" lon="7.17801">
        <ele>935</ele>
        <time>2014-03-02T10:49:41Z</time>
      </trkpt>
      <trkpt lat="48.08298" lon="7.17817">
        <ele>933</ele>
        <time>2014-03-02T10:49:45Z</time>
      </trkpt>
      <trkpt lat="48.08312" lon="7.17833">
        <ele>931</ele>
        <time>2014-03-02T10:49:49Z</time>
      </trkpt>
      <trkpt lat="48.08325" lon="7.17846">
        <ele>932</ele>
        <time>2014-03-02T10:49:53Z</time>
      </trkpt>
      <trkpt lat="48.08337" lon="7.17867">
        <ele>928</ele>
        <time>2014-03-02T10:49:58Z</time>
      </trkpt>
      <trkpt lat="48.08346" lon="7.17886">
        <ele>929</ele>
        <time>2014-03-02T10:50:02Z</time>
      </trkpt>
      <trkpt lat="48.08355" lon="7.17909">
        <ele>928</ele>
        <time>2014-03-02T10:50:07Z</time>
      </trkpt>
      <trkpt lat="48.08363" lon="7.17934">
        <ele>924</ele>
        <time>2014-03-02T10:50:11Z</time>
      </trkpt>
      <trkpt lat="48.08372" lon="7.17966">
        <ele>922</ele>
        <time>2014-03-02T10:50:15Z</time>
      </trkpt>
      <trkpt lat="48.08374" lon="7.17994">
        <ele>920</ele>
        <time>2014-03-02T10:50:19Z</time>
      </trkpt>
      <trkpt lat="48.08373" lon="7.18024">
        <ele>922</ele>
        <time>2014-03-02T10:50:23Z</time>
      </trkpt>
      <trkpt lat="48.08371" lon="7.18046">
        <ele>925</ele>
        <time>2014-03-02T10:50:27Z</time>
      </trkpt>
      <trkpt lat="48.08368" lon="7.18056">
        <ele>926</ele>
        <time>2014-03-02T10:50:31Z</time>
      </trkpt>
      <trkpt lat="48.08362" lon="7.18076">
        <ele>924</ele>
        <time>2014-03-02T10:50:36Z</time>
      </trkpt>
      <trkpt lat="48.08357" lon="7.18098">
        <ele>924</ele>
        <time>2014-03-02T10:50:40Z</time>
      </trkpt>
      <trkpt lat="48.08354" lon="7.1812">
        <ele>925</ele>
        <time>2014-03-02T10:50:45Z</time>
      </trkpt>
      <trkpt lat="48.0835" lon="7.18136">
        <ele>926</ele>
        <time>2014-03-02T10:50:50Z</time>
      </trkpt>
      <trkpt lat="48.08351" lon="7.18149">
        <ele>929</ele>
        <time>2014-03-02T10:50:55Z</time>
      </trkpt>
      <trkpt lat="48.08351" lon="7.18169">
        <ele>928</ele>
        <time>2014-03-02T10:50:59Z</time>
      </trkpt>
      <trkpt lat="48.08352" lon="7.18187">
        <ele>929</ele>
        <time>2014-03-02T10:51:04Z</time>
      </trkpt>
      <trkpt lat="48.0835" lon="7.18201">
        <ele>924</ele>
        <time>2014-03-02T10:51:08Z</time>
      </trkpt>
      <trkpt lat="48.08353" lon="7.18219">
        <ele>927</ele>
        <time>2014-03-02T10:51:13Z</time>
      </trkpt>
      <trkpt lat="48.0836" lon="7.18238">
        <ele>922</ele>
        <time>2014-03-02T10:51:17Z</time>
      </trkpt>
      <trkpt lat="48.08369" lon="7.18254">
        <ele>924</ele>
        <time>2014-03-02T10:51:22Z</time>
      </trkpt>
      <trkpt lat="48.08376" lon="7.18269">
        <ele>923</ele>
        <time>2014-03-02T10:51:27Z</time>
      </trkpt>
      <trkpt lat="48.084" lon="7.18316">
        <ele>915</ele>
        <time>2014-03-02T10:51:35Z</time>
      </trkpt>
      <trkpt lat="48.08403" lon="7.18331">
        <ele>920</ele>
        <time>2014-03-02T10:51:39Z</time>
      </trkpt>
      <trkpt lat="48.08406" lon="7.18344">
        <ele>919</ele>
        <time>2014-03-02T10:51:43Z</time>
      </trkpt>
      <trkpt lat="48.08408" lon="7.18354">
        <ele>916</ele>
        <time>2014-03-02T10:51:47Z</time>
      </trkpt>
      <trkpt lat="48.08416" lon="7.18381">
        <ele>918</ele>
        <time>2014-03-02T10:51:52Z</time>
      </trkpt>
      <trkpt lat="48.08424" lon="7.18405">
        <ele>917</ele>
        <time>2014-03-02T10:51:57Z</time>
      </trkpt>
      <trkpt lat="48.08426" lon="7.18423">
        <ele>917</ele>
        <time>2014-03-02T10:52:02Z</time>
      </trkpt>
      <trkpt lat="48.0843" lon="7.1844">
        <ele>919</ele>
        <time>2014-03-02T10:52:06Z</time>
      </trkpt>
      <trkpt lat="48.08437" lon="7.18453">
        <ele>919</ele>
        <time>2014-03-02T10:52:10Z</time>
      </trkpt>
      <trkpt lat="48.08442" lon="7.18462">
        <ele>919</ele>
        <time>2014-03-02T10:52:14Z</time>
      </trkpt>
      <trkpt lat="48.08442" lon="7.18474">
        <ele>918</ele>
        <time>2014-03-02T10:52:19Z</time>
      </trkpt>
      <trkpt lat="48.08445" lon="7.18489">
        <ele>916</ele>
        <time>2014-03-02T10:52:22Z</time>
      </trkpt>
      <trkpt lat="48.08451" lon="7.18513">
        <ele>911</ele>
        <time>2014-03-02T10:52:27Z</time>
      </trkpt>
      <trkpt lat="48.08459" lon="7.18531">
        <ele>908</ele>
        <time>2014-03-02T10:52:31Z</time>
      </trkpt>
      <trkpt lat="48.08485" lon="7.18586">
        <ele>907</ele>
        <time>2014-03-02T10:52:41Z</time>
      </trkpt>
      <trkpt lat="48.08491" lon="7.18595">
        <ele>906</ele>
        <time>2014-03-02T10:59:36Z</time>
      </trkpt>
      <trkpt lat="48.08499" lon="7.18596">
        <ele>901</ele>
        <time>2014-03-02T10:59:40Z</time>
      </trkpt>
      <trkpt lat="48.08517" lon="7.18595">
        <ele>899</ele>
        <time>2014-03-02T10:59:45Z</time>
      </trkpt>
      <trkpt lat="48.08533" lon="7.18593">
        <ele>894</ele>
        <time>2014-03-02T10:59:49Z</time>
      </trkpt>
      <trkpt lat="48.08563" lon="7.18594">
        <ele>894</ele>
        <time>2014-03-02T10:59:54Z</time>
      </trkpt>
      <trkpt lat="48.08583" lon="7.18595">
        <ele>893</ele>
        <time>2014-03-02T10:59:58Z</time>
      </trkpt>
      <trkpt lat="48.08596" lon="7.18595">
        <ele>897</ele>
        <time>2014-03-02T11:00:02Z</time>
      </trkpt>
      <trkpt lat="48.08609" lon="7.18597">
        <ele>898</ele>
        <time>2014-03-02T11:00:06Z</time>
      </trkpt>
      <trkpt lat="48.08622" lon="7.18596">
        <ele>902</ele>
        <time>2014-03-02T11:00:11Z</time>
      </trkpt>
      <trkpt lat="48.08636" lon="7.18596">
        <ele>899</ele>
        <time>2014-03-02T11:00:15Z</time>
      </trkpt>
      <trkpt lat="48.08649" lon="7.18595">
        <ele>901</ele>
        <time>2014-03-02T11:00:19Z</time>
      </trkpt>
      <trkpt lat="48.08661" lon="7.18602">
        <ele>898</ele>
        <time>2014-03-02T11:00:23Z</time>
      </trkpt>
      <trkpt lat="48.08674" lon="7.18604">
        <ele>897</ele>
        <time>2014-03-02T11:00:28Z</time>
      </trkpt>
      <trkpt lat="48.08686" lon="7.18609">
        <ele>896</ele>
        <time>2014-03-02T11:00:33Z</time>
      </trkpt>
      <trkpt lat="48.08697" lon="7.18615">
        <ele>899</ele>
        <time>2014-03-02T11:00:37Z</time>
      </trkpt>
      <trkpt lat="48.08711" lon="7.18625">
        <ele>897</ele>
        <time>2014-03-02T11:00:42Z</time>
      </trkpt>
      <trkpt lat="48.08732" lon="7.18623">
        <ele>896</ele>
        <time>2014-03-02T11:00:47Z</time>
      </trkpt>
      <trkpt lat="48.08752" lon="7.18619">
        <ele>894</ele>
        <time>2014-03-02T11:00:50Z</time>
      </trkpt>
      <trkpt lat="48.0877" lon="7.18623">
        <ele>891</ele>
        <time>2014-03-02T11:00:55Z</time>
      </trkpt>
      <trkpt lat="48.08782" lon="7.18627">
        <ele>893</ele>
        <time>2014-03-02T11:01:00Z</time>
      </trkpt>
      <trkpt lat="48.08798" lon="7.18626">
        <ele>892</ele>
        <time>2014-03-02T11:01:05Z</time>
      </trkpt>
      <trkpt lat="48.08814" lon="7.18627">
        <ele>892</ele>
        <time>2014-03-02T11:01:09Z</time>
      </trkpt>
      <trkpt lat="48.08832" lon="7.18626">
        <ele>896</ele>
        <time>2014-03-02T11:01:14Z</time>
      </trkpt>
      <trkpt lat="48.08849" lon="7.18627">
        <ele>892</ele>
        <time>2014-03-02T11:01:18Z</time>
      </trkpt>
      <trkpt lat="48.08865" lon="7.18624">
        <ele>893</ele>
        <time>2014-03-02T11:01:22Z</time>
      </trkpt>
      <trkpt lat="48.08879" lon="7.18624">
        <ele>893</ele>
        <time>2014-03-02T11:01:26Z</time>
      </trkpt>
      <trkpt lat="48.08897" lon="7.18625">
        <ele>890</ele>
        <time>2014-03-02T11:01:31Z</time>
      </trkpt>
      <trkpt lat="48.08913" lon="7.18627">
        <ele>888</ele>
        <time>2014-03-02T11:01:35Z</time>
      </trkpt>
      <trkpt lat="48.08929" lon="7.18633">
        <ele>889</ele>
        <time>2014-03-02T11:01:39Z</time>
      </trkpt>
      <trkpt lat="48.08944" lon="7.18634">
        <ele>889</ele>
        <time>2014-03-02T11:01:43Z</time>
      </trkpt>
      <trkpt lat="48.08966" lon="7.18648">
        <ele>884</ele>
        <time>2014-03-02T11:01:48Z</time>
      </trkpt>
      <trkpt lat="48.08991" lon="7.18657">
        <ele>883</ele>
        <time>2014-03-02T11:01:53Z</time>
      </trkpt>
      <trkpt lat="48.09013" lon="7.18671">
        <ele>879</ele>
        <time>2014-03-02T11:01:57Z</time>
      </trkpt>
      <trkpt lat="48.09033" lon="7.18704">
        <ele>879</ele>
        <time>2014-03-02T11:02:02Z</time>
      </trkpt>
      <trkpt lat="48.0904" lon="7.18726">
        <ele>880</ele>
        <time>2014-03-02T11:02:06Z</time>
      </trkpt>
      <trkpt lat="48.09055" lon="7.18755">
        <ele>880</ele>
        <time>2014-03-02T11:02:11Z</time>
      </trkpt>
      <trkpt lat="48.09066" lon="7.18798">
        <ele>880</ele>
        <time>2014-03-02T11:02:16Z</time>
      </trkpt>
      <trkpt lat="48.09074" lon="7.18835">
        <ele>878</ele>
        <time>2014-03-02T11:02:20Z</time>
      </trkpt>
      <trkpt lat="48.09085" lon="7.18869">
        <ele>877</ele>
        <time>2014-03-02T11:02:24Z</time>
      </trkpt>
      <trkpt lat="48.09096" lon="7.18903">
        <ele>871</ele>
        <time>2014-03-02T11:02:28Z</time>
      </trkpt>
      <trkpt lat="48.09102" lon="7.18933">
        <ele>869</ele>
        <time>2014-03-02T11:02:32Z</time>
      </trkpt>
      <trkpt lat="48.09099" lon="7.18965">
        <ele>864</ele>
        <time>2014-03-02T11:02:36Z</time>
      </trkpt>
      <trkpt lat="48.09094" lon="7.19">
        <ele>859</ele>
        <time>2014-03-02T11:02:40Z</time>
      </trkpt>
      <trkpt lat="48.09087" lon="7.19047">
        <ele>857</ele>
        <time>2014-03-02T11:02:44Z</time>
      </trkpt>
      <trkpt lat="48.09082" lon="7.19097">
        <ele>853</ele>
        <time>2014-03-02T11:02:48Z</time>
      </trkpt>
      <trkpt lat="48.0908" lon="7.19134">
        <ele>848</ele>
        <time>2014-03-02T11:02:52Z</time>
      </trkpt>
      <trkpt lat="48.0907" lon="7.19172">
        <ele>850</ele>
        <time>2014-03-02T11:02:57Z</time>
      </trkpt>
      <trkpt lat="48.09069" lon="7.19212">
        <ele>847</ele>
        <time>2014-03-02T11:03:02Z</time>
      </trkpt>
      <trkpt lat="48.09067" lon="7.19243">
        <ele>845</ele>
        <time>2014-03-02T11:03:06Z</time>
      </trkpt>
      <trkpt lat="48.09078" lon="7.19255">
        <ele>845</ele>
        <time>2014-03-02T11:03:11Z</time>
      </trkpt>
      <trkpt lat="48.09093" lon="7.19277">
        <ele>836</ele>
        <time>2014-03-02T11:03:15Z</time>
      </trkpt>
      <trkpt lat="48.09082" lon="7.19314">
        <ele>834</ele>
        <time>2014-03-02T11:03:19Z</time>
      </trkpt>
      <trkpt lat="48.0906" lon="7.19352">
        <ele>827</ele>
        <time>2014-03-02T11:03:24Z</time>
      </trkpt>
      <trkpt lat="48.09036" lon="7.19398">
        <ele>823</ele>
        <time>2014-03-02T11:03:28Z</time>
      </trkpt>
      <trkpt lat="48.09031" lon="7.19443">
        <ele>817</ele>
        <time>2014-03-02T11:03:32Z</time>
      </trkpt>
      <trkpt lat="48.09041" lon="7.19507">
        <ele>813</ele>
        <time>2014-03-02T11:03:37Z</time>
      </trkpt>
      <trkpt lat="48.09052" lon="7.19556">
        <ele>810</ele>
        <time>2014-03-02T11:03:41Z</time>
      </trkpt>
      <trkpt lat="48.09068" lon="7.19614">
        <ele>807</ele>
        <time>2014-03-02T11:03:46Z</time>
      </trkpt>
      <trkpt lat="48.0909" lon="7.19673">
        <ele>805</ele>
        <time>2014-03-02T11:03:51Z</time>
      </trkpt>
      <trkpt lat="48.09099" lon="7.19718">
        <ele>804</ele>
        <time>2014-03-02T11:03:55Z</time>
      </trkpt>
      <trkpt lat="48.09106" lon="7.19762">
        <ele>801</ele>
        <time>2014-03-02T11:03:58Z</time>
      </trkpt>
      <trkpt lat="48.09115" lon="7.19803">
        <ele>800</ele>
        <time>2014-03-02T11:04:03Z</time>
      </trkpt>
      <trkpt lat="48.09131" lon="7.19844">
        <ele>800</ele>
        <time>2014-03-02T11:04:08Z</time>
      </trkpt>
      <trkpt lat="48.09146" lon="7.19873">
        <ele>802</ele>
        <time>2014-03-02T11:04:12Z</time>
      </trkpt>
      <trkpt lat="48.0916" lon="7.19897">
        <ele>802</ele>
        <time>2014-03-02T11:04:17Z</time>
      </trkpt>
      <trkpt lat="48.0917" lon="7.19911">
        <ele>802</ele>
        <time>2014-03-02T11:04:21Z</time>
      </trkpt>
      <trkpt lat="48.0918" lon="7.19929">
        <ele>802</ele>
        <time>2014-03-02T11:04:25Z</time>
      </trkpt>
      <trkpt lat="48.09187" lon="7.19942">
        <ele>802</ele>
        <time>2014-03-02T11:04:30Z</time>
      </trkpt>
      <trkpt lat="48.09193" lon="7.19961">
        <ele>807</ele>
        <time>2014-03-02T11:04:35Z</time>
      </trkpt>
      <trkpt lat="48.09197" lon="7.1998">
        <ele>807</ele>
        <time>2014-03-02T11:04:39Z</time>
      </trkpt>
      <trkpt lat="48.09201" lon="7.19999">
        <ele>805</ele>
        <time>2014-03-02T11:04:43Z</time>
      </trkpt>
      <trkpt lat="48.09211" lon="7.20018">
        <ele>807</ele>
        <time>2014-03-02T11:04:48Z</time>
      </trkpt>
      <trkpt lat="48.09216" lon="7.20029">
        <ele>802</ele>
        <time>2014-03-02T11:04:52Z</time>
      </trkpt>
      <trkpt lat="48.09217" lon="7.20041">
        <ele>806</ele>
        <time>2014-03-02T11:04:56Z</time>
      </trkpt>
      <trkpt lat="48.0922" lon="7.20064">
        <ele>804</ele>
        <time>2014-03-02T11:05:00Z</time>
      </trkpt>
      <trkpt lat="48.09236" lon="7.2011">
        <ele>806</ele>
        <time>2014-03-02T11:05:05Z</time>
      </trkpt>
      <trkpt lat="48.09242" lon="7.20149">
        <ele>811</ele>
        <time>2014-03-02T11:05:10Z</time>
      </trkpt>
      <trkpt lat="48.09259" lon="7.20194">
        <ele>811</ele>
        <time>2014-03-02T11:05:14Z</time>
      </trkpt>
      <trkpt lat="48.09263" lon="7.20242">
        <ele>805</ele>
        <time>2014-03-02T11:05:18Z</time>
      </trkpt>
      <trkpt lat="48.09262" lon="7.20298">
        <ele>798</ele>
        <time>2014-03-02T11:05:22Z</time>
      </trkpt>
      <trkpt lat="48.09262" lon="7.20328">
        <ele>796</ele>
        <time>2014-03-02T11:05:26Z</time>
      </trkpt>
      <trkpt lat="48.0925" lon="7.20325">
        <ele>798</ele>
        <time>2014-03-02T11:05:30Z</time>
      </trkpt>
      <trkpt lat="48.09239" lon="7.20341">
        <ele>797</ele>
        <time>2014-03-02T11:05:35Z</time>
      </trkpt>
      <trkpt lat="48.09232" lon="7.2039">
        <ele>792</ele>
        <time>2014-03-02T11:05:40Z</time>
      </trkpt>
      <trkpt lat="48.0923" lon="7.20416">
        <ele>789</ele>
        <time>2014-03-02T11:05:44Z</time>
      </trkpt>
      <trkpt lat="48.09226" lon="7.20437">
        <ele>793</ele>
        <time>2014-03-02T11:05:47Z</time>
      </trkpt>
      <trkpt lat="48.09214" lon="7.20454">
        <ele>792</ele>
        <time>2014-03-02T11:05:52Z</time>
      </trkpt>
      <trkpt lat="48.09202" lon="7.20469">
        <ele>791</ele>
        <time>2014-03-02T11:05:56Z</time>
      </trkpt>
      <trkpt lat="48.09193" lon="7.20487">
        <ele>791</ele>
        <time>2014-03-02T11:06:01Z</time>
      </trkpt>
      <trkpt lat="48.09188" lon="7.20507">
        <ele>792</ele>
        <time>2014-03-02T11:06:05Z</time>
      </trkpt>
      <trkpt lat="48.09177" lon="7.20541">
        <ele>792</ele>
        <time>2014-03-02T11:06:10Z</time>
      </trkpt>
      <trkpt lat="48.09157" lon="7.20581">
        <ele>784</ele>
        <time>2014-03-02T11:06:15Z</time>
      </trkpt>
      <trkpt lat="48.09146" lon="7.20592">
        <ele>785</ele>
        <time>2014-03-02T11:06:19Z</time>
      </trkpt>
      <trkpt lat="48.0914" lon="7.20593">
        <ele>792</ele>
        <time>2014-03-02T11:08:09Z</time>
      </trkpt>
      <trkpt lat="48.09123" lon="7.20585">
        <ele>786</ele>
        <time>2014-03-02T11:08:14Z</time>
      </trkpt>
      <trkpt lat="48.09096" lon="7.20558">
        <ele>775</ele>
        <time>2014-03-02T11:08:18Z</time>
      </trkpt>
      <trkpt lat="48.09069" lon="7.20548">
        <ele>771</ele>
        <time>2014-03-02T11:08:22Z</time>
      </trkpt>
      <trkpt lat="48.09045" lon="7.20568">
        <ele>769</ele>
        <time>2014-03-02T11:08:26Z</time>
      </trkpt>
      <trkpt lat="48.0902" lon="7.20591">
        <ele>761</ele>
        <time>2014-03-02T11:08:30Z</time>
      </trkpt>
      <trkpt lat="48.08997" lon="7.20591">
        <ele>759</ele>
        <time>2014-03-02T11:08:34Z</time>
      </trkpt>
      <trkpt lat="48.08975" lon="7.20577">
        <ele>755</ele>
        <time>2014-03-02T11:08:39Z</time>
      </trkpt>
      <trkpt lat="48.08953" lon="7.20554">
        <ele>752</ele>
        <time>2014-03-02T11:08:44Z</time>
      </trkpt>
      <trkpt lat="48.08936" lon="7.20542">
        <ele>750</ele>
        <time>2014-03-02T11:08:48Z</time>
      </trkpt>
      <trkpt lat="48.08908" lon="7.20559">
        <ele>748</ele>
        <time>2014-03-02T11:08:53Z</time>
      </trkpt>
      <trkpt lat="48.08886" lon="7.20578">
        <ele>749</ele>
        <time>2014-03-02T11:08:57Z</time>
      </trkpt>
      <trkpt lat="48.08865" lon="7.20601">
        <ele>747</ele>
        <time>2014-03-02T11:09:01Z</time>
      </trkpt>
      <trkpt lat="48.08848" lon="7.20638">
        <ele>740</ele>
        <time>2014-03-02T11:09:06Z</time>
      </trkpt>
      <trkpt lat="48.08837" lon="7.20667">
        <ele>736</ele>
        <time>2014-03-02T11:09:10Z</time>
      </trkpt>
      <trkpt lat="48.08829" lon="7.207">
        <ele>731</ele>
        <time>2014-03-02T11:09:14Z</time>
      </trkpt>
      <trkpt lat="48.08821" lon="7.20737">
        <ele>726</ele>
        <time>2014-03-02T11:09:19Z</time>
      </trkpt>
      <trkpt lat="48.08802" lon="7.20754">
        <ele>725</ele>
        <time>2014-03-02T11:09:23Z</time>
      </trkpt>
      <trkpt lat="48.08783" lon="7.20761">
        <ele>723</ele>
        <time>2014-03-02T11:09:27Z</time>
      </trkpt>
      <trkpt lat="48.08749" lon="7.20769">
        <ele>721</ele>
        <time>2014-03-02T11:09:31Z</time>
      </trkpt>
      <trkpt lat="48.08714" lon="7.20773">
        <ele>725</ele>
        <time>2014-03-02T11:09:35Z</time>
      </trkpt>
      <trkpt lat="48.08683" lon="7.2078">
        <ele>722</ele>
        <time>2014-03-02T11:09:39Z</time>
      </trkpt>
      <trkpt lat="48.08665" lon="7.20787">
        <ele>717</ele>
        <time>2014-03-02T11:09:43Z</time>
      </trkpt>
      <trkpt lat="48.08639" lon="7.20789">
        <ele>714</ele>
        <time>2014-03-02T11:09:47Z</time>
      </trkpt>
      <trkpt lat="48.08612" lon="7.20795">
        <ele>718</ele>
        <time>2014-03-02T11:09:51Z</time>
      </trkpt>
      <trkpt lat="48.08585" lon="7.208">
        <ele>715</ele>
        <time>2014-03-02T11:09:55Z</time>
      </trkpt>
      <trkpt lat="48.08557" lon="7.20811">
        <ele>708</ele>
        <time>2014-03-02T11:09:59Z</time>
      </trkpt>
      <trkpt lat="48.08532" lon="7.20829">
        <ele>706</ele>
        <time>2014-03-02T11:10:04Z</time>
      </trkpt>
      <trkpt lat="48.08509" lon="7.20837">
        <ele>700</ele>
        <time>2014-03-02T11:10:09Z</time>
      </trkpt>
      <trkpt lat="48.08497" lon="7.2084">
        <ele>701</ele>
        <time>2014-03-02T11:10:13Z</time>
      </trkpt>
      <trkpt lat="48.08483" lon="7.20847">
        <ele>700</ele>
        <time>2014-03-02T11:10:17Z</time>
      </trkpt>
      <trkpt lat="48.08475" lon="7.20852">
        <ele>695</ele>
        <time>2014-03-02T11:10:21Z</time>
      </trkpt>
      <trkpt lat="48.08468" lon="7.20861">
        <ele>687</ele>
        <time>2014-03-02T11:10:25Z</time>
      </trkpt>
      <trkpt lat="48.08453" lon="7.20928">
        <ele>677</ele>
        <time>2014-03-02T11:10:34Z</time>
      </trkpt>
      <trkpt lat="48.08445" lon="7.20927">
        <ele>668</ele>
        <time>2014-03-02T11:10:42Z</time>
      </trkpt>
      <trkpt lat="48.0844" lon="7.2091">
        <ele>669</ele>
        <time>2014-03-02T11:10:47Z</time>
      </trkpt>
      <trkpt lat="48.08436" lon="7.20899">
        <ele>668</ele>
        <time>2014-03-02T11:10:53Z</time>
      </trkpt>
      <trkpt lat="48.08424" lon="7.20913">
        <ele>665</ele>
        <time>2014-03-02T11:10:57Z</time>
      </trkpt>
      <trkpt lat="48.08414" lon="7.20932">
        <ele>664</ele>
        <time>2014-03-02T11:11:01Z</time>
      </trkpt>
      <trkpt lat="48.08409" lon="7.20943">
        <ele>658</ele>
        <time>2014-03-02T11:11:05Z</time>
      </trkpt>
      <trkpt lat="48.08404" lon="7.20953">
        <ele>656</ele>
        <time>2014-03-02T11:11:09Z</time>
      </trkpt>
      <trkpt lat="48.08394" lon="7.20977">
        <ele>650</ele>
        <time>2014-03-02T11:11:14Z</time>
      </trkpt>
      <trkpt lat="48.08393" lon="7.20966">
        <ele>639</ele>
        <time>2014-03-02T11:13:11Z</time>
      </trkpt>
      <trkpt lat="48.0839" lon="7.20953">
        <ele>639</ele>
        <time>2014-03-02T11:13:16Z</time>
      </trkpt>
      <trkpt lat="48.08391" lon="7.20926">
        <ele>637</ele>
        <time>2014-03-02T11:13:20Z</time>
      </trkpt>
      <trkpt lat="48.08388" lon="7.20885">
        <ele>638</ele>
        <time>2014-03-02T11:13:24Z</time>
      </trkpt>
      <trkpt lat="48.0839" lon="7.20853">
        <ele>642</ele>
        <time>2014-03-02T11:13:29Z</time>
      </trkpt>
      <trkpt lat="48.08389" lon="7.20821">
        <ele>638</ele>
        <time>2014-03-02T11:13:33Z</time>
      </trkpt>
      <trkpt lat="48.08396" lon="7.20793">
        <ele>635</ele>
        <time>2014-03-02T11:13:37Z</time>
      </trkpt>
      <trkpt lat="48.08407" lon="7.20741">
        <ele>634</ele>
        <time>2014-03-02T11:13:42Z</time>
      </trkpt>
      <trkpt lat="48.08416" lon="7.2072">
        <ele>635</ele>
        <time>2014-03-02T11:13:46Z</time>
      </trkpt>
      <trkpt lat="48.08437" lon="7.20685">
        <ele>627</ele>
        <time>2014-03-02T11:13:51Z</time>
      </trkpt>
      <trkpt lat="48.08458" lon="7.20667">
        <ele>620</ele>
        <time>2014-03-02T11:13:55Z</time>
      </trkpt>
      <trkpt lat="48.08456" lon="7.20654">
        <ele>619</ele>
        <time>2014-03-02T11:14:04Z</time>
      </trkpt>
      <trkpt lat="48.08409" lon="7.20662">
        <ele>615</ele>
        <time>2014-03-02T11:14:12Z</time>
      </trkpt>
      <trkpt lat="48.0839" lon="7.20677">
        <ele>610</ele>
        <time>2014-03-02T11:14:16Z</time>
      </trkpt>
      <trkpt lat="48.08369" lon="7.20705">
        <ele>605</ele>
        <time>2014-03-02T11:14:21Z</time>
      </trkpt>
      <trkpt lat="48.08357" lon="7.20729">
        <ele>602</ele>
        <time>2014-03-02T11:14:25Z</time>
      </trkpt>
      <trkpt lat="48.08349" lon="7.20734">
        <ele>604</ele>
        <time>2014-03-02T11:14:30Z</time>
      </trkpt>
      <trkpt lat="48.08351" lon="7.20722">
        <ele>600</ele>
        <time>2014-03-02T11:14:36Z</time>
      </trkpt>
      <trkpt lat="48.08353" lon="7.20702">
        <ele>601</ele>
        <time>2014-03-02T11:14:40Z</time>
      </trkpt>
      <trkpt lat="48.08363" lon="7.20663">
        <ele>602</ele>
        <time>2014-03-02T11:14:44Z</time>
      </trkpt>
      <trkpt lat="48.08371" lon="7.2063">
        <ele>603</ele>
        <time>2014-03-02T11:14:48Z</time>
      </trkpt>
      <trkpt lat="48.08387" lon="7.20611">
        <ele>586</ele>
        <time>2014-03-02T11:14:53Z</time>
      </trkpt>
      <trkpt lat="48.08382" lon="7.20615">
        <ele>583</ele>
        <time>2014-03-02T11:14:59Z</time>
      </trkpt>
      <trkpt lat="48.08324" lon="7.20655">
        <ele>576</ele>
        <time>2014-03-02T11:15:13Z</time>
      </trkpt>
      <trkpt lat="48.08322" lon="7.20645">
        <ele>572</ele>
        <time>2014-03-02T11:15:18Z</time>
      </trkpt>
      <trkpt lat="48.08327" lon="7.20635">
        <ele>574</ele>
        <time>2014-03-02T11:16:40Z</time>
      </trkpt>
      <trkpt lat="48.08325" lon="7.20645">
        <ele>566</ele>
        <time>2014-03-02T11:17:00Z</time>
      </trkpt>
      <trkpt lat="48.08318" lon="7.20663">
        <ele>565</ele>
        <time>2014-03-02T11:17:04Z</time>
      </trkpt>
      <trkpt lat="48.08308" lon="7.20691">
        <ele>562</ele>
        <time>2014-03-02T11:17:09Z</time>
      </trkpt>
      <trkpt lat="48.08297" lon="7.2072">
        <ele>560</ele>
        <time>2014-03-02T11:17:13Z</time>
      </trkpt>
      <trkpt lat="48.08286" lon="7.20771">
        <ele>556</ele>
        <time>2014-03-02T11:17:18Z</time>
      </trkpt>
      <trkpt lat="48.08272" lon="7.20806">
        <ele>554</ele>
        <time>2014-03-02T11:17:22Z</time>
      </trkpt>
      <trkpt lat="48.08251" lon="7.20842">
        <ele>551</ele>
        <time>2014-03-02T11:17:27Z</time>
      </trkpt>
      <trkpt lat="48.08233" lon="7.20875">
        <ele>550</ele>
        <time>2014-03-02T11:17:31Z</time>
      </trkpt>
      <trkpt lat="48.08214" lon="7.20906">
        <ele>549</ele>
        <time>2014-03-02T11:17:35Z</time>
      </trkpt>
      <trkpt lat="48.08199" lon="7.20937">
        <ele>548</ele>
        <time>2014-03-02T11:17:39Z</time>
      </trkpt>
      <trkpt lat="48.08186" lon="7.20971">
        <ele>547</ele>
        <time>2014-03-02T11:17:43Z</time>
      </trkpt>
      <trkpt lat="48.08172" lon="7.21012">
        <ele>544</ele>
        <time>2014-03-02T11:17:48Z</time>
      </trkpt>
      <trkpt lat="48.08165" lon="7.2105">
        <ele>541</ele>
        <time>2014-03-02T11:17:52Z</time>
      </trkpt>
      <trkpt lat="48.08161" lon="7.211">
        <ele>541</ele>
        <time>2014-03-02T11:17:57Z</time>
      </trkpt>
      <trkpt lat="48.08169" lon="7.21152">
        <ele>541</ele>
        <time>2014-03-02T11:18:01Z</time>
      </trkpt>
      <trkpt lat="48.0819" lon="7.21172">
        <ele>542</ele>
        <time>2014-03-02T11:18:06Z</time>
      </trkpt>
      <trkpt lat="48.08216" lon="7.21172">
        <ele>538</ele>
        <time>2014-03-02T11:18:10Z</time>
      </trkpt>
      <trkpt lat="48.08256" lon="7.21183">
        <ele>537</ele>
        <time>2014-03-02T11:18:15Z</time>
      </trkpt>
      <trkpt lat="48.08291" lon="7.21211">
        <ele>535</ele>
        <time>2014-03-02T11:18:20Z</time>
      </trkpt>
      <trkpt lat="48.08314" lon="7.21248">
        <ele>535</ele>
        <time>2014-03-02T11:18:24Z</time>
      </trkpt>
      <trkpt lat="48.08347" lon="7.21281">
        <ele>536</ele>
        <time>2014-03-02T11:18:29Z</time>
      </trkpt>
      <trkpt lat="48.0837" lon="7.21308">
        <ele>534</ele>
        <time>2014-03-02T11:18:33Z</time>
      </trkpt>
      <trkpt lat="48.08361" lon="7.21359">
        <ele>530</ele>
        <time>2014-03-02T11:18:38Z</time>
      </trkpt>
      <trkpt lat="48.0836" lon="7.21395">
        <ele>533</ele>
        <time>2014-03-02T11:18:42Z</time>
      </trkpt>
      <trkpt lat="48.0838" lon="7.21452">
        <ele>534</ele>
        <time>2014-03-02T11:18:47Z</time>
      </trkpt>
      <trkpt lat="48.08391" lon="7.215">
        <ele>531</ele>
        <time>2014-03-02T11:18:51Z</time>
      </trkpt>
      <trkpt lat="48.08381" lon="7.21507">
        <ele>530</ele>
        <time>2014-03-02T11:18:56Z</time>
      </trkpt>
      <trkpt lat="48.08377" lon="7.21504">
        <ele>528</ele>
        <time>2014-03-02T11:19:00Z</time>
      </trkpt>
      <trkpt lat="48.08358" lon="7.2149">
        <ele>526</ele>
        <time>2014-03-02T11:19:05Z</time>
      </trkpt>
      <trkpt lat="48.0831" lon="7.21472">
        <ele>520</ele>
        <time>2014-03-02T11:19:10Z</time>
      </trkpt>
      <trkpt lat="48.08272" lon="7.2146">
        <ele>517</ele>
        <time>2014-03-02T11:19:14Z</time>
      </trkpt>
      <trkpt lat="48.08223" lon="7.21466">
        <ele>512</ele>
        <time>2014-03-02T11:19:19Z</time>
      </trkpt>
      <trkpt lat="48.08192" lon="7.21504">
        <ele>509</ele>
        <time>2014-03-02T11:19:24Z</time>
      </trkpt>
      <trkpt lat="48.08175" lon="7.21547">
        <ele>504</ele>
        <time>2014-03-02T11:19:28Z</time>
      </trkpt>
      <trkpt lat="48.08162" lon="7.21598">
        <ele>500</ele>
        <time>2014-03-02T11:19:32Z</time>
      </trkpt>
      <trkpt lat="48.08137" lon="7.2165">
        <ele>493</ele>
        <time>2014-03-02T11:19:37Z</time>
      </trkpt>
      <trkpt lat="48.08106" lon="7.21686">
        <ele>492</ele>
        <time>2014-03-02T11:19:41Z</time>
      </trkpt>
      <trkpt lat="48.08084" lon="7.21717">
        <ele>492</ele>
        <time>2014-03-02T11:19:46Z</time>
      </trkpt>
      <trkpt lat="48.08069" lon="7.21753">
        <ele>489</ele>
        <time>2014-03-02T11:19:50Z</time>
      </trkpt>
      <trkpt lat="48.08056" lon="7.21796">
        <ele>485</ele>
        <time>2014-03-02T11:19:53Z</time>
      </trkpt>
      <trkpt lat="48.08047" lon="7.21845">
        <ele>480</ele>
        <time>2014-03-02T11:19:58Z</time>
      </trkpt>
      <trkpt lat="48.08036" lon="7.21886">
        <ele>480</ele>
        <time>2014-03-02T11:20:02Z</time>
      </trkpt>
      <trkpt lat="48.08034" lon="7.21928">
        <ele>477</ele>
        <time>2014-03-02T11:20:05Z</time>
      </trkpt>
      <trkpt lat="48.08036" lon="7.21978">
        <ele>478</ele>
        <time>2014-03-02T11:20:10Z</time>
      </trkpt>
      <trkpt lat="48.0804" lon="7.22034">
        <ele>479</ele>
        <time>2014-03-02T11:20:15Z</time>
      </trkpt>
      <trkpt lat="48.08044" lon="7.22074">
        <ele>481</ele>
        <time>2014-03-02T11:20:19Z</time>
      </trkpt>
      <trkpt lat="48.08042" lon="7.22096">
        <ele>487</ele>
        <time>2014-03-02T11:20:24Z</time>
      </trkpt>
      <trkpt lat="48.08059" lon="7.22148">
        <ele>489</ele>
        <time>2014-03-02T11:20:29Z</time>
      </trkpt>
      <trkpt lat="48.08075" lon="7.22191">
        <ele>487</ele>
        <time>2014-03-02T11:20:33Z</time>
      </trkpt>
      <trkpt lat="48.08094" lon="7.22214">
        <ele>486</ele>
        <time>2014-03-02T11:20:37Z</time>
      </trkpt>
      <trkpt lat="48.08126" lon="7.22222">
        <ele>480</ele>
        <time>2014-03-02T11:20:42Z</time>
      </trkpt>
      <trkpt lat="48.08147" lon="7.22228">
        <ele>479</ele>
        <time>2014-03-02T11:20:46Z</time>
      </trkpt>
      <trkpt lat="48.08166" lon="7.22227">
        <ele>478</ele>
        <time>2014-03-02T11:20:50Z</time>
      </trkpt>
      <trkpt lat="48.08192" lon="7.2223">
        <ele>477</ele>
        <time>2014-03-02T11:20:55Z</time>
      </trkpt>
      <trkpt lat="48.08214" lon="7.22237">
        <ele>470</ele>
        <time>2014-03-02T11:20:59Z</time>
      </trkpt>
      <trkpt lat="48.08223" lon="7.22251">
        <ele>469</ele>
        <time>2014-03-02T11:21:03Z</time>
      </trkpt>
      <trkpt lat="48.08239" lon="7.22282">
        <ele>470</ele>
        <time>2014-03-02T11:21:08Z</time>
      </trkpt>
      <trkpt lat="48.08236" lon="7.22307">
        <ele>467</ele>
        <time>2014-03-02T11:21:12Z</time>
      </trkpt>
      <trkpt lat="48.08227" lon="7.22332">
        <ele>462</ele>
        <time>2014-03-02T11:21:16Z</time>
      </trkpt>
      <trkpt lat="48.08215" lon="7.22359">
        <ele>461</ele>
        <time>2014-03-02T11:21:21Z</time>
      </trkpt>
      <trkpt lat="48.08192" lon="7.22375">
        <ele>462</ele>
        <time>2014-03-02T11:21:26Z</time>
      </trkpt>
      <trkpt lat="48.0817" lon="7.22397">
        <ele>465</ele>
        <time>2014-03-02T11:21:30Z</time>
      </trkpt>
      <trkpt lat="48.08154" lon="7.22407">
        <ele>465</ele>
        <time>2014-03-02T11:21:34Z</time>
      </trkpt>
      <trkpt lat="48.08137" lon="7.22437">
        <ele>465</ele>
        <time>2014-03-02T11:21:39Z</time>
      </trkpt>
      <trkpt lat="48.08127" lon="7.22463">
        <ele>462</ele>
        <time>2014-03-02T11:21:43Z</time>
      </trkpt>
      <trkpt lat="48.08114" lon="7.22497">
        <ele>462</ele>
        <time>2014-03-02T11:21:48Z</time>
      </trkpt>
      <trkpt lat="48.08102" lon="7.22522">
        <ele>463</ele>
        <time>2014-03-02T11:21:52Z</time>
      </trkpt>
      <trkpt lat="48.08094" lon="7.22552">
        <ele>463</ele>
        <time>2014-03-02T11:21:56Z</time>
      </trkpt>
      <trkpt lat="48.08085" lon="7.22585">
        <ele>459</ele>
        <time>2014-03-02T11:22:01Z</time>
      </trkpt>
      <trkpt lat="48.08084" lon="7.22614">
        <ele>458</ele>
        <time>2014-03-02T11:22:05Z</time>
      </trkpt>
      <trkpt lat="48.08082" lon="7.22652">
        <ele>460</ele>
        <time>2014-03-02T11:22:10Z</time>
      </trkpt>
      <trkpt lat="48.08083" lon="7.2269">
        <ele>458</ele>
        <time>2014-03-02T11:22:15Z</time>
      </trkpt>
      <trkpt lat="48.08084" lon="7.22719">
        <ele>461</ele>
        <time>2014-03-02T11:22:20Z</time>
      </trkpt>
      <trkpt lat="48.08091" lon="7.22743">
        <ele>463</ele>
        <time>2014-03-02T11:22:24Z</time>
      </trkpt>
      <trkpt lat="48.08106" lon="7.22771">
        <ele>462</ele>
        <time>2014-03-02T11:22:29Z</time>
      </trkpt>
      <trkpt lat="48.0812" lon="7.22796">
        <ele>465</ele>
        <time>2014-03-02T11:22:33Z</time>
      </trkpt>
      <trkpt lat="48.08127" lon="7.22821">
        <ele>466</ele>
        <time>2014-03-02T11:22:37Z</time>
      </trkpt>
      <trkpt lat="48.08144" lon="7.22835">
        <ele>465</ele>
        <time>2014-03-02T11:22:42Z</time>
      </trkpt>
      <trkpt lat="48.0817" lon="7.22846">
        <ele>459</ele>
        <time>2014-03-02T11:22:47Z</time>
      </trkpt>
      <trkpt lat="48.08178" lon="7.22862">
        <ele>462</ele>
        <time>2014-03-02T11:22:51Z</time>
      </trkpt>
      <trkpt lat="48.0819" lon="7.22883">
        <ele>463</ele>
        <time>2014-03-02T11:22:56Z</time>
      </trkpt>
      <trkpt lat="48.08199" lon="7.22905">
        <ele>469</ele>
        <time>2014-03-02T11:23:00Z</time>
      </trkpt>
      <trkpt lat="48.08214" lon="7.22931">
        <ele>467</ele>
        <time>2014-03-02T11:23:05Z</time>
      </trkpt>
      <trkpt lat="48.08224" lon="7.22958">
        <ele>470</ele>
        <time>2014-03-02T11:23:09Z</time>
      </trkpt>
      <trkpt lat="48.08232" lon="7.22995">
        <ele>478</ele>
        <time>2014-03-02T11:23:14Z</time>
      </trkpt>
      <trkpt lat="48.0824" lon="7.23019">
        <ele>477</ele>
        <time>2014-03-02T11:23:18Z</time>
      </trkpt>
      <trkpt lat="48.08246" lon="7.23037">
        <ele>474</ele>
        <time>2014-03-02T11:23:22Z</time>
      </trkpt>
      <trkpt lat="48.08243" lon="7.2306">
        <ele>476</ele>
        <time>2014-03-02T11:23:27Z</time>
      </trkpt>
      <trkpt lat="48.08236" lon="7.23055">
        <ele>470</ele>
        <time>2014-03-02T11:23:33Z</time>
      </trkpt>
      <trkpt lat="48.0823" lon="7.23046">
        <ele>466</ele>
        <time>2014-03-02T11:23:37Z</time>
      </trkpt>
      <trkpt lat="48.08218" lon="7.23041">
        <ele>461</ele>
        <time>2014-03-02T11:23:42Z</time>
      </trkpt>
      <trkpt lat="48.08197" lon="7.23043">
        <ele>459</ele>
        <time>2014-03-02T11:23:46Z</time>
      </trkpt>
      <trkpt lat="48.08171" lon="7.23036">
        <ele>455</ele>
        <time>2014-03-02T11:23:50Z</time>
      </trkpt>
      <trkpt lat="48.08123" lon="7.23031">
        <ele>453</ele>
        <time>2014-03-02T11:23:55Z</time>
      </trkpt>
      <trkpt lat="48.08095" lon="7.23039">
        <ele>451</ele>
        <time>2014-03-02T11:23:59Z</time>
      </trkpt>
      <trkpt lat="48.08062" lon="7.23058">
        <ele>446</ele>
        <time>2014-03-02T11:24:04Z</time>
      </trkpt>
      <trkpt lat="48.08038" lon="7.23059">
        <ele>439</ele>
        <time>2014-03-02T11:24:09Z</time>
      </trkpt>
      <trkpt lat="48.08013" lon="7.23066">
        <ele>436</ele>
        <time>2014-03-02T11:24:13Z</time>
      </trkpt>
      <trkpt lat="48.0799" lon="7.23077">
        <ele>432</ele>
        <time>2014-03-02T11:24:17Z</time>
      </trkpt>
      <trkpt lat="48.07966" lon="7.2309">
        <ele>423</ele>
        <time>2014-03-02T11:24:21Z</time>
      </trkpt>
      <trkpt lat="48.0794" lon="7.23085">
        <ele>420</ele>
        <time>2014-03-02T11:24:25Z</time>
      </trkpt>
      <trkpt lat="48.07925" lon="7.23088">
        <ele>419</ele>
        <time>2014-03-02T11:24:29Z</time>
      </trkpt>
      <trkpt lat="48.07914" lon="7.23076">
        <ele>413</ele>
        <time>2014-03-02T11:24:33Z</time>
      </trkpt>
      <trkpt lat="48.07902" lon="7.23072">
        <ele>409</ele>
        <time>2014-03-02T11:24:37Z</time>
      </trkpt>
      <trkpt lat="48.07887" lon="7.23073">
        <ele>402</ele>
        <time>2014-03-02T11:24:40Z</time>
      </trkpt>
      <trkpt lat="48.07867" lon="7.23086">
        <ele>396</ele>
        <time>2014-03-02T11:24:45Z</time>
      </trkpt>
      <trkpt lat="48.07858" lon="7.23088">
        <ele>395</ele>
        <time>2014-03-02T11:24:50Z</time>
      </trkpt>
      <trkpt lat="48.07851" lon="7.23087">
        <ele>392</ele>
        <time>2014-03-02T11:24:54Z</time>
      </trkpt>
      <trkpt lat="48.07838" lon="7.2308">
        <ele>388</ele>
        <time>2014-03-02T11:24:58Z</time>
      </trkpt>
      <trkpt lat="48.07836" lon="7.23067">
        <ele>385</ele>
        <time>2014-03-02T11:25:03Z</time>
      </trkpt>
      <trkpt lat="48.07826" lon="7.23055">
        <ele>379</ele>
        <time>2014-03-02T11:25:07Z</time>
      </trkpt>
      <trkpt lat="48.0781" lon="7.23052">
        <ele>380</ele>
        <time>2014-03-02T11:25:11Z</time>
      </trkpt>
      <trkpt lat="48.07784" lon="7.2307">
        <ele>376</ele>
        <time>2014-03-02T11:25:16Z</time>
      </trkpt>
      <trkpt lat="48.07763" lon="7.23091">
        <ele>373</ele>
        <time>2014-03-02T11:25:20Z</time>
      </trkpt>
      <trkpt lat="48.07751" lon="7.23107">
        <ele>370</ele>
        <time>2014-03-02T11:25:24Z</time>
      </trkpt>
      <trkpt lat="48.07734" lon="7.23131">
        <ele>372</ele>
        <time>2014-03-02T11:25:28Z</time>
      </trkpt>
      <trkpt lat="48.07723" lon="7.23146">
        <ele>366</ele>
        <time>2014-03-02T11:25:31Z</time>
      </trkpt>
      <trkpt lat="48.07721" lon="7.23173">
        <ele>361</ele>
        <time>2014-03-02T11:25:36Z</time>
      </trkpt>
      <trkpt lat="48.07718" lon="7.23196">
        <ele>360</ele>
        <time>2014-03-02T11:25:41Z</time>
      </trkpt>
      <trkpt lat="48.0771" lon="7.23209">
        <ele>361</ele>
        <time>2014-03-02T11:25:45Z</time>
      </trkpt>
      <trkpt lat="48.07703" lon="7.23223">
        <ele>358</ele>
        <time>2014-03-02T11:25:50Z</time>
      </trkpt>
      <trkpt lat="48.07691" lon="7.23239">
        <ele>360</ele>
        <time>2014-03-02T11:25:55Z</time>
      </trkpt>
      <trkpt lat="48.0768" lon="7.23258">
        <ele>363</ele>
        <time>2014-03-02T11:26:00Z</time>
      </trkpt>
      <trkpt lat="48.07675" lon="7.23281">
        <ele>366</ele>
        <time>2014-03-02T11:26:04Z</time>
      </trkpt>
      <trkpt lat="48.07673" lon="7.23308">
        <ele>363</ele>
        <time>2014-03-02T11:26:08Z</time>
      </trkpt>
      <trkpt lat="48.07671" lon="7.23334">
        <ele>361</ele>
        <time>2014-03-02T11:26:12Z</time>
      </trkpt>
      <trkpt lat="48.07668" lon="7.23357">
        <ele>361</ele>
        <time>2014-03-02T11:26:16Z</time>
      </trkpt>
      <trkpt lat="48.07662" lon="7.23388">
        <ele>361</ele>
        <time>2014-03-02T11:26:21Z</time>
      </trkpt>
      <trkpt lat="48.07656" lon="7.23413">
        <ele>361</ele>
        <time>2014-03-02T11:26:25Z</time>
      </trkpt>
      <trkpt lat="48.0765" lon="7.23441">
        <ele>361</ele>
        <time>2014-03-02T11:26:29Z</time>
      </trkpt>
      <trkpt lat="48.0764" lon="7.2347">
        <ele>360</ele>
        <time>2014-03-02T11:26:33Z</time>
      </trkpt>
      <trkpt lat="48.0763" lon="7.23503">
        <ele>360</ele>
        <time>2014-03-02T11:26:37Z</time>
      </trkpt>
      <trkpt lat="48.07624" lon="7.23539">
        <ele>359</ele>
        <time>2014-03-02T11:26:41Z</time>
      </trkpt>
      <trkpt lat="48.07622" lon="7.23584">
        <ele>358</ele>
        <time>2014-03-02T11:26:46Z</time>
      </trkpt>
      <trkpt lat="48.0762" lon="7.23626">
        <ele>358</ele>
        <time>2014-03-02T11:26:51Z</time>
      </trkpt>
      <trkpt lat="48.07591" lon="7.23641">
        <ele>358</ele>
        <time>2014-03-02T11:26:56Z</time>
      </trkpt>
      <trkpt lat="48.07585" lon="7.23681">
        <ele>356</ele>
        <time>2014-03-02T11:27:01Z</time>
      </trkpt>
      <trkpt lat="48.07585" lon="7.23715">
        <ele>357</ele>
        <time>2014-03-02T11:27:05Z</time>
      </trkpt>
      <trkpt lat="48.07579" lon="7.23733">
        <ele>356</ele>
        <time>2014-03-02T11:27:09Z</time>
      </trkpt>
      <trkpt lat="48.0756" lon="7.2374">
        <ele>354</ele>
        <time>2014-03-02T11:27:14Z</time>
      </trkpt>
      <trkpt lat="48.07542" lon="7.23753">
        <ele>348</ele>
        <time>2014-03-02T11:27:19Z</time>
      </trkpt>
      <trkpt lat="48.07525" lon="7.23765">
        <ele>343</ele>
        <time>2014-03-02T11:27:23Z</time>
      </trkpt>
      <trkpt lat="48.07514" lon="7.23777">
        <ele>339</ele>
        <time>2014-03-02T11:27:28Z</time>
      </trkpt>
      <trkpt lat="48.07507" lon="7.23783">
        <ele>334</ele>
        <time>2014-03-02T11:27:34Z</time>
      </trkpt>
      <trkpt lat="48.07505" lon="7.23773">
        <ele>335</ele>
        <time>2014-03-02T11:27:39Z</time>
      </trkpt>
      <trkpt lat="48.07488" lon="7.23754">
        <ele>332</ele>
        <time>2014-03-02T11:27:43Z</time>
      </trkpt>
      <trkpt lat="48.07469" lon="7.23712">
        <ele>327</ele>
        <time>2014-03-02T11:27:48Z</time>
      </trkpt>
      <trkpt lat="48.07459" lon="7.23668">
        <ele>324</ele>
        <time>2014-03-02T11:27:53Z</time>
      </trkpt>
      <trkpt lat="48.07447" lon="7.23653">
        <ele>320</ele>
        <time>2014-03-02T11:27:57Z</time>
      </trkpt>
      <trkpt lat="48.07436" lon="7.23622">
        <ele>317</ele>
        <time>2014-03-02T11:28:01Z</time>
      </trkpt>
      <trkpt lat="48.07431" lon="7.23599">
        <ele>312</ele>
        <time>2014-03-02T11:28:05Z</time>
      </trkpt>
      <trkpt lat="48.07428" lon="7.2358">
        <ele>310</ele>
        <time>2014-03-02T11:28:09Z</time>
      </trkpt>
      <trkpt lat="48.07424" lon="7.23562">
        <ele>310</ele>
        <time>2014-03-02T11:28:14Z</time>
      </trkpt>
      <trkpt lat="48.07402" lon="7.23554">
        <ele>309</ele>
        <time>2014-03-02T11:28:18Z</time>
      </trkpt>
      <trkpt lat="48.0739" lon="7.23539">
        <ele>307</ele>
        <time>2014-03-02T11:28:23Z</time>
      </trkpt>
      <trkpt lat="48.07396" lon="7.23525">
        <ele>309</ele>
        <time>2014-03-02T11:28:26Z</time>
      </trkpt>
      <trkpt lat="48.07405" lon="7.23507">
        <ele>309</ele>
        <time>2014-03-02T11:28:31Z</time>
      </trkpt>
      <trkpt lat="48.07414" lon="7.23495">
        <ele>309</ele>
        <time>2014-03-02T11:28:35Z</time>
      </trkpt>
      <trkpt lat="48.07422" lon="7.23488">
        <ele>310</ele>
        <time>2014-03-02T11:28:39Z</time>
      </trkpt>
      <trkpt lat="48.07423" lon="7.23467">
        <ele>309</ele>
        <time>2014-03-02T11:28:44Z</time>
      </trkpt>
      <trkpt lat="48.0743" lon="7.23449">
        <ele>310</ele>
        <time>2014-03-02T11:28:49Z</time>
      </trkpt>
      <trkpt lat="48.07435" lon="7.23436">
        <ele>310</ele>
        <time>2014-03-02T11:28:53Z</time>
      </trkpt>
      <trkpt lat="48.07442" lon="7.23423">
        <ele>311</ele>
        <time>2014-03-02T11:28:57Z</time>
      </trkpt>
      <trkpt lat="48.07448" lon="7.23401">
        <ele>310</ele>
        <time>2014-03-02T11:29:02Z</time>
      </trkpt>
      <trkpt lat="48.0746" lon="7.23387">
        <ele>312</ele>
        <time>2014-03-02T11:29:06Z</time>
      </trkpt>
      <trkpt lat="48.07467" lon="7.23377">
        <ele>314</ele>
        <time>2014-03-02T11:29:11Z</time>
      </trkpt>
      <trkpt lat="48.07477" lon="7.2337">
        <ele>314</ele>
        <time>2014-03-02T11:29:15Z</time>
      </trkpt>
      <trkpt lat="48.0748" lon="7.23353">
        <ele>315</ele>
        <time>2014-03-02T11:29:19Z</time>
      </trkpt>
      <trkpt lat="48.0748" lon="7.23332">
        <ele>317</ele>
        <time>2014-03-02T11:29:24Z</time>
      </trkpt>
      <trkpt lat="48.07482" lon="7.23313">
        <ele>319</ele>
        <time>2014-03-02T11:29:29Z</time>
      </trkpt>
      <trkpt lat="48.07487" lon="7.23294">
        <ele>320</ele>
        <time>2014-03-02T11:29:34Z</time>
      </trkpt>
      <trkpt lat="48.07493" lon="7.23286">
        <ele>320</ele>
        <time>2014-03-02T11:29:39Z</time>
      </trkpt>
      <trkpt lat="48.07496" lon="7.23276">
        <ele>323</ele>
        <time>2014-03-02T11:29:53Z</time>
      </trkpt>
      <trkpt lat="48.07492" lon="7.23264">
        <ele>323</ele>
        <time>2014-03-02T11:29:57Z</time>
      </trkpt>
      <trkpt lat="48.0748" lon="7.23251">
        <ele>322</ele>
        <time>2014-03-02T11:30:01Z</time>
      </trkpt>
      <trkpt lat="48.07473" lon="7.23239">
        <ele>323</ele>
        <time>2014-03-02T11:30:06Z</time>
      </trkpt>
      <trkpt lat="48.07464" lon="7.23227">
        <ele>324</ele>
        <time>2014-03-02T11:30:11Z</time>
      </trkpt>
      <trkpt lat="48.07456" lon="7.23214">
        <ele>324</ele>
        <time>2014-03-02T11:30:15Z</time>
      </trkpt>
      <trkpt lat="48.07451" lon="7.23198">
        <ele>324</ele>
        <time>2014-03-02T11:30:19Z</time>
      </trkpt>
      <trkpt lat="48.0745" lon="7.23183">
        <ele>327</ele>
        <time>2014-03-02T11:30:24Z</time>
      </trkpt>
      <trkpt lat="48.07449" lon="7.23169">
        <ele>326</ele>
        <time>2014-03-02T11:30:28Z</time>
      </trkpt>
      <trkpt lat="48.07446" lon="7.2315">
        <ele>329</ele>
        <time>2014-03-02T11:30:33Z</time>
      </trkpt>
      <trkpt lat="48.07442" lon="7.23136">
        <ele>329</ele>
        <time>2014-03-02T11:30:37Z</time>
      </trkpt>
      <trkpt lat="48.07435" lon="7.23119">
        <ele>327</ele>
        <time>2014-03-02T11:30:42Z</time>
      </trkpt>
      <trkpt lat="48.07428" lon="7.2311">
        <ele>329</ele>
        <time>2014-03-02T11:30:46Z</time>
      </trkpt>
      <trkpt lat="48.07419" lon="7.23111">
        <ele>333</ele>
        <time>2014-03-02T11:30:52Z</time>
      </trkpt>
      <trkpt lat="48.07409" lon="7.23118">
        <ele>335</ele>
        <time>2014-03-02T11:30:57Z</time>
      </trkpt>
      <trkpt lat="48.07397" lon="7.23124">
        <ele>333</ele>
        <time>2014-03-02T11:31:01Z</time>
      </trkpt>
      <trkpt lat="48.07386" lon="7.23126">
        <ele>331</ele>
        <time>2014-03-02T11:31:05Z</time>
      </trkpt>
      <trkpt lat="48.07384" lon="7.2311">
        <ele>331</ele>
        <time>2014-03-02T11:31:10Z</time>
      </trkpt>
      <trkpt lat="48.0739" lon="7.23096">
        <ele>330</ele>
        <time>2014-03-02T11:31:15Z</time>
      </trkpt>
      <trkpt lat="48.07397" lon="7.23083">
        <ele>333</ele>
        <time>2014-03-02T11:31:20Z</time>
      </trkpt>
      <trkpt lat="48.07401" lon="7.23073">
        <ele>336</ele>
        <time>2014-03-02T11:31:24Z</time>
      </trkpt>
      <trkpt lat="48.07407" lon="7.23062">
        <ele>335</ele>
        <time>2014-03-02T11:31:29Z</time>
      </trkpt>
      <trkpt lat="48.07412" lon="7.23051">
        <ele>335</ele>
        <time>2014-03-02T11:31:33Z</time>
      </trkpt>
      <trkpt lat="48.07418" lon="7.23039">
        <ele>336</ele>
        <time>2014-03-02T11:31:38Z</time>
      </trkpt>
      <trkpt lat="48.07425" lon="7.23029">
        <ele>336</ele>
        <time>2014-03-02T11:31:43Z</time>
      </trkpt>
      <trkpt lat="48.07432" lon="7.23025">
        <ele>336</ele>
        <time>2014-03-02T11:31:47Z</time>
      </trkpt>
      <trkpt lat="48.07441" lon="7.23027">
        <ele>335</ele>
        <time>2014-03-02T11:31:51Z</time>
      </trkpt>
      <trkpt lat="48.07453" lon="7.23035">
        <ele>335</ele>
        <time>2014-03-02T11:31:56Z</time>
      </trkpt>
      <trkpt lat="48.07458" lon="7.23034">
        <ele>338</ele>
        <time>2014-03-02T11:34:42Z</time>
      </trkpt>
      <trkpt lat="48.07458" lon="7.23034">
        <ele>338</ele>
        <time>2014-03-02T11:34:42Z</time>
      </trkpt>
    </trkseg>
  </trk>
</gpx>